[[{"header":{"parameterUnit":"m.s-1","parameterCategory":1,"la1":31.0,"la2":29.5877,"lo1":-88.7671,"lo2":-86.6584,"dy":0.0162,"dx":0.0185,"nx":115,"ny":88,"refTime":"2023-03-20T12:00:00:Z","depth":0,"parameterNumber":2,"parameterNumberName":"U-component_of_WINDS"},"data":[0.0,0.0,0.0,0.0,0.0,0.0,0.0,0.0,0.0,0.0,0.0,0.0,0.0,0.0,0.0,0.0,0.0,0.0,0.0,0.0,0.0,0.0,0.0,0.0,0.0,0.0,0.0,0.0,0.0,0.0,0.0,0.0,0.0,0.0,0.0,0.0,0.0,0.0,0.0,0.0,0.0,0.0,0.0,0.0,0.0,0.0,0.0,0.0,0.0,0.0,0.0,0.0,0.0,0.0,0.0,0.0,0.0,0.0,0.0,0.0,0.0,0.0,0.0,0.0,0.0,0.0,0.0,0.0,0.0,0.0,0.0,0.0,0.0,0.0,0.0,0.0,0.0,0.0,0.0,0.0,0.0,0.0,0.0,0.0,0.0,0.0,0.0,0.0,0.0,0.0,0.0,0.0,0.0,0.0,0.0,0.0,0.0,0.0,0.0,0.0,0.0,0.0,0.0,0.0,0.0,0.0,0.0,0.0,0.0,0.0,0.0,0.0,0.0,0.0,0.0,0.0,0.0,0.0,0.0,0.0,0.0,0.0,0.0,0.0,0.0,0.0,0.0,0.0,0.0,0.0,0.0,0.0,0.0,0.0,0.0,0.0,0.0,0.0,0.0,0.0,0.0,0.0,0.0,0.0,0.0,0.0,0.0,0.0,0.0,0.0,0.0,0.0,0.0,0.0,0.0,0.0,0.0,0.0,0.0,0.0,0.0,0.0,0.0,0.0,0.0,0.0,0.0,0.0,0.0,0.0,0.0,0.0,0.0,0.0,0.0,0.0,0.0,0.0,0.0,0.0,0.0,0.0,0.0,0.0,0.0,0.0,0.0,0.0,0.0,0.0,0.0,0.0,0.0,0.0,0.0,0.0,0.0,0.0,0.0,0.0,0.0,0.0,0.0,0.0,0.0,0.0,0.0,0.0,0.0,0.0,0.0,0.0,0.0,0.0,0.0,0.0,0.0,0.0,0.0,0.0,0.0,0.0,0.0,0.0,0.0,0.0,0.0,0.0,0.0,0.0,0.0,0.0,0.0,0.0,0.0,0.0,0.0,0.0,0.0,0.0,0.0,0.0,0.0,0.0,0.0,0.0,0.0,0.0,0.0,0.0,0.0,0.0,0.0,0.0,0.0,0.0,0.0,0.0,0.0,0.0,0.0,0.0,0.0,0.0,0.0,0.0,0.0,0.0,0.0,0.0,0.0,0.0,0.0,0.0,0.0,0.0,0.0,0.0,0.0,0.0,0.0,0.0,0.0,0.0,0.0,0.0,0.0,0.0,0.0,0.0,0.0,0.0,0.0,0.0,0.0,0.0,0.0,0.0,0.0,0.0,0.0,0.0,0.0,0.0,0.0,0.0,0.0,0.0,0.0,0.0,0.0,0.0,0.0,0.0,0.0,0.0,0.0,0.0,0.0,0.0,0.0,0.0,0.0,0.0,0.0,0.0,0.0,0.0,0.0,0.0,0.0,0.0,0.0,0.0,0.0,0.0,0.0,0.0,0.0,0.0,0.0,0.0,0.0,0.0,0.0,0.0,0.0,0.0,0.0,0.0,0.0,0.0,0.0,0.0,0.0,0.0,0.0,0.0,0.0,0.0,0.0,0.0,0.0,0.0,0.0,0.0,0.0,0.0,0.0,0.0,0.0,0.0,0.0,0.0,0.0,0.0,0.0,0.0,0.0,0.0,0.0,0.0,0.0,0.0,0.0,0.0,0.0,0.0,0.0,0.0,0.0,0.0,0.0,0.0,0.0,0.0,0.0,0.0,0.0,0.0,0.0,0.0,0.0,0.0,0.0,0.0,0.0,0.0,0.0,0.0,0.0,0.0,0.0,0.0,0.0,0.0,0.0,0.0,0.0,0.0,0.0,0.0,0.0,0.0,0.0,0.0,0.0,0.0,0.0,0.0,0.0,0.0,0.0,0.0,0.0,0.0,0.0,0.0,0.0,0.0,0.0,0.0,0.0,0.0,0.0,0.0,0.0,0.0,0.0,0.0,0.0,0.0,0.0,0.0,0.0,0.0,0.0,0.0,0.0,0.0,0.0,0.0,0.0,0.0,0.0,0.0,0.0,0.0,0.0,0.0,0.0,0.0,0.0,0.0,0.0,0.0,0.0,0.0,0.0,0.0,0.0,0.0,0.0,0.0,0.0,0.0,0.0,0.0,0.0,0.0,0.0,0.0,0.0,0.0,0.0,0.0,0.0,0.0,0.0,0.0,0.0,0.0,0.0,0.0,0.0,0.0,0.0,0.0,0.0,0.0,0.0,0.0,0.0,0.0,0.0,0.0,0.0,0.0,0.0,0.0,0.0,0.0,0.0,0.0,0.0,0.0,0.0,0.0,0.0,0.0,0.0,0.0,0.0,0.0,0.0,0.0,0.0,0.0,0.0,0.0,0.0,0.0,0.0,0.0,0.0,0.0,0.0,0.0,0.0,0.0,0.0,0.0,0.0,0.0,0.0,0.0,0.0,0.0,0.0,0.0,0.0,0.0,0.0,0.0,0.0,0.0,0.0,0.0,0.0,0.0,0.0,0.0,0.0,0.0,0.0,0.0,0.0,0.0,0.0,0.0,0.0,0.0,0.0,0.0,0.0,0.0,0.0,0.0,0.0,0.0,0.0,0.0,0.0,0.0,0.0,0.0,0.0,0.0,0.0,0.0,0.0,0.0,0.0,0.0,0.0,0.0,0.0,0.0,0.0,0.0,0.0,0.0,0.0,0.0,0.0,0.0,0.0,0.0,0.0,0.0,0.0,0.0,0.0,0.0,0.0,0.0,0.0,0.0,0.0,0.0,0.0,0.0,0.0,0.0,0.0,0.0,0.0,0.0,0.0,0.0,0.0,0.0,0.0,0.0,0.0,0.0,0.0,0.0,0.0,0.0,0.0,0.0,0.0,0.0,0.0,0.0,0.0,0.0,0.0,0.0,0.0,0.0,0.0,0.0,0.0,0.0,0.0,0.0,0.0,0.0,0.0,0.0,0.0,0.0,0.0,0.0,0.0,0.0,0.0,0.0,0.0,0.0,0.0,0.0,0.0,0.0,0.0,0.0,0.0,0.0,0.0,0.0,0.0,0.0,0.0,0.0,0.0,0.0,0.0,0.0,0.0,0.0,0.0,0.0,0.0,0.0,0.0,0.0,0.0,0.0,0.0,0.0,0.0,0.0,0.0,0.0,0.0,0.0,0.0,0.0,0.0,0.0,0.0,0.0,0.0,0.0,0.0,0.0,0.0,0.0,0.0,0.0,0.0,0.0,0.0,0.0,0.0,0.0,0.0,0.0,0.0,0.0,0.0,0.0,0.0,0.0,0.0,0.0,0.0,0.0,0.0,0.0,0.0,0.0,0.0,0.0,0.0,0.0,0.0,0.0,0.0,0.0,0.0,0.0,0.0,0.0,0.0,0.0,0.0,0.0,0.0,0.0,0.0,0.0,0.0,0.0,0.0,0.0,0.0,0.0,0.0,0.0,0.0,0.0,0.0,0.0,0.0,0.0,0.0,0.0,0.0,0.0,0.0,0.0,0.0,0.0,0.0,0.0,0.0,0.0,0.0,0.0,0.0,0.0,0.0,0.0,0.0,0.0,0.0,0.0,0.0,0.0,0.0,0.0,0.0,0.0,0.0,0.0,0.0,0.0,0.0,0.0,0.0,0.0,0.0,0.0,0.0,0.0,0.0,0.0,0.0,0.0,0.0,0.0,0.0,0.0,0.0,0.0,0.0,0.0,0.0,0.0,0.0,0.0,0.0,0.0,0.0,0.0,0.0,0.0,0.0,0.0,0.0,0.0,0.0,0.0,0.0,0.0,0.0,0.0,0.0,0.0,0.0,0.0,0.0,0.0,0.0,0.0,0.0,0.0,0.0,0.0,0.0,0.0,0.0,0.0,0.0,0.0,0.0,0.0,0.0,0.0,0.0,0.0,0.0,0.0,0.0,0.0,0.0,0.0,0.0,0.0,0.0,0.0,0.0,0.0,0.0,0.0,0.0,0.0,0.0,0.0,0.0,0.0,0.0,0.0,0.0,0.0,0.0,0.0,0.0,0.0,0.0,0.0,0.0,0.0,0.0,0.0,0.0,0.0,0.0,0.0,0.0,0.0,0.0,0.0,0.0,0.0,0.0,0.0,0.0,0.0,0.0,0.0,0.0,0.0,0.0,0.0,0.0,0.0,0.0,0.0,0.0,0.0,0.0,0.0,0.0,0.0,0.0,0.0,0.0,0.0,0.0,0.0,0.0,0.0,0.0,0.0,0.0,0.0,0.0,0.0,0.0,0.0,0.0,0.0,-2.7021,0.0,0.0,0.0,0.0,0.0,0.0,0.0,0.0,0.0,0.0,0.0,0.0,0.0,0.0,0.0,0.0,0.0,0.0,0.0,0.0,0.0,0.0,0.0,0.0,0.0,0.0,0.0,0.0,0.0,0.0,0.0,0.0,0.0,0.0,0.0,0.0,0.0,0.0,0.0,0.0,0.0,0.0,0.0,0.0,0.0,0.0,0.0,0.0,0.0,0.0,0.0,0.0,0.0,0.0,0.0,0.0,0.0,0.0,0.0,0.0,0.0,0.0,0.0,0.0,0.0,0.0,0.0,0.0,0.0,0.0,0.0,0.0,0.0,0.0,0.0,0.0,0.0,0.0,0.0,0.0,0.0,0.0,0.0,0.0,0.0,0.0,0.0,0.0,0.0,0.0,0.0,0.0,0.0,0.0,0.0,0.0,0.0,0.0,0.0,0.0,0.0,0.0,0.0,0.0,0.0,0.0,0.0,0.0,0.0,0.0,-2.6759,-2.6959,-2.6959,-2.704,-2.7166,0.0,0.0,0.0,0.0,0.0,0.0,0.0,0.0,0.0,0.0,0.0,0.0,0.0,0.0,0.0,0.0,0.0,0.0,0.0,0.0,0.0,0.0,0.0,0.0,0.0,0.0,0.0,0.0,0.0,0.0,0.0,0.0,0.0,0.0,0.0,0.0,0.0,0.0,0.0,0.0,0.0,0.0,0.0,0.0,0.0,0.0,0.0,0.0,0.0,0.0,0.0,0.0,0.0,0.0,0.0,0.0,0.0,0.0,0.0,0.0,0.0,0.0,0.0,0.0,0.0,0.0,0.0,0.0,0.0,0.0,0.0,0.0,0.0,0.0,0.0,0.0,0.0,0.0,0.0,0.0,0.0,0.0,0.0,0.0,0.0,0.0,0.0,0.0,0.0,0.0,0.0,0.0,0.0,0.0,0.0,0.0,0.0,0.0,0.0,0.0,0.0,0.0,0.0,0.0,0.0,0.0,0.0,0.0,0.0,0.0,0.0,0.0,-2.6992,-2.7087,-2.7289,0.0,0.0,0.0,0.0,0.0,0.0,0.0,0.0,0.0,0.0,0.0,0.0,0.0,0.0,0.0,0.0,0.0,0.0,0.0,0.0,0.0,0.0,0.0,0.0,0.0,0.0,0.0,0.0,0.0,0.0,0.0,0.0,0.0,0.0,0.0,0.0,0.0,0.0,0.0,0.0,0.0,0.0,0.0,0.0,0.0,0.0,0.0,0.0,0.0,0.0,0.0,0.0,0.0,0.0,0.0,0.0,0.0,0.0,0.0,0.0,0.0,0.0,0.0,0.0,0.0,0.0,0.0,0.0,0.0,0.0,0.0,0.0,0.0,0.0,0.0,0.0,0.0,0.0,0.0,0.0,0.0,0.0,0.0,0.0,0.0,0.0,0.0,0.0,0.0,0.0,0.0,0.0,0.0,0.0,0.0,0.0,0.0,0.0,0.0,0.0,0.0,0.0,0.0,0.0,0.0,0.0,0.0,0.0,0.0,0.0,-2.6808,-2.6992,-2.7024,0.0,-2.7631,0.0,0.0,0.0,0.0,0.0,0.0,0.0,0.0,0.0,0.0,0.0,0.0,0.0,0.0,0.0,0.0,0.0,0.0,0.0,0.0,0.0,0.0,0.0,0.0,0.0,0.0,0.0,0.0,0.0,0.0,0.0,0.0,0.0,0.0,0.0,0.0,0.0,0.0,0.0,0.0,0.0,0.0,0.0,0.0,0.0,0.0,0.0,0.0,0.0,0.0,0.0,0.0,0.0,0.0,0.0,0.0,0.0,0.0,0.0,0.0,0.0,0.0,0.0,0.0,0.0,0.0,0.0,0.0,0.0,0.0,0.0,0.0,0.0,0.0,0.0,0.0,0.0,0.0,0.0,0.0,0.0,0.0,0.0,0.0,0.0,0.0,0.0,0.0,0.0,0.0,0.0,0.0,0.0,0.0,0.0,0.0,0.0,0.0,0.0,0.0,0.0,0.0,0.0,0.0,0.0,0.0,0.0,0.0,0.0,0.0,-2.6674,-2.6825,-2.7087,-2.7417,0.0,0.0,0.0,0.0,0.0,0.0,0.0,0.0,0.0,0.0,0.0,0.0,0.0,0.0,0.0,0.0,0.0,0.0,0.0,0.0,0.0,0.0,0.0,0.0,0.0,0.0,0.0,0.0,0.0,0.0,0.0,0.0,0.0,0.0,0.0,0.0,0.0,0.0,0.0,0.0,0.0,0.0,0.0,0.0,0.0,0.0,0.0,0.0,0.0,0.0,0.0,0.0,0.0,0.0,0.0,0.0,0.0,0.0,0.0,0.0,0.0,0.0,0.0,0.0,0.0,0.0,0.0,0.0,0.0,0.0,0.0,0.0,0.0,0.0,0.0,0.0,0.0,0.0,0.0,0.0,0.0,0.0,0.0,0.0,0.0,0.0,0.0,0.0,0.0,0.0,0.0,0.0,0.0,0.0,0.0,0.0,0.0,0.0,0.0,0.0,0.0,0.0,0.0,0.0,0.0,0.0,0.0,0.0,0.0,0.0,-2.6589,-2.6606,-2.6725,-2.7117,-2.7478,-2.7701,0.0,0.0,0.0,0.0,0.0,0.0,0.0,0.0,0.0,0.0,0.0,0.0,0.0,0.0,0.0,0.0,0.0,0.0,0.0,0.0,0.0,0.0,0.0,0.0,0.0,0.0,0.0,0.0,0.0,0.0,0.0,0.0,0.0,0.0,0.0,0.0,0.0,0.0,0.0,0.0,0.0,0.0,0.0,0.0,0.0,0.0,0.0,0.0,0.0,0.0,0.0,0.0,0.0,0.0,0.0,0.0,0.0,0.0,0.0,0.0,0.0,0.0,0.0,0.0,0.0,0.0,0.0,0.0,0.0,0.0,0.0,0.0,0.0,0.0,0.0,0.0,0.0,0.0,0.0,0.0,0.0,0.0,0.0,0.0,0.0,0.0,0.0,0.0,0.0,0.0,0.0,0.0,0.0,0.0,0.0,0.0,0.0,0.0,0.0,0.0,0.0,0.0,0.0,0.0,0.0,0.0,0.0,0.0,-2.6606,-2.6554,-2.6572,-2.6691,-2.7021,-2.7293,0.0,0.0,0.0,0.0,0.0,0.0,0.0,0.0,0.0,0.0,0.0,0.0,0.0,0.0,0.0,0.0,0.0,0.0,0.0,0.0,0.0,0.0,0.0,0.0,0.0,0.0,0.0,0.0,0.0,0.0,0.0,0.0,0.0,0.0,0.0,0.0,0.0,0.0,0.0,0.0,0.0,0.0,0.0,0.0,0.0,0.0,0.0,0.0,0.0,0.0,0.0,0.0,0.0,0.0,0.0,0.0,0.0,0.0,0.0,0.0,0.0,0.0,0.0,0.0,0.0,0.0,0.0,0.0,0.0,0.0,0.0,0.0,0.0,0.0,0.0,0.0,0.0,0.0,0.0,0.0,0.0,0.0,0.0,0.0,0.0,0.0,0.0,0.0,0.0,0.0,0.0,0.0,0.0,0.0,0.0,0.0,0.0,0.0,0.0,0.0,0.0,0.0,0.0,0.0,0.0,0.0,0.0,0.0,0.0,-2.652,-2.6434,-2.6486,-2.6691,-2.694,-2.7215,0.0,0.0,0.0,0.0,0.0,0.0,0.0,0.0,0.0,0.0,0.0,0.0,0.0,0.0,0.0,0.0,0.0,0.0,0.0,0.0,0.0,0.0,0.0,0.0,0.0,0.0,0.0,0.0,0.0,0.0,0.0,0.0,0.0,0.0,0.0,0.0,0.0,0.0,0.0,0.0,0.0,0.0,0.0,0.0,0.0,0.0,0.0,0.0,0.0,0.0,0.0,0.0,0.0,0.0,0.0,0.0,0.0,0.0,0.0,0.0,0.0,0.0,0.0,0.0,0.0,0.0,0.0,0.0,0.0,0.0,0.0,0.0,0.0,0.0,0.0,0.0,0.0,0.0,0.0,0.0,0.0,0.0,0.0,0.0,0.0,0.0,0.0,0.0,0.0,0.0,0.0,0.0,0.0,0.0,0.0,0.0,0.0,0.0,0.0,0.0,0.0,0.0,0.0,0.0,0.0,0.0,0.0,0.0,0.0,-2.6434,0.0,-2.64,-2.6657,-2.6825,-2.7055,0.0,0.0,0.0,0.0,0.0,0.0,0.0,0.0,0.0,0.0,0.0,0.0,0.0,0.0,0.0,0.0,0.0,0.0,0.0,0.0,0.0,0.0,0.0,0.0,0.0,0.0,0.0,0.0,0.0,0.0,0.0,0.0,0.0,0.0,0.0,0.0,0.0,0.0,0.0,0.0,0.0,0.0,0.0,0.0,0.0,0.0,0.0,0.0,0.0,0.0,0.0,0.0,0.0,0.0,0.0,0.0,0.0,0.0,0.0,0.0,0.0,0.0,0.0,0.0,0.0,0.0,0.0,0.0,0.0,0.0,0.0,0.0,0.0,0.0,0.0,0.0,0.0,0.0,0.0,0.0,0.0,0.0,0.0,0.0,0.0,0.0,0.0,0.0,0.0,0.0,0.0,0.0,0.0,0.0,0.0,0.0,0.0,0.0,0.0,0.0,0.0,0.0,0.0,0.0,0.0,0.0,0.0,0.0,-2.652,-2.6364,-2.6312,-2.6432,-2.6519,-2.6691,-2.6842,0.0,0.0,0.0,0.0,0.0,0.0,0.0,0.0,0.0,0.0,0.0,0.0,0.0,0.0,0.0,0.0,0.0,0.0,0.0,0.0,0.0,0.0,0.0,0.0,0.0,0.0,0.0,0.0,0.0,0.0,0.0,0.0,0.0,0.0,0.0,0.0,0.0,0.0,0.0,0.0,0.0,0.0,0.0,0.0,0.0,0.0,0.0,0.0,0.0,0.0,0.0,0.0,0.0,0.0,0.0,0.0,0.0,0.0,0.0,0.0,0.0,0.0,0.0,0.0,0.0,0.0,0.0,0.0,0.0,0.0,0.0,0.0,0.0,0.0,0.0,0.0,0.0,0.0,0.0,0.0,0.0,0.0,0.0,0.0,0.0,0.0,0.0,0.0,0.0,0.0,0.0,0.0,0.0,0.0,0.0,0.0,0.0,0.0,0.0,0.0,0.0,0.0,0.0,0.0,0.0,0.0,0.0,0.0,0.0,-2.7205,-2.7222,-2.7205,-2.7328,-2.7417,-2.7369,0.0,0.0,0.0,0.0,0.0,0.0,0.0,0.0,0.0,0.0,0.0,0.0,0.0,0.0,0.0,0.0,0.0,0.0,0.0,0.0,0.0,0.0,0.0,0.0,0.0,0.0,0.0,0.0,0.0,0.0,0.0,0.0,0.0,0.0,0.0,0.0,0.0,0.0,0.0,0.0,0.0,0.0,0.0,0.0,0.0,0.0,0.0,0.0,0.0,0.0,0.0,0.0,0.0,0.0,0.0,0.0,0.0,0.0,0.0,0.0,0.0,0.0,0.0,0.0,0.0,0.0,0.0,0.0,0.0,0.0,0.0,0.0,0.0,0.0,0.0,0.0,0.0,0.0,0.0,0.0,0.0,0.0,0.0,0.0,0.0,0.0,0.0,0.0,0.0,0.0,0.0,0.0,0.0,0.0,0.0,0.0,0.0,0.0,0.0,0.0,0.0,0.0,0.0,0.0,0.0,0.0,0.0,0.0,0.0,-2.8952,-2.8622,-2.8451,-2.8525,-2.8275,-2.7945,-2.7483,0.0,0.0,0.0,0.0,0.0,0.0,0.0,0.0,0.0,0.0,0.0,0.0,0.0,0.0,0.0,0.0,0.0,0.0,0.0,0.0,0.0,0.0,0.0,0.0,0.0,0.0,0.0,0.0,0.0,0.0,0.0,0.0,0.0,0.0,0.0,0.0,0.0,0.0,0.0,0.0,0.0,0.0,0.0,0.0,0.0,0.0,0.0,0.0,0.0,0.0,0.0,0.0,0.0,0.0,0.0,0.0,0.0,0.0,0.0,0.0,0.0,0.0,0.0,0.0,0.0,0.0,0.0,0.0,0.0,0.0,0.0,0.0,0.0,0.0,0.0,0.0,0.0,0.0,0.0,0.0,0.0,0.0,0.0,0.0,0.0,0.0,0.0,0.0,0.0,0.0,0.0,0.0,0.0,0.0,0.0,0.0,0.0,0.0,0.0,0.0,0.0,0.0,0.0,0.0,0.0,0.0,0.0,0.0,-3.1385,-3.0538,-3.0068,-3.0005,-2.9332,-2.8704,0.0,0.0,0.0,0.0,0.0,0.0,0.0,0.0,0.0,0.0,0.0,0.0,0.0,0.0,0.0,0.0,0.0,0.0,0.0,0.0,0.0,0.0,0.0,0.0,0.0,0.0,0.0,0.0,0.0,0.0,0.0,0.0,0.0,0.0,0.0,0.0,0.0,0.0,0.0,0.0,0.0,0.0,0.0,0.0,0.0,0.0,0.0,0.0,0.0,0.0,0.0,0.0,0.0,0.0,0.0,0.0,0.0,0.0,0.0,0.0,0.0,0.0,0.0,0.0,0.0,0.0,0.0,0.0,0.0,0.0,0.0,0.0,0.0,0.0,0.0,0.0,0.0,0.0,0.0,0.0,0.0,0.0,0.0,0.0,0.0,0.0,0.0,0.0,0.0,0.0,0.0,0.0,0.0,0.0,0.0,0.0,0.0,0.0,0.0,0.0,0.0,0.0,0.0,0.0,0.0,0.0,0.0,0.0,0.0,-3.229,-3.3046,-3.2855,-3.1692,-3.0948,-3.0065,0.0,0.0,0.0,0.0,0.0,0.0,0.0,0.0,0.0,0.0,0.0,0.0,0.0,0.0,0.0,0.0,0.0,0.0,0.0,0.0,0.0,0.0,0.0,0.0,0.0,0.0,0.0,0.0,0.0,0.0,0.0,0.0,0.0,0.0,0.0,0.0,0.0,0.0,0.0,0.0,0.0,0.0,0.0,0.0,0.0,0.0,0.0,0.0,0.0,0.0,0.0,0.0,0.0,0.0,0.0,0.0,0.0,0.0,0.0,0.0,0.0,0.0,0.0,0.0,0.0,0.0,0.0,0.0,0.0,0.0,0.0,0.0,0.0,0.0,0.0,0.0,0.0,0.0,0.0,0.0,0.0,0.0,0.0,0.0,0.0,0.0,0.0,0.0,0.0,0.0,0.0,0.0,0.0,0.0,0.0,0.0,0.0,0.0,0.0,0.0,0.0,0.0,0.0,0.0,0.0,0.0,0.0,0.0,-3.2182,-3.2957,-3.4599,-3.4815,-3.3409,-3.2293,-3.1014,0.0,0.0,0.0,0.0,0.0,0.0,0.0,0.0,0.0,0.0,0.0,0.0,0.0,0.0,0.0,0.0,0.0,0.0,0.0,0.0,0.0,0.0,0.0,0.0,0.0,0.0,0.0,0.0,0.0,0.0,0.0,0.0,0.0,0.0,0.0,0.0,0.0,0.0,0.0,0.0,0.0,0.0,0.0,0.0,0.0,0.0,0.0,0.0,0.0,0.0,0.0,0.0,0.0,0.0,0.0,0.0,0.0,0.0,0.0,0.0,0.0,0.0,0.0,0.0,0.0,0.0,0.0,0.0,0.0,0.0,0.0,0.0,0.0,0.0,0.0,0.0,0.0,0.0,0.0,0.0,0.0,0.0,0.0,0.0,0.0,0.0,0.0,0.0,0.0,0.0,0.0,0.0,0.0,0.0,0.0,0.0,0.0,0.0,0.0,0.0,0.0,0.0,0.0,0.0,0.0,0.0,0.0,0.0,-3.3436,-3.3432,-3.5368,-3.5915,-3.4927,-3.3311,-3.1777,0.0,0.0,0.0,0.0,0.0,0.0,0.0,0.0,0.0,0.0,0.0,0.0,0.0,0.0,0.0,0.0,0.0,0.0,0.0,0.0,0.0,0.0,0.0,0.0,0.0,0.0,0.0,0.0,0.0,0.0,0.0,0.0,0.0,0.0,0.0,0.0,0.0,0.0,0.0,0.0,0.0,0.0,0.0,0.0,0.0,0.0,0.0,0.0,0.0,0.0,0.0,0.0,0.0,0.0,0.0,0.0,0.0,0.0,0.0,0.0,0.0,0.0,0.0,0.0,0.0,0.0,0.0,0.0,0.0,0.0,0.0,0.0,0.0,0.0,0.0,0.0,0.0,0.0,0.0,0.0,0.0,0.0,0.0,0.0,0.0,0.0,0.0,0.0,0.0,0.0,0.0,0.0,0.0,0.0,0.0,0.0,0.0,0.0,0.0,0.0,0.0,0.0,0.0,0.0,0.0,0.0,0.0,0.0,-3.3481,-3.4252,-3.5076,-3.5412,-3.5088,-3.392,-3.2557,0.0,0.0,0.0,0.0,0.0,0.0,0.0,0.0,0.0,0.0,0.0,0.0,0.0,0.0,0.0,0.0,0.0,0.0,0.0,0.0,0.0,0.0,0.0,0.0,0.0,0.0,0.0,0.0,0.0,0.0,0.0,0.0,0.0,0.0,0.0,0.0,0.0,0.0,0.0,0.0,0.0,0.0,0.0,0.0,0.0,0.0,0.0,0.0,-0.0866,0.0,0.0,0.0,0.0,0.0,0.0,0.0,0.0,0.0,0.0,0.0,0.0,0.0,0.0,0.0,0.0,0.0,0.0,0.0,0.0,0.0,0.0,0.0,0.0,0.0,0.0,0.0,0.0,0.0,0.0,0.0,0.0,0.0,0.0,0.0,0.0,0.0,0.0,0.0,0.0,0.0,0.0,0.0,0.0,0.0,0.0,0.0,0.0,0.0,0.0,0.0,0.0,0.0,0.0,0.0,0.0,0.0,0.0,0.0,-3.4283,-3.4947,-3.5761,-3.5898,-3.5174,-3.4789,-3.3499,0.0,0.0,0.0,0.0,0.0,0.0,0.0,0.0,0.0,0.0,0.0,0.0,0.0,0.0,0.0,0.0,0.0,0.0,0.0,0.0,0.0,0.0,0.0,0.0,0.0,0.0,0.0,0.0,0.0,0.0,0.0,0.0,0.0,0.0,0.0,0.0,0.0,0.0,0.0,0.0,0.0,0.0,0.0,0.0,0.0,0.0,0.0,0.0,0.0,0.0,0.0,0.0,0.0,0.0,0.0,0.0,0.0,0.0,0.0,0.0,0.0,0.0,0.0,0.0,0.0,0.0,0.0,0.0,0.0,0.0,0.0,0.0,0.0,0.0,0.0,0.0,0.0,0.0,0.0,0.0,0.0,0.0,0.0,0.0,0.0,0.0,0.0,0.0,0.0,0.0,0.0,0.0,0.0,0.0,0.0,0.0,0.0,0.0,0.0,0.0,0.0,0.0,0.0,0.0,0.0,0.0,0.0,-3.444,-3.5223,-3.5575,-3.6584,-3.658,-3.5414,-3.5549,-3.4289,-3.144,0.0,0.0,0.0,0.0,0.0,0.0,0.0,0.0,0.0,0.0,0.0,0.0,0.0,0.0,0.0,0.0,0.0,0.0,0.0,0.0,0.0,0.0,0.0,0.0,0.0,0.0,0.0,0.0,0.0,0.0,0.0,0.0,0.0,0.0,0.0,0.0,0.0,0.0,-0.9279,-0.7821,0.0,0.0,0.0,0.0,0.0,0.0,0.0,0.0,0.1678,0.0,0.0,0.0,0.0,0.0,0.0,0.0,0.0,0.0,0.0,0.0,0.0,0.0,0.0,0.0,0.0,0.0,0.0,0.0,0.0,0.0,0.0,0.0,0.0,0.0,0.0,0.0,0.0,0.0,0.0,0.0,0.0,0.0,0.0,0.0,0.0,0.0,0.0,0.0,0.0,0.0,0.0,0.0,0.0,0.0,0.0,0.0,0.0,0.0,0.0,0.0,0.0,0.0,0.0,0.0,0.0,-3.3182,-3.4269,-3.5344,-3.6284,-3.6377,-3.6305,-3.6128,-3.5578,-3.422,-3.2089,0.0,0.0,0.0,0.0,0.0,0.0,0.0,0.0,0.0,0.0,0.0,0.0,0.0,0.0,0.0,0.0,0.0,0.0,0.0,0.0,0.0,0.0,0.0,0.0,0.0,0.0,0.0,0.0,0.0,0.0,0.0,0.0,0.0,0.0,0.0,0.0,0.0,0.0,0.0,-0.7163,-0.6156,0.0,0.0,0.0,0.0,0.0,0.0,0.0,0.0,0.008,0.0,0.0,0.0,0.0,0.0,0.0,0.0,0.0,0.0,0.0,0.0,0.0,0.0,0.0,0.0,0.0,0.0,0.0,0.0,0.0,0.0,0.0,0.0,0.0,0.0,0.0,0.0,0.0,0.0,0.0,0.0,0.0,0.0,0.0,0.0,0.0,0.0,0.0,0.0,0.0,0.0,0.0,0.0,0.0,0.0,0.0,0.0,0.0,0.0,0.0,0.0,0.0,0.0,0.0,0.0,-3.4469,-3.5343,-3.6275,-3.7232,-3.7152,-3.6981,-3.6773,-3.6204,-3.478,0.0,0.0,0.0,0.0,0.0,0.0,0.0,0.0,0.0,0.0,0.0,0.0,0.0,0.0,0.0,0.0,0.0,0.0,0.0,0.0,0.0,0.0,0.0,0.0,0.0,0.0,0.0,0.0,0.0,0.0,0.0,0.0,0.0,0.0,0.0,0.0,0.0,0.0,0.0,0.0,-0.6898,-0.5803,-0.4383,0.0,0.0,0.0,0.0,0.0,0.0,-0.1216,-0.1056,0.0,0.0,0.0,0.0,0.0,0.0,0.0,0.0,0.0,0.0,0.0,0.0,0.0,0.0,0.0,0.0,0.0,0.0,0.0,0.0,0.0,0.0,0.0,0.0,0.0,0.0,0.0,0.0,0.0,0.0,0.0,0.0,0.0,0.0,0.0,0.0,0.0,0.0,0.0,0.0,0.0,0.0,0.0,0.0,0.0,0.0,0.0,0.0,0.0,0.0,0.0,0.0,0.0,0.0,0.0,-3.6175,-3.6606,-3.7192,-3.7982,-3.7951,-3.7757,-3.7414,-3.6738,-3.515,0.0,0.0,0.0,0.0,0.0,0.0,0.0,0.0,0.0,0.0,0.0,0.0,0.0,0.0,0.0,0.0,0.0,0.0,0.0,0.0,0.0,0.0,0.0,0.0,0.0,0.0,0.0,0.0,0.0,0.0,0.0,0.0,0.0,0.0,0.0,0.0,0.0,0.0,0.0,0.0,0.0,-0.554,-0.3984,-0.3704,0.0,0.0,0.0,0.0,-0.146,-0.1803,0.0,0.0,0.0,0.0,0.0,0.0,0.0,0.0,0.0,0.0,0.0,0.0,0.0,0.0,0.0,0.0,0.0,0.0,0.0,0.0,0.0,0.0,0.0,0.0,0.0,0.0,0.0,0.0,0.0,0.0,0.0,0.0,0.0,0.0,0.0,0.0,0.0,0.0,0.0,0.0,0.0,0.0,0.0,0.0,0.0,0.0,0.0,0.0,0.0,0.0,0.0,0.0,0.0,0.0,0.0,0.0,-3.7766,-3.7303,-3.7359,-3.8138,-3.8054,-3.8002,-3.8054,-3.6409,-3.4781,0.0,0.0,0.0,0.0,0.0,0.0,0.0,0.0,0.0,0.0,0.0,0.0,0.0,0.0,0.0,0.0,0.0,0.0,0.0,0.0,0.0,0.0,0.0,0.0,0.0,0.0,0.0,0.0,0.0,0.0,0.0,0.0,0.0,0.0,0.0,0.0,0.0,0.0,0.0,0.0,0.0,-0.553,-0.4421,-0.3493,-0.3156,0.0,0.0,-0.3096,-0.2999,-0.2723,0.0,0.0,0.0,0.0,0.0,0.0,0.0,0.0,0.0,0.0,0.0,0.0,0.0,0.0,0.0,0.0,0.0,0.0,0.0,0.0,0.0,0.0,0.0,0.0,0.0,0.0,0.0,0.0,0.0,0.0,0.0,0.0,0.0,0.0,0.0,0.0,0.0,0.0,0.0,0.0,0.0,0.0,0.0,0.0,0.0,0.0,0.0,0.0,0.0,0.0,0.0,0.0,0.0,0.0,0.0,-3.5572,-3.8053,-3.7612,-3.7572,-3.8174,-3.765,-3.7523,-3.7792,-3.6077,-3.4371,0.0,0.0,0.0,0.0,0.0,0.0,0.0,0.0,0.0,0.0,0.0,0.0,0.0,0.0,0.0,0.0,0.0,0.0,0.0,0.0,0.0,0.0,0.0,0.0,0.0,0.0,0.0,0.0,0.0,0.0,0.0,0.0,0.0,0.0,0.0,0.0,0.0,0.0,0.0,0.0,0.0,0.0,-0.4817,-0.3762,0.0,0.0,0.0,-0.347,-0.342,0.0,0.0,0.0,0.0,0.0,0.0,0.0,0.0,0.0,0.0,0.0,0.0,0.0,0.0,0.0,0.0,0.0,0.0,0.0,0.0,0.0,0.0,0.0,0.0,0.0,0.0,0.0,0.0,0.0,0.0,0.0,0.0,0.0,0.0,0.0,0.0,0.0,0.0,0.0,0.0,0.0,0.0,0.0,0.0,0.0,0.0,0.0,0.0,0.0,0.0,0.0,0.0,0.0,0.0,0.0,0.0,0.0,-3.8138,-3.7837,-3.7845,-3.8174,-3.7595,-3.7376,-3.765,-3.6167,0.0,0.0,0.0,0.0,0.0,0.0,0.0,0.0,0.0,0.0,0.0,0.0,0.0,0.0,0.0,0.0,0.0,0.0,0.0,0.0,0.0,0.0,0.0,0.0,0.0,0.0,0.0,-2.4196,0.0,0.0,0.0,0.0,0.0,0.0,0.0,0.0,0.0,0.0,0.0,0.0,0.0,0.0,-0.6695,-0.5714,-0.4795,-0.4104,0.0,0.0,-0.3821,-0.3474,-0.3056,-0.2781,0.0,0.0,0.0,0.0,0.0,0.0,0.0,0.0,0.0,0.0,0.0,0.0,0.0,0.0,0.0,0.0,0.0,0.0,0.0,0.0,0.0,0.0,0.0,0.0,0.0,0.0,0.0,0.0,0.0,0.0,0.0,0.0,0.0,0.0,0.0,0.0,0.0,0.0,0.0,0.0,0.0,0.0,0.0,0.0,0.0,0.0,0.0,0.0,0.0,0.0,0.0,0.0,0.0,0.0,0.0,-3.8126,-3.8176,-3.814,-3.8192,-3.814,-3.8106,-3.814,-3.7205,-3.593,0.0,0.0,0.0,0.0,0.0,0.0,0.0,0.0,0.0,0.0,0.0,0.0,0.0,0.0,0.0,0.0,0.0,0.0,0.0,0.0,0.0,0.0,0.0,0.0,0.0,0.0,0.0,0.0,0.0,0.0,0.0,0.0,0.0,0.0,0.0,0.0,0.0,0.0,0.0,0.0,0.0,-0.8739,-0.769,-0.6839,-0.648,0.0,0.0,-0.3903,-0.3211,-0.3005,-0.2828,-0.2711,0.0,0.0,0.0,0.0,0.0,0.0,0.0,0.0,0.0,0.0,0.0,0.0,0.0,0.0,0.0,0.0,0.0,0.0,0.0,0.0,0.0,0.0,0.0,0.0,0.0,0.0,0.0,0.0,0.0,0.0,0.0,0.0,0.0,0.0,0.0,0.0,0.0,0.0,0.0,0.0,0.0,0.0,0.0,0.0,0.0,0.0,0.0,0.0,0.0,0.0,0.0,0.0,0.0,-3.6467,-3.7247,-3.7688,-3.7985,-3.8192,-3.765,-3.7523,-3.7756,-3.6897,-3.5683,0.0,0.0,0.0,0.0,0.0,0.0,0.0,0.0,0.0,0.0,0.0,0.0,0.0,0.0,0.0,0.0,0.0,0.0,0.0,0.0,0.0,0.0,0.0,0.0,0.0,0.0,0.0,0.0,-2.6451,-2.5801,-2.3983,0.0,0.0,0.0,0.0,0.0,0.0,0.0,0.0,0.0,0.0,-0.9825,-0.9308,-0.8613,0.0,0.0,-0.682,-0.5985,-0.4678,-0.4136,-0.3738,-0.3209,-0.3054,0.0,0.0,0.0,0.0,0.0,0.0,0.0,0.0,0.0,0.0,0.0,0.0,0.0,0.0,0.0,0.0,0.0,0.0,0.0,0.0,0.0,0.0,0.0,0.0,0.0,0.0,0.0,0.0,0.0,0.0,0.0,0.0,0.0,0.0,0.0,0.0,0.0,0.0,0.0,0.0,0.0,0.0,0.0,0.0,0.0,0.0,0.0,0.0,0.0,0.0,0.0,0.0,-3.6333,-3.6742,-3.7507,-3.8002,-3.8274,-3.7596,-3.745,-3.7721,-3.7148,-3.6148,0.0,0.0,0.0,0.0,0.0,0.0,0.0,0.0,0.0,0.0,0.0,0.0,0.0,0.0,0.0,0.0,0.0,0.0,0.0,0.0,0.0,0.0,0.0,0.0,0.0,0.0,0.0,0.0,-2.7296,-2.6123,-2.3395,0.0,0.0,0.0,0.0,0.0,0.0,0.0,0.0,0.0,0.0,-1.1224,-1.1183,-1.0485,-0.9558,-0.8483,-0.8028,-0.7225,-0.5657,-0.4868,-0.4182,-0.3537,0.0,0.0,0.0,0.0,0.0,0.0,0.0,0.0,0.0,0.0,0.0,0.0,0.0,0.0,0.0,0.0,0.0,0.0,0.0,0.0,0.0,0.0,0.0,0.0,0.0,0.0,0.0,0.0,0.0,0.0,0.0,0.0,0.0,0.0,0.0,0.0,0.0,0.0,0.0,0.0,0.0,0.0,0.0,0.0,0.0,0.0,0.0,0.0,0.0,0.0,0.0,0.0,0.0,-3.6362,-3.6879,-3.7785,-3.8322,-3.8382,-3.8256,-3.8207,-3.8274,-3.8189,-3.7757,-3.6906,0.0,0.0,0.0,0.0,0.0,0.0,0.0,0.0,0.0,0.0,0.0,0.0,0.0,0.0,0.0,0.0,0.0,0.0,0.0,0.0,0.0,0.0,0.0,0.0,0.0,0.0,-2.9062,-2.7532,-2.5438,0.0,0.0,0.0,0.0,0.0,0.0,0.0,0.0,0.0,0.0,-1.3556,-1.3287,-1.3192,-1.253,-1.1455,-1.0331,-0.8708,-0.7158,-0.5714,-0.485,-0.4114,0.0,0.0,0.0,0.0,0.0,0.0,0.0,0.0,0.0,0.0,0.0,0.0,0.0,0.0,0.0,0.0,0.0,0.0,0.0,0.0,0.0,0.0,0.0,0.0,0.0,0.0,0.0,-2.9916,-3.1374,0.0,0.0,0.0,0.0,0.0,0.0,0.0,0.0,0.0,0.0,0.0,-3.6024,-3.5792,0.0,0.0,0.0,0.0,0.0,0.0,0.0,0.0,0.0,0.0,0.0,0.0,-3.6157,-3.6273,-3.7594,-3.8289,-3.8322,-3.8307,-3.8307,-3.8368,-3.8318,-3.794,-3.7076,0.0,0.0,0.0,0.0,0.0,0.0,0.0,0.0,0.0,0.0,0.0,0.0,0.0,0.0,0.0,0.0,0.0,0.0,0.0,0.0,0.0,0.0,0.0,0.0,0.0,-2.9833,0.0,0.0,0.0,0.0,0.0,0.0,0.0,0.0,0.0,0.0,0.0,-1.5711,-1.5253,-1.4729,-1.4325,-1.4213,-1.3496,-1.2487,0.0,0.0,0.0,0.0,0.0,0.0,0.0,0.0,0.0,0.0,0.0,0.0,0.0,0.0,0.5021,0.5568,0.7513,0.9332,1.0014,0.0,0.0,0.0,0.0,0.0,0.0,0.0,0.0,0.0,0.0,0.0,0.0,0.0,0.0,0.0,0.0,-3.2889,0.0,0.0,0.0,0.0,0.0,0.0,0.0,0.0,-3.6758,-3.7487,-3.7549,-3.7373,-3.73,0.0,-3.7122,-3.5773,0.0,0.0,0.0,0.0,0.0,0.0,0.0,0.0,-3.617,-3.6394,-3.7635,-3.8289,-3.8322,-3.8307,-3.8307,-3.8368,-3.8354,-3.8067,-3.7493,-3.6248,-3.5205,0.0,0.0,0.0,0.0,0.0,0.0,0.0,0.0,0.0,0.0,0.0,0.0,0.0,0.0,0.0,0.0,0.0,0.0,0.0,0.0,0.0,0.0,0.0,-3.1173,0.0,0.0,0.0,0.0,0.0,0.0,0.0,0.0,0.0,-1.8142,-1.7355,-1.6723,-1.6288,-1.5761,-1.5256,-1.488,0.0,0.0,0.0,0.0,0.0,0.0,0.0,-0.6103,-0.4818,-0.3857,-0.2754,-0.1102,-0.0169,0.0755,0.1661,0.0,0.0,0.6244,0.8644,1.0659,1.1224,1.2132,1.2962,1.3575,1.403,1.4684,0.0,0.0,0.0,0.0,0.0,0.0,0.0,0.0,-3.3182,-3.3982,0.0,-3.4805,0.0,0.0,0.0,0.0,0.0,0.0,0.0,0.0,-3.844,-3.9045,-3.8915,-3.8192,-3.7831,-3.7774,-3.7015,-3.6436,-3.604,-3.574,0.0,0.0,0.0,0.0,0.0,0.0,-3.6431,-3.7148,-3.7921,-3.8322,-3.8401,-3.8256,-3.8241,-3.8307,-3.8241,-3.8207,-3.8189,-3.7446,-3.6699,-3.5932,-3.4535,0.0,0.0,0.0,0.0,0.0,0.0,0.0,0.0,0.0,0.0,0.0,0.0,0.0,0.0,0.0,0.0,0.0,0.0,0.0,0.0,-3.2967,0.0,0.0,0.0,0.0,0.0,0.0,0.0,0.0,0.0,0.0,-1.863,-1.8009,-1.7432,-1.6917,0.0,0.0,0.0,0.0,-1.3497,-1.2174,-1.0704,-0.9466,-0.8793,-0.7799,-0.6659,-0.5349,0.0,0.0,-0.0434,-0.0085,0.0253,0.101,0.2899,0.472,0.6276,0.8777,1.0794,1.1456,1.2098,1.2651,1.3272,1.3745,1.4457,-3.1951,0.0,0.0,0.0,0.0,-2.9782,-3.1382,-3.3982,-3.4026,-3.4987,-3.6571,-3.6349,0.0,0.0,0.0,0.0,0.0,0.0,-3.7202,-3.7663,-3.8571,-3.8979,-3.8844,-3.8738,-3.8561,-3.8379,-3.8208,-3.7982,-3.7648,-3.7534,-3.6893,-3.5684,0.0,0.0,0.0,0.0,-3.6871,-3.7112,-3.7824,-3.8292,-3.8322,-3.8307,-3.8307,-3.8368,-3.8354,-3.8322,-3.8274,-3.8103,-3.7626,-3.678,-3.5896,0.0,0.0,0.0,0.0,0.0,0.0,0.0,0.0,0.0,0.0,0.0,0.0,0.0,0.0,0.0,0.0,0.0,0.0,0.0,-3.4559,-3.4073,-3.2855,0.0,0.0,0.0,0.0,0.0,0.0,0.0,0.0,0.0,-2.0421,-1.9393,-1.8637,0.0,0.0,-1.6648,-1.5922,-1.4372,-1.2964,-1.2151,0.0,0.0,0.0,-0.7799,-0.6822,-0.5352,-0.3513,-0.1955,-0.1155,-0.0265,0.0352,0.0616,0.264,0.4487,0.4995,0.7729,1.0194,1.1158,1.2003,1.2575,1.2825,1.3411,1.4159,-3.6486,-3.4211,-3.2335,-3.2163,-3.3147,-3.3238,-3.4727,-3.7048,-3.6548,-3.708,-3.8196,-3.7703,-3.7021,-3.6308,-3.6061,0.0,0.0,0.0,-3.8251,-3.8564,-3.9571,-3.993,-3.9761,-3.9941,-3.9834,-3.9488,-3.9564,-3.9355,-3.8938,-3.9007,-3.8588,-3.7631,0.0,0.0,-3.6177,-3.6753,-3.7207,-3.7482,-3.7938,-3.8207,-3.8259,-3.8259,-3.8274,-3.8322,-3.8303,-3.8289,-3.8274,-3.8289,-3.8071,-3.7566,-3.6875,-3.6003,0.0,0.0,0.0,0.0,0.0,0.0,0.0,0.0,0.0,0.0,0.0,-3.3935,-3.43,0.0,0.0,0.0,-3.5797,-3.5717,-3.6141,-3.5179,0.0,0.0,0.0,0.0,0.0,0.0,0.0,-2.3356,-2.2944,-2.2461,-2.1937,-2.1241,-2.0362,-1.9222,-1.8184,-1.7294,-1.6566,0.0,-1.3675,-1.2838,-1.1079,-0.9779,-0.9393,-0.8717,-0.775,-0.6375,-0.4255,-0.2956,-0.2955,-0.1532,-0.0363,-0.0091,0.1639,0.3292,0.3749,0.5631,0.7841,0.9846,1.068,1.1258,1.1718,1.261,1.3479,-4.0471,-4.0111,-3.5554,-3.4993,-3.7148,-3.7232,-3.8583,-4.0597,-3.9972,-3.9665,-3.9543,-3.8944,-3.8049,-3.6942,-3.6353,0.0,0.0,-3.8626,-3.9332,-3.9794,-4.1009,-4.1452,-4.1217,-4.1452,-4.128,-4.0771,-4.0789,-4.0492,-3.9935,-4.007,-4.0218,-4.0146,-3.8113,-3.6991,-3.6855,-3.7087,-3.7504,-3.8156,-3.8192,-3.8192,-3.8192,-3.8192,-3.8192,-3.8192,-3.8192,-3.8192,-3.8192,-3.8192,-3.8192,-3.8174,-3.7566,-3.6898,-3.6211,0.0,0.0,0.0,0.0,0.0,0.0,0.0,0.0,0.0,0.0,0.0,0.0,0.0,0.0,0.0,-3.7561,0.0,-3.7837,-3.6127,0.0,0.0,0.0,-2.9399,-2.8209,-2.6798,-2.5548,-2.4446,0.0,0.0,0.0,0.0,-2.2199,-2.0098,-1.8984,-1.8086,-1.7196,-1.5966,-1.4887,-1.3789,-1.2345,-1.1316,-1.0783,-0.985,-0.8644,-0.7676,-0.5913,-0.4687,-0.4867,-0.3194,-0.1664,-0.148,0.0094,0.1714,0.2666,0.2946,0.3976,0.757,0.8459,0.893,0.9951,1.1156,1.215,-4.2301,-4.2193,-4.098,-4.0149,-3.9589,-3.9642,-4.0073,-4.0669,-4.0504,-4.0466,-4.0482,-4.0315,-4.0115,-3.9896,-3.9849,-3.9965,-4.0294,-4.0541,-4.0756,-4.0909,-4.1336,-4.1379,-4.114,-4.1248,-4.1005,-4.0528,-4.0702,-4.0474,-3.9953,-4.0199,-4.031,-4.02,-3.9587,-3.914,-3.8737,-3.8703,-3.8522,-3.8192,-3.8192,-3.8192,-3.8192,-3.8192,-3.8192,-3.8192,-3.8192,-3.8192,-3.8192,-3.8192,-3.8192,-3.8192,-3.8092,-3.7685,-3.696,-3.5763,0.0,0.0,0.0,0.0,0.0,0.0,0.0,0.0,0.0,-3.5213,-3.6784,0.0,-3.8199,0.0,-3.8582,-3.8041,-3.6819,-3.5584,0.0,0.0,-3.0598,-2.8976,-2.8662,-2.6932,-2.5652,-2.5426,-2.4945,-2.4364,-2.3754,-2.3576,-2.2916,-2.1461,-1.9944,-1.8603,-1.7423,-1.5794,-1.4475,-1.4055,-1.2942,-1.1826,-1.1089,-0.954,-0.8106,-0.7302,-0.6199,-0.5337,-0.4971,-0.3579,-0.2458,-0.2363,-0.0759,0.0572,0.0859,0.1446,0.2429,0.4238,0.5631,0.672,0.7095,0.8505,0.9904,-4.2747,-4.2577,-4.2806,-4.2262,-4.1205,-4.1449,-4.1615,-4.1651,-4.1288,-4.1179,-4.1178,-4.0744,-4.0721,-4.0976,-4.0876,-4.0976,-4.1209,-4.1409,-4.1622,-4.1933,-4.2152,-4.2286,-4.24,-4.2414,-4.222,-4.1847,-4.1847,-4.1705,-4.1375,-4.1467,-4.1467,-4.1412,-4.1373,-4.0977,-4.0275,-3.9572,-3.8886,-3.8218,-3.8556,-3.8717,-3.8735,-3.8717,-3.8588,-3.8259,-3.8274,-3.8322,-3.8354,-3.8405,-3.8405,-3.8387,-3.8401,-3.8277,-3.7985,-3.6739,-3.5768,0.0,0.0,0.0,0.0,0.0,0.0,0.0,0.0,0.0,0.0,0.0,-3.9165,0.0,-3.8827,-3.7975,-3.6383,-3.553,-3.4342,-3.2618,-3.1082,-2.9805,-2.8852,-2.7557,-2.6501,-2.6017,-2.5411,-2.4897,-2.4587,-2.4143,-2.3497,-2.2435,-2.0536,-1.8815,-1.7738,-1.637,-1.522,-1.4734,-1.39,-1.2817,-1.1701,-0.9935,-0.8555,-0.811,-0.7153,-0.6264,-0.58,-0.4504,-0.3469,-0.3375,-0.2038,-0.0879,-0.088,-0.0197,0.0596,0.1288,0.2748,0.4287,0.5257,0.709,0.8534,-4.2512,-4.2239,-4.2577,-4.2498,-4.2157,-4.2555,-4.2788,-4.2846,-4.2176,-4.1868,-4.1814,-4.0961,-4.0871,-4.1357,-4.1047,-4.1097,-4.1489,-4.188,-4.2313,-4.2751,-4.3094,-4.3474,-4.386,-4.391,-4.3744,-4.3477,-4.3304,-4.3178,-4.3123,-4.2995,-4.292,-4.2957,-4.292,-4.25,-4.1627,-4.0239,-3.9193,-3.851,-3.9191,-3.9585,-3.9567,-3.9511,-3.9145,-3.8554,-3.8488,-3.8496,-3.8541,-3.867,-3.8701,-3.8664,-3.8676,-3.8778,-3.8961,-3.7772,-3.6863,0.0,-3.5197,0.0,0.0,0.0,0.0,0.0,0.0,0.0,0.0,-3.9799,-4.0219,-3.9314,-3.8578,-3.7612,-3.6249,-3.5545,-3.4396,-3.2548,-3.1845,-3.0778,-2.901,-2.8128,-2.7298,-2.6289,-2.5664,-2.5312,-2.5087,-2.4564,-2.3829,-2.2906,-2.1138,-1.9445,-1.8296,-1.7155,-1.6231,-1.5656,-1.4877,-1.3648,-1.2394,-1.0842,-0.9584,-0.9308,-0.8498,-0.755,-0.7184,-0.5726,-0.4612,-0.4424,-0.3378,-0.2511,-0.2516,-0.1811,-0.1209,-0.0906,0.0301,0.2005,0.3907,0.5996,0.7508,-4.221,-4.2175,-4.1888,-4.17,-4.1656,-4.176,-4.218,-4.2882,-4.2719,-4.2739,-4.2813,-4.2686,-4.2759,-4.2972,-4.2935,-4.3004,-4.3054,-4.3151,-4.3155,-4.3138,-4.3248,-4.3267,-4.3196,-4.3286,-4.3178,-4.2884,-4.3105,-4.305,-4.2788,-4.305,-4.316,-4.325,-4.3196,-4.3014,-4.2723,0.0,0.0,0.0,-4.0327,-4.0486,-4.0518,-4.0068,-3.9745,-3.9656,-3.9044,0.0,-3.8833,-3.8921,-3.8931,-3.8913,-3.8971,0.0,0.0,0.0,0.0,0.0,0.0,0.0,0.0,0.0,0.0,0.0,-3.8804,-3.9187,-3.9291,-3.9764,-3.9721,-3.8952,-3.7998,-3.6907,-3.5737,-3.4521,-3.3351,-3.2312,-3.0749,-2.9572,-2.9087,-2.7617,-2.6427,-2.6233,-2.5664,-2.5016,-2.4527,-2.4181,-2.3694,-2.2727,-2.2091,-2.1012,-1.9173,-1.7379,-1.6314,-1.6576,-1.5094,-1.3687,-1.3296,-1.1739,-1.0446,-0.9793,-0.9627,-0.8912,-0.7733,-0.686,-0.5996,-0.5499,-0.4314,-0.342,-0.3419,-0.2717,-0.2115,-0.131,-0.0806,-0.0,0.181,0.3917,0.542,-4.2333,0.0,-4.218,-4.2056,0.0,-4.2098,-4.232,-4.2537,-4.232,-4.2279,-4.2396,-4.2516,-4.2616,-4.2732,-4.305,-4.3178,-4.3178,-4.3178,-4.3304,-4.3463,-4.316,-4.3105,-4.3303,-4.3214,-4.3123,-4.2957,-4.2957,-4.3032,-4.316,-4.3196,-4.3286,-4.3461,-4.3495,-4.3406,-4.3245,-4.2915,-4.2278,-4.1355,-4.1574,-4.1705,-4.1733,-4.1427,-4.1132,-4.0852,0.0,0.0,0.0,0.0,0.0,0.0,0.0,0.0,0.0,0.0,0.0,-3.9019,-3.8092,-3.7986,-3.8936,-3.8692,-3.884,-3.9627,-3.979,-3.9844,-3.9797,-3.9776,-3.9443,-3.8674,-3.7972,-3.6958,-3.5474,-3.4634,-3.3572,-3.189,-3.0526,-2.9476,-2.8876,-2.7471,-2.6553,-2.6652,-2.5828,-2.5104,-2.4992,-2.4113,-2.3446,-2.2918,-2.2141,-2.1409,-2.0588,-1.8795,-1.7454,-1.7113,-1.5652,-1.4276,-1.3851,-1.2742,-1.1322,-1.0277,-0.9955,-0.9312,-0.7829,-0.7332,-0.6933,-0.6134,-0.5429,-0.5027,-0.4929,-0.463,-0.4232,-0.3729,-0.2621,-0.1613,-0.0403,0.1508,0.3417,-4.2494,-4.2257,-4.2537,-4.2458,-4.2115,-4.2498,-4.2418,-4.2074,0.0,0.0,0.0,-4.1839,-4.1948,-4.208,-4.2673,-4.29,-4.29,-4.2939,-4.3268,-4.3652,-4.3069,-4.3014,-4.3408,-4.325,-4.3142,-4.305,-4.2882,-4.305,-4.3529,-4.3375,-4.341,-4.3664,-4.3809,-4.3726,-4.3542,-4.367,-4.3384,-4.2691,-4.2829,-4.2951,-4.2992,-4.2891,-4.2604,-4.2061,-4.2096,-4.2095,-4.2046,-4.1562,-4.132,-4.132,-4.0659,-4.0347,-4.0398,-3.9871,-3.9591,-3.9623,-3.9081,-3.9066,-3.9887,-3.9976,-4.0253,-4.0804,-4.0386,-4.0062,-4.0005,-3.9637,-3.9093,-3.8382,-3.7928,-3.6911,-3.5318,-3.4858,-3.3856,-3.1549,-3.0821,-2.9998,-2.8866,-2.7839,-2.736,-2.7306,-2.6372,-2.5541,-2.562,-2.4423,-2.3356,-2.3165,-2.2274,-2.1324,-2.1614,-2.0139,-1.8567,-1.7198,-1.58,-1.4859,-1.4291,-1.3097,-1.1858,-1.0489,-1.0207,-0.962,-0.8326,-0.7826,-0.7428,-0.6537,-0.6437,-0.6337,-0.6337,-0.6245,-0.6358,-0.6361,-0.4642,-0.3026,-0.252,-0.0805,0.1208,-4.221,-4.2157,-4.1846,-4.1656,-4.163,-4.1656,-4.1656,-4.163,-4.1525,-4.163,-4.1881,-4.1899,-4.2008,-4.2198,-4.2673,-4.29,-4.2938,-4.325,-4.3393,0.0,-4.3178,-4.2975,-4.2729,-4.292,-4.2806,-4.249,-4.29,-4.316,-4.3268,-4.3461,-4.3679,-4.3892,-4.3974,-4.3955,-4.3955,-4.4218,-4.4364,-4.4339,-4.3988,-4.393,-4.4148,-4.366,-4.3445,-4.3482,-4.2881,-4.2541,-4.2581,-4.2565,-4.2584,-4.2637,-4.2629,-4.2333,-4.1705,-4.1629,-4.1374,-4.0754,-4.0688,-4.0764,-4.0898,-4.0859,-4.0778,-4.0645,-4.029,-3.9986,-3.9681,-3.9059,-3.8505,-3.805,-3.7006,-3.5967,-3.529,-3.4252,-3.3208,-3.1996,-3.1619,-3.0874,-2.9279,-2.9021,-2.8569,-2.7703,-2.7348,-2.6542,-2.5549,-2.5016,-2.432,-2.3484,-2.2834,-2.2339,-2.1047,-2.0069,-1.8897,-1.7435,-1.5644,-1.4518,-1.416,-1.264,-1.158,-1.1096,-1.0998,-1.0408,-0.8821,-0.8528,-0.8028,-0.6634,-0.6437,-0.6437,-0.6437,-0.6439,-0.6448,-0.6356,-0.5754,-0.5247,-0.3934,-0.262,-0.1008,-4.2555,-4.2555,-4.236,-4.2262,-4.2221,-4.1973,-4.1931,-4.199,-4.1717,-4.1516,-4.1383,-4.1283,-4.1401,-4.176,-4.2279,-4.2673,-4.292,-4.3304,-4.3444,-4.341,-4.3286,-4.3178,-4.3087,-4.3105,-4.2995,-4.2824,-4.3068,-4.3286,-4.3426,-4.3563,-4.3712,-4.3986,-4.4116,-4.4237,-4.4374,-4.4602,-4.4783,-4.4929,-4.4745,-4.4732,-4.4909,-4.4671,-4.4567,-4.4651,-4.4365,-4.4211,-4.4154,-4.3871,-4.3732,-4.3777,-4.3421,-4.3061,-4.2808,-4.2805,-4.2707,-4.2393,-4.2431,-4.2477,-4.2514,-4.2381,-4.2151,-4.1821,-4.1457,-4.0976,-4.0383,-3.9206,-3.8437,-3.8295,-3.7248,-3.6529,-3.6231,-3.5137,-3.4046,-3.3056,-3.2343,-3.1283,-3.0038,-2.9502,-2.91,-2.83,-2.7751,-2.7073,-2.6109,-2.5488,-2.482,-2.3849,-2.3368,-2.2292,-2.0486,-1.9833,-1.8961,-1.7569,-1.6466,-1.5514,-1.4555,-1.3596,-1.2441,-1.1482,-1.1194,-1.0502,-0.9122,-0.8825,-0.8127,-0.6734,-0.6437,-0.6437,-0.6437,-0.6437,-0.6439,-0.6445,-0.6458,-0.5957,-0.5247,-0.4033,-0.1915,-4.3172,-4.3154,-4.2955,-4.29,-4.2882,-4.2537,-4.2476,-4.2516,-4.2115,-4.1735,-4.1383,-4.1024,-4.1007,-4.141,-4.1948,-4.2458,-4.292,-4.3304,-4.3532,-4.3582,-4.3426,-4.3426,-4.3479,-4.3375,-4.3304,-4.3251,-4.3304,-4.3495,-4.366,-4.3758,-4.3918,-4.4181,-4.4335,-4.4513,-4.4751,-4.4887,-4.5026,-4.5194,-4.5258,-4.5341,-4.5438,-4.5457,-4.5475,-4.5493,-4.561,-4.5642,-4.5541,-4.5111,-4.4866,-4.4858,-4.4286,-4.3929,-4.3841,-4.3836,-4.3792,-4.3645,-4.3598,-4.3574,-4.3583,-4.3436,-4.3183,-4.2809,-4.2417,-4.1875,-4.1052,-3.9726,-3.8839,-3.8658,-3.786,-3.7233,-3.6887,-3.6023,-3.4971,-3.3969,-3.3111,-3.2003,-3.0706,-3.0147,-2.9699,-2.9176,-2.8224,-2.7419,-2.6862,-2.5891,-2.4946,-2.4039,-2.3125,-2.1863,-2.0249,-1.953,-1.8719,-1.7785,-1.7037,-1.6082,-1.4555,-1.3788,-1.2926,-1.1482,-1.1389,-1.089,-0.9805,-0.9316,-0.8524,-0.7229,-0.6534,-0.6437,-0.6437,-0.6437,-0.6437,-0.6439,-0.6448,-0.6358,-0.6261,-0.5144,-0.2922,-4.3987,-4.386,-4.3226,-4.29,-4.29,-4.2956,-4.3012,-4.2974,-4.2729,-4.2577,-4.2418,-4.1613,-4.1366,-4.1516,-4.199,-4.2458,-4.292,-4.3304,-4.3548,-4.3582,-4.3582,-4.3548,-4.3513,-4.3734,-4.3634,-4.3304,-4.3697,-4.3918,-4.3974,-4.4213,-4.4465,-4.4701,-4.4745,-4.48,-4.4962,-4.5052,-4.5241,-4.555,-4.5565,-4.5565,-4.5586,-4.5582,-4.5626,-4.5752,-4.5886,-4.5975,-4.5933,-4.5957,-4.5981,-4.6033,-4.5922,-4.5581,-4.4952,-4.4865,-4.4513,-4.3786,-4.3608,-4.3434,-4.3319,-4.3215,-4.3138,-4.2738,-4.2462,-4.1969,-4.128,-4.0502,-3.9761,-3.9212,-3.8305,-3.761,-3.7036,-3.6082,-3.5112,-3.4302,-3.3898,-3.3151,-3.1501,-3.1527,-3.1309,-2.9833,-2.8827,-2.8072,-2.7128,-2.6152,-2.4978,-2.3367,-2.2492,-2.1418,-1.9985,-1.9188,-1.855,-1.78,-1.6365,-1.5127,-1.4459,-1.2732,-1.216,-1.1975,-1.1878,-1.1575,-1.0979,-1.0096,-0.9213,-0.8124,-0.7129,-0.6537,-0.6537,-0.6437,-0.6437,-0.6437,-0.6439,-0.6445,-0.6358,-0.6055,-0.4433,-4.4802,-4.4729,-4.3932,-4.3317,-4.2974,-4.3049,-4.3123,-4.3142,-4.3123,-4.3013,-4.2788,-4.24,-4.2279,-4.2338,-4.2537,-4.2864,-4.3339,-4.3497,-4.3634,-4.3701,-4.3767,-4.3767,-4.3767,-4.3897,-4.3828,-4.373,-4.406,-4.4213,-4.4299,-4.4519,-4.4701,-4.4776,-4.48,-4.4834,-4.4938,-4.5125,-4.5343,-4.5528,-4.5733,-4.5815,-4.5794,-4.5737,-4.58,-4.5917,-4.5956,-4.6037,-4.6072,-4.6105,-4.6182,-4.621,-4.6231,-4.6108,-4.5781,-4.5722,-4.5564,-4.5202,-4.505,-4.4908,-4.4738,-4.4742,-4.4514,-4.3977,-4.3408,-4.2791,-4.2081,-4.1551,-4.0991,-4.0315,-3.9149,-3.8221,-3.8002,-3.7054,-3.6166,-3.5508,-3.4703,-3.3489,-3.2304,-3.1667,-3.0908,-2.9934,-2.904,-2.8143,-2.7151,-2.5924,-2.4307,-2.2746,-2.1872,-2.115,-1.9538,-1.892,-1.8458,-1.7792,-1.6365,-1.5412,-1.4937,-1.3986,-1.3039,-1.2565,-1.2467,-1.2268,-1.137,-1.0779,-0.9993,-0.8916,-0.7925,-0.7229,-0.7132,-0.6637,-0.6437,-0.6437,-0.6437,-0.6439,-0.6445,-0.6448,-0.5436,-4.5617,-4.549,-4.4765,-4.3989,-4.332,-4.3413,-4.3397,-4.3269,-4.3376,-4.3286,-4.3069,-4.3087,-4.3087,-4.3032,-4.2939,-4.316,-4.3548,-4.3634,-4.3701,-4.3804,-4.3883,-4.3897,-4.391,-4.3992,-4.4048,-4.4121,-4.4289,-4.4465,-4.4624,-4.4896,-4.503,-4.503,-4.503,-4.5042,-4.5112,-4.534,-4.55,-4.5626,-4.5914,-4.6008,-4.5949,-4.5889,-4.5919,-4.6027,-4.6054,-4.6076,-4.6125,-4.6199,-4.6217,-4.6237,-4.625,-4.6287,-4.6286,-4.6209,-4.6153,-4.6099,-4.5978,-4.5808,-4.5665,-4.5605,-4.5317,-4.4726,-4.4186,-4.3573,-4.2923,-4.2444,-4.1973,-4.1268,-4.0096,-3.9295,-3.8966,-3.8092,-3.7294,-3.6906,-3.5404,-3.4052,-3.3017,-3.192,-3.0908,-2.9921,-2.904,-2.8051,-2.6823,-2.5432,-2.3907,-2.2138,-2.1695,-2.097,-1.9363,-1.8827,-1.8643,-1.8064,-1.6842,-1.5798,-1.5317,-1.428,-1.3624,-1.334,-1.2958,-1.2754,-1.176,-1.156,-1.1165,-1.0382,-0.9103,-0.8219,-0.7822,-0.7329,-0.6734,-0.6537,-0.6437,-0.6437,-0.6439,-0.6437,-0.6445,-4.6432,-4.6323,-4.5562,-4.488,-4.4231,-4.4308,-4.3962,-4.3467,-4.3481,-4.3479,-4.3444,-4.3444,-4.3444,-4.3444,-4.3178,-4.3196,-4.3479,-4.3686,-4.3753,-4.3786,-4.3883,-4.3929,-4.4005,-4.4005,-4.4151,-4.4374,-4.4438,-4.4682,-4.5159,-4.5419,-4.5568,-4.5549,-4.5531,-4.5558,-4.5544,-4.5664,-4.5801,-4.5891,-4.6013,-4.6076,-4.6086,-4.6016,-4.6021,-4.6086,-4.6158,-4.6179,-4.6189,-4.6246,-4.6289,-4.6289,-4.6239,-4.6206,-4.6202,-4.6123,-4.6041,-4.5908,-4.5725,-4.5533,-4.5343,-4.5115,-4.4819,-4.4493,-4.429,-4.4046,-4.3387,-4.2904,-4.2386,-4.1664,-4.1098,-4.0556,-3.9766,-3.8783,-3.8019,-3.7546,-3.6306,-3.4875,-3.3514,-3.2494,-3.1341,-3.0139,-2.9118,-2.7879,-2.6152,-2.5105,-2.381,-2.2403,-2.1784,-2.1069,-1.9446,-1.8912,-1.8819,-1.8357,-1.7419,-1.6103,-1.4949,-1.4094,-1.3534,-1.334,-1.3534,-1.3534,-1.3522,-1.3221,-1.2533,-1.1848,-1.0765,-0.9686,-0.8806,-0.8021,-0.7528,-0.7033,-0.6537,-0.6437,-0.6437,-0.6437,-0.6442,-4.6957,-4.6486,-4.6295,-4.5754,-4.5069,-4.4673,-4.4382,-4.4126,-4.3683,-4.3479,-4.3479,-4.3479,-4.3634,-4.3814,-4.3726,-4.3646,-4.36,-4.3634,-4.3753,-4.3851,-4.3897,-4.4036,-4.4231,-4.425,-4.4402,-4.465,-4.4825,-4.5096,-4.5419,-4.5568,-4.5635,-4.5712,-4.5746,-4.5698,-4.565,-4.582,-4.5998,-4.6122,-4.6128,-4.6108,-4.6114,-4.6071,-4.6078,-4.6085,-4.607,-4.6087,-4.6147,-4.6156,-4.6186,-4.6167,-4.6147,-4.6137,-4.6105,-4.591,-4.5738,-4.565,-4.5414,-4.5246,-4.5159,-4.4887,-4.4655,-4.4438,-4.3911,-4.3647,-4.3369,-4.3014,-4.2562,-4.2098,-4.1888,-4.1303,-4.0317,-3.9439,-3.8723,-3.8026,-3.6569,-3.5379,-3.4471,-3.2961,-3.1429,-3.0607,-2.9459,-2.781,-2.64,-2.5495,-2.4638,-2.2999,-2.257,-2.1676,-2.0249,-1.972,-1.9446,-1.8257,-1.7239,-1.6292,-1.5337,-1.4388,-1.3823,-1.3919,-1.4016,-1.3823,-1.3721,-1.3624,-1.2937,-1.264,-1.1848,-1.1161,-1.0181,-0.8905,-0.8315,-0.7627,-0.7033,-0.6637,-0.6437,-0.6437,-0.6439,-4.7409,-4.698,-4.7044,-4.6652,-4.5929,-4.5259,-4.4839,-4.4565,-4.3811,-4.3566,-4.3649,-4.3649,-4.3828,-4.4091,-4.4162,-4.4072,-4.3873,-4.3936,-4.4017,-4.414,-4.417,-4.4289,-4.4493,-4.4519,-4.4695,-4.4938,-4.5201,-4.5419,-4.5586,-4.5586,-4.5668,-4.578,-4.58,-4.5769,-4.5755,-4.5938,-4.6119,-4.6261,-4.6198,-4.6133,-4.6132,-4.6119,-4.6076,-4.6076,-4.6001,-4.6014,-4.6118,-4.6118,-4.6118,-4.6098,-4.6076,-4.6044,-4.5969,-4.5732,-4.5545,-4.547,-4.5184,-4.5007,-4.4938,-4.4681,-4.4505,-4.4439,-4.3918,-4.3586,-4.3642,-4.3283,-4.2867,-4.2541,-4.2239,-4.176,-4.0814,-4.0036,-3.9385,-3.8439,-3.6933,-3.5824,-3.5299,-3.3268,-3.1783,-3.0833,-2.9614,-2.8187,-2.6964,-2.6307,-2.521,-2.3684,-2.3337,-2.2385,-2.0791,-2.0257,-1.9803,-1.8342,-1.7512,-1.6756,-1.5906,-1.5153,-1.4298,-1.4298,-1.4202,-1.4016,-1.3919,-1.3829,-1.363,-1.3238,-1.284,-1.2344,-1.1361,-0.9989,-0.9008,-0.8322,-0.7531,-0.7036,-0.6836,-0.6537,-0.6539,-4.7741,-4.7806,-4.7902,-4.7514,-4.6905,-4.6138,-4.5407,-4.4728,-4.3954,-4.3808,-4.3929,-4.3986,-4.4151,-4.4374,-4.4411,-4.4383,-4.4457,-4.4576,-4.4602,-4.4538,-4.4617,-4.4676,-4.4819,-4.48,-4.4943,-4.5201,-4.5457,-4.5586,-4.562,-4.5637,-4.57,-4.58,-4.5835,-4.5878,-4.5903,-4.6047,-4.6162,-4.6251,-4.6211,-4.6207,-4.62,-4.6112,-4.6056,-4.6008,-4.5933,-4.5966,-4.6103,-4.6084,-4.6076,-4.6076,-4.6027,-4.5941,-4.5822,-4.5607,-4.549,-4.5418,-4.5055,-4.4776,-4.4695,-4.4522,-4.4383,-4.4325,-4.4266,-4.4207,-4.4128,-4.3772,-4.3351,-4.2905,-4.2465,-4.1906,-4.1157,-4.0546,-3.9817,-3.8557,-3.7557,-3.6507,-3.5265,-3.3656,-3.2114,-3.0784,-2.9704,-2.9094,-2.845,-2.7452,-2.6025,-2.4766,-2.3943,-2.2824,-2.1141,-2.0701,-1.9985,-1.8996,-1.8071,-1.7225,-1.6567,-1.5913,-1.5153,-1.458,-1.4394,-1.4208,-1.4208,-1.4112,-1.4112,-1.3817,-1.3817,-1.3318,-1.2446,-1.1072,-0.9993,-0.9209,-0.8319,-0.7431,-0.6936,-0.6637,-0.6537,-4.7861,-4.7902,-4.8065,-4.798,-4.773,-4.7019,-4.6232,-4.5497,-4.493,-4.4429,-4.4092,-4.4192,-4.443,-4.4624,-4.4676,-4.4795,-4.5,-4.5125,-4.4972,-4.4669,-4.4695,-4.4849,-4.5052,-4.5074,-4.5222,-4.5457,-4.5549,-4.5654,-4.5712,-4.5727,-4.5835,-4.5969,-4.6017,-4.6064,-4.6158,-4.6206,-4.6245,-4.6209,-4.6163,-4.6132,-4.6111,-4.6017,-4.5944,-4.5933,-4.5912,-4.5925,-4.5953,-4.5902,-4.5891,-4.5902,-4.5873,-4.5854,-4.5752,-4.5472,-4.5304,-4.5244,-4.4862,-4.4587,-4.456,-4.4468,-4.4383,-4.4354,-4.4344,-4.4314,-4.4333,-4.4158,-4.3823,-4.3351,-4.2905,-4.2329,-4.1552,-4.0767,-4.0136,-3.9487,-3.8165,-3.71,-3.6198,-3.4359,-3.2621,-3.1502,-3.0558,-2.9793,-2.916,-2.8255,-2.7441,-2.5953,-2.5305,-2.4351,-2.2726,-2.1667,-2.0881,-1.9985,-1.888,-1.787,-1.7311,-1.6662,-1.5724,-1.4962,-1.4675,-1.4298,-1.4298,-1.4298,-1.4298,-1.4298,-1.4298,-1.401,-1.313,-1.2252,-1.1175,-0.9993,-0.9011,-0.8024,-0.7033,-0.6736,-0.6637,-4.7842,-4.7947,-4.8068,-4.8169,-4.8119,-4.7261,-4.656,-4.5985,-4.5244,-4.4677,-4.4393,-4.4465,-4.472,-4.4934,-4.4981,-4.5109,-4.5297,-4.5378,-4.5216,-4.4934,-4.4962,-4.5118,-4.5322,-4.5342,-4.5419,-4.5549,-4.5586,-4.5668,-4.58,-4.5814,-4.5902,-4.6076,-4.6118,-4.617,-4.6277,-4.6303,-4.6276,-4.6211,-4.6175,-4.6128,-4.6084,-4.5998,-4.5941,-4.5929,-4.5925,-4.5919,-4.5906,-4.586,-4.5814,-4.5814,-4.58,-4.58,-4.5766,-4.5436,-4.5223,-4.5203,-4.4857,-4.4524,-4.4568,-4.4505,-4.444,-4.4411,-4.4401,-4.4373,-4.4373,-4.4373,-4.4109,-4.3656,-4.3246,-4.2774,-4.2062,-4.1331,-4.0737,-4.0254,-3.8486,-3.7144,-3.6276,-3.464,-3.3031,-3.2132,-3.1368,-3.062,-2.9947,-2.9303,-2.8755,-2.7452,-2.6894,-2.613,-2.4511,-2.3308,-2.2347,-2.1203,-1.996,-1.9047,-1.8319,-1.7397,-1.6285,-1.5622,-1.4962,-1.4586,-1.4298,-1.4298,-1.4298,-1.4298,-1.4298,-1.4298,-1.3619,-1.3136,-1.2257,-1.0979,-0.9702,-0.9011,-0.8219,-0.7332,-0.7036,-4.787,-4.8072,-4.8053,-4.8249,-4.8255,-4.7138,-4.6587,-4.6243,-4.5169,-4.4697,-4.4764,-4.4819,-4.5,-4.5235,-4.5235,-4.5256,-4.5317,-4.5378,-4.5398,-4.536,-4.5419,-4.5513,-4.5531,-4.555,-4.5586,-4.562,-4.5637,-4.5696,-4.5848,-4.5861,-4.5925,-4.6098,-4.6138,-4.6176,-4.6277,-4.6303,-4.6243,-4.6191,-4.6192,-4.6153,-4.6103,-4.6027,-4.5986,-4.6003,-4.5991,-4.5968,-4.5919,-4.5874,-4.586,-4.5814,-4.58,-4.58,-4.5737,-4.5437,-4.5304,-4.5417,-4.4868,-4.4714,-4.4739,-4.4629,-4.4551,-4.4532,-4.4496,-4.4496,-4.4468,-4.4411,-4.4258,-4.3899,-4.3542,-4.3178,-4.2675,-4.2056,-4.1366,-4.0494,-3.8657,-3.6767,-3.4883,-3.4432,-3.3602,-3.2635,-3.2146,-3.1796,-3.081,-3.0088,-2.9459,-2.8821,-2.8108,-2.7174,-2.6075,-2.4978,-2.4129,-2.2834,-2.1355,-2.0215,-1.9405,-1.8319,-1.7296,-1.6473,-1.5717,-1.5153,-1.4586,-1.449,-1.4298,-1.4298,-1.4298,-1.4298,-1.4202,-1.3624,-1.3039,-1.1863,-1.0881,-1.0194,-0.9209,-0.8124,-0.7431,-4.8402,-4.873,-4.885,-4.89,-4.8855,-4.7996,-4.7273,-4.6697,-4.5968,-4.5237,-4.4957,-4.5087,-4.5194,-4.5277,-4.5277,-4.5277,-4.5317,-4.5359,-4.5418,-4.5438,-4.5566,-4.5584,-4.5549,-4.5586,-4.5651,-4.5727,-4.5757,-4.5841,-4.6007,-4.5998,-4.6103,-4.624,-4.624,-4.6249,-4.6303,-4.6261,-4.6191,-4.6136,-4.6119,-4.6098,-4.6026,-4.6008,-4.5997,-4.5986,-4.5994,-4.596,-4.5912,-4.5841,-4.5814,-4.58,-4.58,-4.58,-4.5786,-4.5541,-4.5436,-4.5417,-4.5223,-4.5026,-4.503,-4.4868,-4.4739,-4.4714,-4.4568,-4.4496,-4.4496,-4.4468,-4.4393,-4.4199,-4.3905,-4.3542,-4.3123,-4.2465,-4.1376,-3.9783,-3.8421,-3.704,-3.5946,-3.4898,-3.4109,-3.3685,-3.2777,-3.2146,-3.1589,-3.1009,-3.0254,-2.9537,-2.9057,-2.8493,-2.7487,-2.6405,-2.5471,-2.4299,-2.293,-2.1542,-2.0395,-1.9405,-1.8403,-1.7498,-1.6662,-1.5913,-1.5248,-1.4777,-1.449,-1.4298,-1.4298,-1.4298,-1.4298,-1.4106,-1.3329,-1.2457,-1.177,-1.0979,-0.9608,-0.8524,-0.8127,-4.8746,-4.9023,-4.9137,-4.8995,-4.8615,-4.8039,-4.7316,-4.6561,-4.5981,-4.5494,-4.5122,-4.5213,-4.5277,-4.5277,-4.5277,-4.5277,-4.5317,-4.5338,-4.5378,-4.538,-4.5547,-4.5645,-4.5677,-4.5723,-4.578,-4.5822,-4.5854,-4.5938,-4.6076,-4.6118,-4.6176,-4.6273,-4.63,-4.63,-4.63,-4.6278,-4.6191,-4.6163,-4.6147,-4.6112,-4.6035,-4.5998,-4.5997,-4.5997,-4.5986,-4.5983,-4.5929,-4.5867,-4.5847,-4.5814,-4.58,-4.58,-4.5786,-4.561,-4.5543,-4.5594,-4.5381,-4.5222,-4.5283,-4.5099,-4.4919,-4.48,-4.4662,-4.4568,-4.4524,-4.4496,-4.4487,-4.4411,-4.4121,-4.3836,-4.3523,-4.2812,-4.1601,-4.0309,-3.89,-3.7684,-3.6585,-3.5691,-3.4978,-3.4298,-3.3616,-3.2692,-3.2218,-3.175,-3.1084,-3.0317,-3.0037,-2.9549,-2.8809,-2.7808,-2.6896,-2.5826,-2.4565,-2.3268,-2.2152,-2.1176,-1.9951,-1.8956,-1.7777,-1.6943,-1.6285,-1.5432,-1.4956,-1.4675,-1.449,-1.4298,-1.4298,-1.4202,-1.3624,-1.2942,-1.2355,-1.1473,-1.0105,-0.9316,-0.892,-4.8915,-4.8992,-4.9038,-4.8634,-4.798,-4.7435,-4.6853,-4.6144,-4.5589,-4.5314,-4.5256,-4.5277,-4.5277,-4.5277,-4.5277,-4.5277,-4.5277,-4.5317,-4.536,-4.5419,-4.558,-4.5713,-4.5906,-4.5871,-4.5894,-4.5919,-4.592,-4.6005,-4.6125,-4.6138,-4.6181,-4.6273,-4.63,-4.63,-4.6303,-4.629,-4.6261,-4.621,-4.6186,-4.6142,-4.6084,-4.6036,-4.6007,-4.5997,-4.5986,-4.5994,-4.5972,-4.5944,-4.5854,-4.5794,-4.5814,-4.58,-4.5786,-4.5626,-4.5626,-4.5708,-4.5526,-4.5381,-4.5473,-4.5343,-4.512,-4.4947,-4.4849,-4.472,-4.4568,-4.4524,-4.4515,-4.4468,-4.4277,-4.4109,-4.3823,-4.3032,-4.2073,-4.1018,-3.9983,-3.8521,-3.7128,-3.6538,-3.5946,-3.478,-3.4514,-3.3671,-3.2847,-3.216,-3.1796,-3.1145,-3.0797,-3.0279,-2.9883,-2.9213,-2.8493,-2.7936,-2.6521,-2.4999,-2.3978,-2.3047,-2.1738,-2.0413,-1.9055,-1.8141,-1.7498,-1.6741,-1.5798,-1.533,-1.4956,-1.4586,-1.4298,-1.401,-1.3721,-1.3238,-1.2559,-1.158,-1.06,-1.0306,-0.9912,-4.91,-4.8777,-4.8886,-4.8446,-4.7663,-4.6972,-4.6584,-4.6317,-4.56,-4.5277,-4.5277,-4.5277,-4.5277,-4.5277,-4.5277,-4.5277,-4.5297,-4.5319,-4.5381,-4.5619,-4.563,-4.5863,-4.6026,-4.5988,-4.5959,-4.6035,-4.6049,-4.6131,-4.6236,-4.6245,-4.6273,-4.628,-4.63,-4.63,-4.6303,-4.6261,-4.6249,-4.6249,-4.6175,-4.6137,-4.6092,-4.6035,-4.5998,-4.6007,-4.5986,-4.5983,-4.5991,-4.5937,-4.5893,-4.588,-4.5841,-4.5814,-4.58,-4.5752,-4.5752,-4.5752,-4.5757,-4.5692,-4.5673,-4.5541,-4.5418,-4.5304,-4.4992,-4.4776,-4.4745,-4.4587,-4.4496,-4.4496,-4.444,-4.4248,-4.3809,-4.3069,-4.2329,-4.1578,-4.0716,-3.9664,-3.8547,-3.7632,-3.6814,-3.6009,-3.5404,-3.4721,-3.3891,-3.2706,-3.229,-3.1882,-3.1394,-3.0911,-3.0609,-3.0368,-2.9741,-2.9028,-2.8119,-2.6521,-2.5503,-2.4405,-2.296,-2.1756,-2.0503,-1.9247,-1.8596,-1.7855,-1.7008,-1.6075,-1.5337,-1.5051,-1.486,-1.4388,-1.41,-1.3431,-1.2759,-1.1878,-1.1292,-1.0998,-1.0703,-4.8323,-4.8124,-4.8201,-4.7781,-4.7067,-4.6622,-4.6287,-4.5927,-4.5507,-4.5277,-4.5277,-4.5277,-4.5277,-4.5277,-4.5277,-4.5277,-4.5319,-4.538,-4.5455,-4.5619,-4.575,-4.5947,-4.6054,-4.6072,-4.6107,-4.6177,-4.6176,-4.624,-4.6296,-4.63,-4.63,-4.63,-4.63,-4.63,-4.63,-4.6278,-4.6261,-4.6267,-4.6204,-4.614,-4.6136,-4.6111,-4.6068,-4.6046,-4.6017,-4.5994,-4.5994,-4.5972,-4.596,-4.5937,-4.588,-4.5854,-4.5847,-4.5814,-4.58,-4.58,-4.58,-4.58,-4.5752,-4.5708,-4.561,-4.549,-4.5184,-4.4966,-4.4795,-4.4621,-4.4496,-4.4496,-4.444,-4.4277,-4.3777,-4.344,-4.2792,-4.1955,-4.1366,-4.059,-3.9595,-3.8525,-3.7429,-3.6646,-3.6009,-3.5275,-3.4351,-3.3533,-3.2989,-3.272,-3.2015,-3.1529,-3.1185,-3.0872,-3.0292,-2.9664,-2.9028,-2.8108,-2.7012,-2.567,-2.4084,-2.2969,-2.1836,-2.0683,-1.9786,-1.8956,-1.8118,-1.7095,-1.6163,-1.588,-1.569,-1.5134,-1.4478,-1.38,-1.3125,-1.236,-1.1688,-1.1194,-1.0998,-4.7346,-4.7239,-4.7333,-4.693,-4.6355,-4.6285,-4.5969,-4.5437,-4.5317,-4.532,-4.536,-4.5339,-4.5298,-4.53,-4.5298,-4.5277,-4.5319,-4.5419,-4.5493,-4.5603,-4.5796,-4.5947,-4.6056,-4.6142,-4.6203,-4.6279,-4.6288,-4.6296,-4.63,-4.63,-4.63,-4.63,-4.63,-4.63,-4.63,-4.63,-4.6287,-4.6293,-4.6229,-4.6191,-4.6191,-4.6192,-4.6158,-4.6099,-4.6068,-4.6035,-4.6046,-4.6037,-4.6016,-4.6025,-4.596,-4.5925,-4.5899,-4.586,-4.5814,-4.5833,-4.5814,-4.58,-4.58,-4.5786,-4.5708,-4.5543,-4.5362,-4.5161,-4.4962,-4.4739,-4.4595,-4.4532,-4.4505,-4.4306,-4.3841,-4.3627,-4.3141,-4.2404,-4.1948,-4.1276,-4.0446,-3.9335,-3.823,-3.7131,-3.6814,-3.6338,-3.5389,-3.447,-3.4013,-3.3478,-3.2791,-3.216,-3.1809,-3.1381,-3.0797,-3.0216,-2.9664,-2.8949,-2.7855,-2.7267,-2.5597,-2.417,-2.3144,-2.2013,-2.0872,-1.9877,-1.8948,-1.7918,-1.7073,-1.6807,-1.6445,-1.59,-1.5134,-1.4262,-1.3499,-1.2834,-1.216,-1.1385,-1.1194,-4.708,-4.6557,-4.6625,-4.6298,-4.5763,-4.563,-4.5628,-4.561,-4.5419,-4.5419,-4.5587,-4.54,-4.5381,-4.5419,-4.5341,-4.5298,-4.5341,-4.5419,-4.5509,-4.5645,-4.5803,-4.5925,-4.6146,-4.6183,-4.6209,-4.624,-4.6255,-4.6288,-4.63,-4.63,-4.63,-4.63,-4.63,-4.63,-4.63,-4.63,-4.63,-4.6303,-4.6245,-4.6211,-4.6211,-4.6204,-4.6206,-4.6171,-4.6153,-4.6142,-4.6137,-4.6105,-4.6076,-4.6068,-4.6037,-4.6003,-4.5968,-4.5899,-4.5874,-4.588,-4.5847,-4.5814,-4.58,-4.58,-4.578,-4.5703,-4.5541,-4.5436,-4.5285,-4.5011,-4.477,-4.4662,-4.4568,-4.4364,-4.4079,-4.3809,-4.3458,-4.281,-4.218,-4.1622,-4.1111,-4.0414,-3.9387,-3.8206,-3.7863,-3.7456,-3.6338,-3.5404,-3.4883,-3.4283,-3.3547,-3.2777,-3.2232,-3.1809,-3.1368,-3.0784,-3.0279,-2.9484,-2.853,-2.8199,-2.729,-2.5619,-2.4436,-2.3153,-2.2013,-2.0872,-1.9778,-1.8748,-1.7933,-1.7397,-1.7037,-1.6662,-1.5994,-1.5311,-1.4358,-1.3499,-1.2829,-1.2252,-1.1575,-4.5911,-4.5627,-4.5764,-4.5684,-4.5438,-4.5457,-4.5545,-4.5673,-4.5563,-4.5577,-4.5634,-4.5571,-4.5541,-4.5571,-4.5558,-4.5507,-4.5507,-4.5607,-4.5728,-4.5859,-4.5947,-4.6027,-4.6196,-4.6209,-4.6196,-4.6209,-4.622,-4.6255,-4.6292,-4.6292,-4.6296,-4.63,-4.63,-4.63,-4.63,-4.63,-4.63,-4.6306,-4.6276,-4.6243,-4.6245,-4.621,-4.6205,-4.6202,-4.6212,-4.6195,-4.6142,-4.6125,-4.6076,-4.6054,-4.6017,-4.6005,-4.5983,-4.598,-4.5932,-4.5906,-4.588,-4.5827,-4.5814,-4.58,-4.58,-4.5786,-4.561,-4.5526,-4.5436,-4.5204,-4.4943,-4.4776,-4.4602,-4.4364,-4.4091,-4.3892,-4.3545,-4.316,-4.2519,-4.2008,-4.1596,-4.1157,-4.0268,-3.9262,-3.8761,-3.8117,-3.7115,-3.6306,-3.5804,-3.516,-3.4365,-3.3616,-3.2791,-3.2362,-3.2001,-3.1009,-3.0355,-2.9831,-2.9106,-2.8791,-2.8303,-2.6883,-2.563,-2.4351,-2.2989,-2.1756,-2.0692,-1.9596,-1.888,-1.8156,-1.7885,-1.7606,-1.6936,-1.6264,-1.5501,-1.4644,-1.3788,-1.3022,-1.2446,-4.4919,-4.4967,-4.5125,-4.5218,-4.5302,-4.5438,-4.5582,-4.5696,-4.5715,-4.5737,-4.5757,-4.5717,-4.5703,-4.5731,-4.5717,-4.5684,-4.5717,-4.5847,-4.5914,-4.5997,-4.6075,-4.6154,-4.6196,-4.6196,-4.6203,-4.6216,-4.6203,-4.6234,-4.626,-4.6284,-4.6288,-4.6292,-4.6277,-4.63,-4.6296,-4.63,-4.63,-4.63,-4.63,-4.63,-4.629,-4.6243,-4.621,-4.621,-4.6208,-4.6195,-4.6183,-4.6147,-4.6125,-4.6057,-4.6017,-4.6026,-4.6017,-4.6016,-4.596,-4.5932,-4.5919,-4.5874,-4.5847,-4.5833,-4.5833,-4.58,-4.5658,-4.5594,-4.5507,-4.5361,-4.512,-4.4849,-4.4662,-4.4477,-4.4258,-4.3936,-4.3679,-4.3373,-4.2976,-4.2476,-4.2026,-4.1578,-4.1128,-4.0285,-3.9647,-3.8783,-3.7847,-3.7294,-3.6783,-3.6024,-3.5225,-3.4432,-3.3685,-3.3199,-3.2563,-3.1145,-3.0368,-2.9998,-2.9534,-2.9197,-2.8633,-2.7718,-2.6554,-2.5378,-2.4018,-2.2648,-2.1489,-2.0331,-1.9712,-1.908,-1.8812,-1.845,-1.7792,-1.7225,-1.6553,-1.5792,-1.5121,-1.4268,-1.3409,-4.501,-4.5189,-4.5211,-4.5301,-4.5437,-4.5475,-4.5613,-4.5761,-4.5712,-4.5854,-4.6074,-4.5873,-4.5899,-4.6065,-4.5918,-4.578,-4.5827,-4.6009,-4.6193,-4.6367,-4.6358,-4.6364,-4.6227,-4.6196,-4.6254,-4.6222,-4.6203,-4.6203,-4.6226,-4.6275,-4.626,-4.624,-4.6269,-4.6296,-4.6292,-4.6296,-4.63,-4.63,-4.63,-4.63,-4.6303,-4.6287,-4.627,-4.6273,-4.6276,-4.6264,-4.623,-4.62,-4.6179,-4.6153,-4.6057,-4.6046,-4.606,-4.6027,-4.5986,-4.5972,-4.5937,-4.5912,-4.5874,-4.588,-4.5847,-4.5814,-4.5752,-4.5752,-4.5673,-4.5524,-4.5265,-4.4825,-4.4789,-4.4655,-4.4402,-4.4181,-4.3936,-4.3612,-4.3213,-4.2844,-4.2454,-4.2068,-4.1578,-4.1146,-4.048,-3.9543,-3.8564,-3.8189,-3.769,-3.6874,-3.6102,-3.5305,-3.4432,-3.3739,-3.3143,-3.1809,-3.0722,-3.0279,-2.9921,-2.9664,-2.8961,-2.8223,-2.7221,-2.6224,-2.4787,-2.3414,-2.212,-2.1141,-2.052,-1.9812,-1.9271,-1.8912,-1.855,-1.8087,-1.7412,-1.6936,-1.6459,-1.5507,-1.4561,-4.4962,-4.5057,-4.5129,-4.5237,-4.5341,-4.54,-4.551,-4.5607,-4.561,-4.5924,-4.6429,-4.6564,-4.6853,-4.7195,-4.7248,-4.7254,-4.7249,-4.7204,-4.7384,-4.7437,-4.7455,-4.7287,-4.7026,-4.6897,-4.678,-4.6371,-4.6215,-4.6203,-4.6242,-4.6293,-4.622,-4.6211,-4.6236,-4.6264,-4.6284,-4.6288,-4.6296,-4.63,-4.63,-4.63,-4.63,-4.63,-4.63,-4.63,-4.63,-4.627,-4.6246,-4.6211,-4.6202,-4.618,-4.6112,-4.6068,-4.6096,-4.6046,-4.5997,-4.5986,-4.5975,-4.5929,-4.5887,-4.5906,-4.586,-4.5833,-4.58,-4.58,-4.5752,-4.5626,-4.5399,-4.5055,-4.4891,-4.4714,-4.4505,-4.4258,-4.4017,-4.3712,-4.3389,-4.3014,-4.2709,-4.2512,-4.2068,-4.1683,-4.1255,-4.0317,-3.9475,-3.9016,-3.8469,-3.7748,-3.6919,-3.6166,-3.4984,-3.3779,-3.3115,-3.239,-3.1442,-3.0709,-3.0343,-3.0037,-2.9275,-2.8542,-2.7637,-2.6554,-2.5378,-2.4094,-2.2892,-2.212,-2.1507,-2.0791,-1.9812,-1.9188,-1.8827,-1.855,-1.8272,-1.7885,-1.7412,-1.677,-1.5865,-4.5575,-4.565,-4.5502,-4.5449,-4.549,-4.5816,-4.6032,-4.6071,-4.6183,-4.6525,-4.6995,-4.7342,-4.7824,-4.8283,-4.8261,-4.815,-4.8354,-4.8444,-4.8541,-4.8633,-4.8603,-4.8234,-4.7873,-4.7676,-4.7459,-4.6839,-4.7111,-4.708,-4.7002,-4.6911,-4.6826,-4.6254,-4.6206,-4.6231,-4.6255,-4.6279,-4.6284,-4.6296,-4.63,-4.63,-4.63,-4.63,-4.63,-4.63,-4.6284,-4.6273,-4.6228,-4.6211,-4.6208,-4.6226,-4.6147,-4.6105,-4.6118,-4.6044,-4.5988,-4.5997,-4.5977,-4.5983,-4.5937,-4.5919,-4.5874,-4.5847,-4.58,-4.58,-4.5766,-4.5642,-4.5455,-4.5182,-4.5052,-4.4789,-4.4513,-4.4306,-4.4079,-4.3809,-4.3511,-4.3124,-4.2786,-4.2573,-4.2391,-4.2002,-4.1613,-4.1192,-4.0414,-3.9868,-3.9229,-3.8541,-3.779,-3.7008,-3.5791,-3.4359,-3.3656,-3.3143,-3.2146,-3.1341,-3.0771,-3.033,-2.9561,-2.8949,-2.8039,-2.7139,-2.613,-2.5041,-2.3856,-2.3173,-2.257,-2.1686,-2.0799,-1.9903,-1.9096,-1.8827,-1.855,-1.855,-1.8272,-1.7759,-1.707,-4.741,-4.7622,-4.6563,-4.6177,-4.6239,-4.7143,-4.7484,-4.7338,-4.7626,-4.7741,-4.7894,-4.8114,-4.8295,-4.8439,-4.8562,-4.8523,-4.8396,-4.8319,-4.8576,-4.8576,-4.8329,-4.8554,-4.8448,-4.8416,-4.8438,-4.8374,-4.8187,-4.8246,-4.8475,-4.8151,-4.7469,-4.6456,-4.6521,-4.6312,-4.6259,-4.6323,-4.6255,-4.6264,-4.6273,-4.6296,-4.63,-4.63,-4.63,-4.63,-4.63,-4.6303,-4.6306,-4.6246,-4.6229,-4.6262,-4.6173,-4.6137,-4.6147,-4.6068,-4.6018,-4.5988,-4.5977,-4.5994,-4.596,-4.5937,-4.588,-4.5827,-4.58,-4.58,-4.58,-4.58,-4.5594,-4.5264,-4.5118,-4.491,-4.4667,-4.444,-4.4188,-4.386,-4.3579,-4.3303,-4.2957,-4.2709,-4.2512,-4.2269,-4.1952,-4.1622,-4.147,-4.092,-3.9918,-3.9152,-3.8334,-3.7499,-3.6706,-3.5488,-3.467,-3.3959,-3.2904,-3.2046,-3.1193,-3.067,-3.0152,-2.9561,-2.8688,-2.7959,-2.7128,-2.5964,-2.4967,-2.4114,-2.3424,-2.2648,-2.1909,-2.1275,-2.0494,-1.9312,-1.8767,-1.8893,-1.8973,-1.864,-1.8037,-4.7479,-4.7581,-4.7682,-4.7492,-4.7162,-4.7649,-4.7697,-4.7552,-4.7739,-4.8158,-4.8661,-4.9116,-4.9468,-4.9567,-4.9567,-4.9606,-4.9698,-4.9698,-4.971,-4.983,-4.9857,-4.9563,-4.9373,-4.9052,-4.8955,-4.8768,-4.8662,-4.8708,-4.8748,-4.8955,-4.8592,-4.782,-4.7346,-4.706,-4.693,-4.6585,-4.6362,-4.6309,-4.6299,-4.6284,-4.6292,-4.6292,-4.6292,-4.63,-4.63,-4.63,-4.6284,-4.6273,-4.629,-4.6278,-4.619,-4.6198,-4.6195,-4.6105,-4.6026,-4.5988,-4.5977,-4.5986,-4.5983,-4.596,-4.5925,-4.5874,-4.5847,-4.58,-4.58,-4.58,-4.5594,-4.5362,-4.5201,-4.4981,-4.4587,-4.4468,-4.4277,-4.3892,-4.3612,-4.3408,-4.3178,-4.2955,-4.285,-4.2683,-4.246,-4.219,-4.2088,-4.1957,-4.0876,-3.978,-3.8936,-3.8084,-3.7496,-3.6894,-3.6155,-3.537,-3.4466,-3.3579,-3.2712,-3.1817,-3.0934,-3.0241,-2.9608,-2.887,-2.8127,-2.7162,-2.6152,-2.5221,-2.4571,-2.4089,-2.3575,-2.2843,-2.1835,-2.0489,-1.9682,-1.9194,-1.9296,-1.9419,-1.8928,-4.8213,-4.8351,-4.891,-4.8726,-4.81,-4.835,-4.8353,-4.8194,-4.8346,-4.8724,-4.9392,-4.9896,-5.0264,-5.0445,-5.0404,-5.0387,-5.0452,-5.0508,-5.0565,-5.0563,-5.0445,-5.0325,-5.0033,-4.9798,-4.9687,-4.922,-4.92,-4.9376,-4.9653,-4.9526,-4.9543,-4.9325,-4.8709,-4.8288,-4.7756,-4.7359,-4.6961,-4.6981,-4.6986,-4.6991,-4.7099,-4.7123,-4.6869,-4.6823,-4.6745,-4.6534,-4.6417,-4.6287,-4.6284,-4.6273,-4.6248,-4.6207,-4.6163,-4.6117,-4.606,-4.6018,-4.5997,-4.5986,-4.5994,-4.596,-4.5937,-4.5887,-4.586,-4.5833,-4.58,-4.58,-4.561,-4.5283,-4.518,-4.5004,-4.456,-4.4468,-4.4335,-4.3986,-4.3923,-4.373,-4.3521,-4.3286,-4.3222,-4.3113,-4.3095,-4.3322,-4.297,-4.2894,-4.2068,-4.1136,-4.0592,-3.9827,-3.9082,-3.8486,-3.7919,-3.7164,-3.6289,-3.5419,-3.4548,-3.3758,-3.2888,-3.168,-3.0993,-3.0034,-2.9169,-2.8361,-2.7718,-2.7026,-2.6421,-2.5872,-2.5171,-2.4346,-2.3047,-2.1523,-2.0789,-2.0069,-1.9771,-1.9795,-1.9691,-4.9961,-5.0303,-5.014,-4.955,-4.8814,-4.9508,-4.9781,-4.9557,-4.9641,-4.9835,-5.0064,-5.0063,-5.0225,-5.0509,-5.0423,-5.0445,-5.0547,-5.0661,-5.0605,-5.0466,-5.0567,-5.0529,-5.0491,-5.0413,-5.033,-5.0662,-5.0457,-5.0414,-5.0794,-5.0642,-5.0812,-5.075,-5.0046,-4.9352,-4.8826,-4.873,-4.8698,-4.8678,-4.8574,-4.8482,-4.841,-4.8357,-4.7996,-4.7674,-4.7522,-4.7292,-4.6944,-4.6807,-4.6827,-4.6794,-4.6712,-4.6621,-4.6407,-4.6328,-4.6201,-4.6018,-4.5988,-4.5997,-4.5997,-4.5941,-4.5925,-4.5899,-4.5874,-4.586,-4.5814,-4.5786,-4.5626,-4.5263,-4.5201,-4.5,-4.47,-4.4468,-4.4306,-4.4177,-4.4104,-4.4151,-4.397,-4.4054,-4.4066,-4.3999,-4.4435,-4.4707,-4.4227,-4.3745,-4.3164,-4.2533,-4.2199,-4.1538,-4.0607,-3.9817,-3.916,-3.8622,-3.7802,-3.702,-3.6168,-3.5682,-3.4752,-3.3513,-3.2411,-3.1481,-3.0773,-3.0155,-2.9475,-2.8812,-2.806,-2.7409,-2.6614,-2.5754,-2.4438,-2.3159,-2.1863,-2.1097,-2.0605,-2.0139,-1.9992,-4.9824,-4.994,-4.9986,-4.9808,-4.9572,-5.0016,-5.01,-4.9906,-4.9925,-4.9978,-5.0031,-4.9986,-5.0063,-5.0197,-5.0268,-5.0287,-5.0336,-5.0358,-5.0287,-5.0352,-5.0506,-5.0485,-5.0485,-5.0546,-5.0625,-5.0662,-5.0698,-5.0781,-5.084,-5.1005,-5.1086,-5.1015,-5.0847,-5.0112,-4.9157,-4.8794,-4.8775,-4.8782,-4.8762,-4.8769,-4.8821,-4.8847,-4.8722,-4.8387,-4.8391,-4.8185,-4.7799,-4.7744,-4.7744,-4.7744,-4.7703,-4.7517,-4.7165,-4.7002,-4.6702,-4.6294,-4.6075,-4.5977,-4.5997,-4.5975,-4.5953,-4.5925,-4.5887,-4.5874,-4.5814,-4.58,-4.5577,-4.5362,-4.5298,-4.5033,-4.4613,-4.4561,-4.4439,-4.4337,-4.4364,-4.4697,-4.4767,-4.5077,-4.524,-4.5087,-4.5294,-4.5329,-4.4999,-4.4971,-4.4481,-4.3752,-4.3354,-4.2625,-4.1755,-4.0794,-4.0059,-3.9818,-3.9172,-3.8456,-3.7721,-3.7198,-3.6288,-3.5022,-3.3959,-3.2959,-3.2397,-3.1782,-3.0993,-3.0073,-2.9518,-2.8896,-2.7933,-2.6943,-2.6111,-2.4938,-2.3542,-2.2337,-2.171,-2.0982,-2.0184,-4.9634,-4.9721,-4.9788,-4.9871,-4.9933,-5.0125,-5.0095,-4.9906,-4.9925,-4.9933,-4.9986,-5.0005,-5.007,-5.0149,-5.0174,-5.0193,-5.0268,-5.0361,-5.024,-5.031,-5.0506,-5.0464,-5.044,-5.0485,-5.0587,-5.0606,-5.0662,-5.0745,-5.0932,-5.0978,-5.1049,-5.1128,-5.123,-5.0708,-4.9995,-4.982,-4.98,-4.9839,-4.9886,-4.9847,-4.9815,-4.9751,-4.9607,-4.9366,-4.922,-4.9094,-4.8884,-4.881,-4.8833,-4.8853,-4.8743,-4.856,-4.8086,-4.7828,-4.7565,-4.7132,-4.6629,-4.6551,-4.6502,-4.6055,-4.6022,-4.5949,-4.5912,-4.5887,-4.5827,-4.5833,-4.5626,-4.5475,-4.5512,-4.5403,-4.5179,-4.5092,-4.5237,-4.5193,-4.5338,-4.5661,-4.5741,-4.6078,-4.6415,-4.6269,-4.62,-4.6128,-4.5846,-4.5988,-4.5932,-4.5177,-4.4423,-4.3697,-4.2966,-4.2182,-4.1501,-4.1341,-4.0942,-4.0341,-3.9497,-3.8698,-3.7703,-3.6413,-3.5465,-3.4607,-3.3688,-3.3096,-3.2218,-3.1425,-3.0797,-3.0074,-2.9105,-2.8153,-2.739,-2.636,-2.5006,-2.3966,-2.2968,-2.1996,-2.1003,-4.9506,-4.9663,-4.9692,-4.9759,-4.9898,-4.9933,-4.9925,-4.9879,-4.9879,-5.0005,-5.0163,-4.9959,-5.0051,-5.0366,-5.032,-5.0272,-5.0317,-5.049,-5.0387,-5.0336,-5.0464,-5.0418,-5.0421,-5.0507,-5.0567,-5.0625,-5.0696,-5.0813,-5.1017,-5.0992,-5.0992,-5.1128,-5.1267,-5.1059,-5.095,-5.0872,-5.0872,-5.0794,-5.0794,-5.0755,-5.0743,-5.0933,-5.0569,-5.029,-5.0101,-4.98,-4.9518,-4.9289,-4.9215,-4.9142,-4.9052,-4.8973,-4.8864,-4.8847,-4.8792,-4.8431,-4.7699,-4.7466,-4.7259,-4.6715,-4.6491,-4.6554,-4.6337,-4.6106,-4.6042,-4.6137,-4.6117,-4.62,-4.634,-4.6282,-4.6201,-4.6471,-4.6723,-4.673,-4.6794,-4.6862,-4.685,-4.7099,-4.7448,-4.7553,-4.7569,-4.7366,-4.6784,-4.6771,-4.6525,-4.5947,-4.5302,-4.5062,-4.442,-4.402,-4.3468,-4.333,-4.2964,-4.2388,-4.1452,-4.0215,-3.9188,-3.7958,-3.7279,-3.6431,-3.5425,-3.4479,-3.3775,-3.3033,-3.213,-3.1199,-3.0201,-2.9409,-2.8762,-2.7599,-2.6411,-2.5383,-2.4375,-2.3085,-2.2097,-4.9276,-4.939,-4.9604,-4.974,-4.9778,-4.9852,-4.9879,-4.9879,-4.9879,-4.9952,-4.9986,-4.9933,-4.9993,-5.0057,-5.0025,-5.0051,-5.0125,-5.0174,-5.0174,-5.024,-5.0377,-5.0355,-5.0402,-5.0528,-5.0548,-5.0567,-5.0642,-5.0828,-5.0832,-5.0863,-5.1078,-5.1239,-5.1284,-5.1292,-5.13,-5.13,-5.13,-5.13,-5.13,-5.13,-5.13,-5.1308,-5.1043,-5.092,-5.0849,-5.0589,-5.0477,-5.0444,-5.0455,-5.0523,-5.0581,-5.0461,-4.9745,-4.9684,-4.9543,-4.8737,-4.8394,-4.8282,-4.8194,-4.7978,-4.7725,-4.7637,-4.7672,-4.7345,-4.7094,-4.6881,-4.6965,-4.7075,-4.7299,-4.7352,-4.7304,-4.7467,-4.7624,-4.7655,-4.774,-4.7815,-4.7804,-4.8026,-4.8375,-4.8301,-4.8347,-4.7842,-4.7335,-4.688,-4.6619,-4.6301,-4.6073,-4.5905,-4.5632,-4.5089,-4.4763,-4.4635,-4.4186,-4.341,-4.252,-4.1355,-4.0535,-3.9586,-3.8782,-3.7904,-3.6979,-3.6012,-3.5386,-3.4345,-3.3079,-3.214,-3.1335,-3.0543,-2.9726,-2.9002,-2.7913,-2.6798,-2.5664,-2.4473,-2.3285,-4.9113,-4.9244,-4.9464,-4.9644,-4.9788,-4.9871,-4.9879,-4.9879,-4.9879,-4.9879,-4.9879,-4.9879,-4.9879,-4.9906,-4.9906,-4.9933,-4.9959,-5.0038,-5.0038,-5.0095,-5.0264,-5.024,-5.0339,-5.0489,-5.0548,-5.0548,-5.0642,-5.0844,-5.0848,-5.1005,-5.123,-5.1211,-5.1267,-5.13,-5.13,-5.13,-5.13,-5.13,-5.13,-5.13,-5.13,-5.13,-5.1308,-5.1296,-5.1303,-5.133,-5.1343,-5.1369,-5.1375,-5.1391,-5.1391,-5.1206,-5.0637,-5.058,-5.0508,-4.9825,-4.9361,-4.9227,-4.907,-4.8679,-4.861,-4.8619,-4.8666,-4.8507,-4.825,-4.8057,-4.8009,-4.8041,-4.8347,-4.8548,-4.8441,-4.8353,-4.8384,-4.8382,-4.8541,-4.8713,-4.8865,-4.8995,-4.8978,-4.8866,-4.8532,-4.802,-4.7548,-4.7133,-4.6666,-4.6368,-4.6189,-4.6122,-4.5905,-4.5529,-4.5302,-4.5142,-4.4691,-4.4112,-4.3267,-4.2456,-4.1496,-4.0591,-3.9733,-3.8928,-3.8161,-3.7329,-3.6318,-3.5129,-3.3843,-3.3079,-3.2575,-3.1436,-3.0531,-2.9897,-2.9084,-2.8049,-2.6914,-2.5761,-2.4571,-4.9012,-4.9179,-4.934,-4.9596,-4.9852,-4.9898,-4.9879,-4.9879,-4.9879,-4.9879,-4.9879,-4.9879,-4.9879,-4.9879,-4.9879,-4.9879,-4.9906,-4.9959,-4.9959,-4.9986,-5.0089,-5.0114,-5.0217,-5.038,-5.0446,-5.0568,-5.0731,-5.0855,-5.1074,-5.1161,-5.1171,-5.1128,-5.1239,-5.13,-5.13,-5.13,-5.13,-5.13,-5.13,-5.13,-5.13,-5.13,-5.13,-5.13,-5.1308,-5.1308,-5.1303,-5.131,-5.1336,-5.1375,-5.1386,-5.1352,-5.1297,-5.1257,-5.1209,-5.1052,-5.0395,-5.0147,-4.9909,-4.9557,-4.9215,-4.9038,-4.8832,-4.9307,-4.94,-4.8968,-4.8806,-4.9151,-4.9486,-4.9575,-4.9509,-4.942,-4.9391,-4.9277,-4.9248,-4.9246,-4.9196,-4.9283,-4.9239,-4.9094,-4.8746,-4.829,-4.7882,-4.747,-4.6999,-4.6525,-4.6319,-4.635,-4.6122,-4.5854,-4.5684,-4.558,-4.5178,-4.4674,-4.4078,-4.3207,-4.2346,-4.1512,-4.069,-3.9733,-3.884,-3.7997,-3.7161,-3.5987,-3.4815,-3.4454,-3.3869,-3.2821,-3.1777,-3.0991,-3.0181,-2.9176,-2.8143,-2.6999,-2.5761,-4.8943,-4.9012,-4.9289,-4.9537,-4.975,-4.9852,-4.9898,-4.9879,-4.9879,-4.9879,-4.9879,-4.9879,-4.9879,-4.9879,-4.9879,-4.9879,-4.9906,-4.9906,-4.9925,-4.9933,-4.9986,-5.0057,-5.0089,-5.0268,-5.0339,-5.0404,-5.0567,-5.084,-5.1005,-5.1097,-5.1201,-5.1239,-5.1292,-5.1284,-5.13,-5.13,-5.13,-5.13,-5.13,-5.13,-5.13,-5.13,-5.13,-5.13,-5.13,-5.13,-5.1308,-5.1308,-5.1303,-5.1317,-5.1323,-5.1336,-5.1377,-5.1394,-5.1394,-5.1328,-5.111,-5.0887,-5.0719,-5.0486,-5.0315,-5.0409,-5.0464,-5.0639,-5.0511,-4.9853,-4.9731,-5.0209,-5.0458,-5.0496,-5.0477,-5.0394,-5.0278,-5.0068,-4.9884,-4.9693,-4.9532,-4.949,-4.9459,-4.9211,-4.8937,-4.8586,-4.8234,-4.7824,-4.736,-4.7026,-4.6817,-4.6649,-4.635,-4.6055,-4.6023,-4.5905,-4.5684,-4.5178,-4.464,-4.4061,-4.3207,-4.2425,-4.1609,-4.0607,-3.9505,-3.862,-3.771,-3.6802,-3.5963,-3.5494,-3.495,-3.4217,-3.3262,-3.2314,-3.1181,-3.017,-2.9268,-2.8236,-2.6904,-4.889,-4.8943,-4.9211,-4.9446,-4.9692,-4.9759,-4.9824,-4.9879,-4.9879,-4.9879,-4.9879,-4.9879,-4.9879,-4.9879,-4.9879,-4.9879,-4.9879,-4.9879,-4.9906,-4.9906,-4.9933,-4.9978,-5.0089,-5.0169,-5.0169,-5.0221,-5.0469,-5.0713,-5.0844,-5.0945,-5.1023,-5.1181,-5.122,-5.1239,-5.1284,-5.13,-5.1292,-5.13,-5.13,-5.13,-5.13,-5.13,-5.13,-5.13,-5.13,-5.13,-5.13,-5.13,-5.1308,-5.1303,-5.131,-5.1343,-5.138,-5.1391,-5.139,-5.1394,-5.1346,-5.1326,-5.1277,-5.1245,-5.1215,-5.1211,-5.1214,-5.1039,-5.1027,-5.0479,-5.0442,-5.0823,-5.0815,-5.085,-5.0703,-5.0605,-5.0508,-5.0342,-5.0135,-4.9929,-4.9712,-4.9574,-4.9532,-4.9409,-4.9141,-4.8885,-4.8531,-4.8291,-4.7806,-4.727,-4.7114,-4.6864,-4.6548,-4.6319,-4.627,-4.6189,-4.5922,-4.5701,-4.5232,-4.4712,-4.4135,-4.33,-4.252,-4.1428,-4.0347,-3.9203,-3.819,-3.7663,-3.7127,-3.6503,-3.5949,-3.5182,-3.4384,-3.3445,-3.2314,-3.1169,-3.0351,-2.9441,-2.8215,-4.889,-4.8925,-4.9113,-4.9358,-4.9615,-4.9692,-4.9778,-4.9852,-4.9898,-4.9879,-4.9879,-4.9879,-4.9879,-4.9879,-4.9879,-4.9879,-4.9879,-4.9879,-4.9879,-4.9879,-4.9906,-4.9952,-4.9978,-5.0005,-5.0038,-5.0139,-5.0336,-5.0466,-5.0548,-5.0677,-5.0825,-5.1005,-5.1074,-5.1128,-5.124,-5.1276,-5.1248,-5.1295,-5.1295,-5.13,-5.13,-5.13,-5.13,-5.13,-5.13,-5.13,-5.13,-5.13,-5.13,-5.1308,-5.1296,-5.1336,-5.1343,-5.1355,-5.14,-5.139,-5.1369,-5.1364,-5.1326,-5.1258,-5.1232,-5.1206,-5.121,-5.1206,-5.1175,-5.1171,-5.1146,-5.1121,-5.1095,-5.1053,-5.089,-5.0789,-5.0681,-5.0547,-5.032,-5.0135,-4.9922,-4.9683,-4.9615,-4.9563,-4.934,-4.9104,-4.8885,-4.8639,-4.8254,-4.7715,-4.7325,-4.7024,-4.6702,-4.6548,-4.6447,-4.6319,-4.6073,-4.5854,-4.5684,-4.5284,-4.4729,-4.4209,-4.336,-4.2252,-4.1178,-3.9914,-3.916,-3.8972,-3.8354,-3.7587,-3.6738,-3.5976,-3.5169,-3.4524,-3.3518,-3.2389,-3.1577,-3.0664,-2.959,-4.889,-4.8909,-4.9131,-4.9262,-4.934,-4.9574,-4.9721,-4.9731,-4.9852,-4.9879,-4.9879,-4.9879,-4.9879,-4.9879,-4.9879,-4.9879,-4.9879,-4.9879,-4.9879,-4.9879,-4.9879,-4.9925,-4.9925,-4.9952,-4.9959,-5.0038,-5.0163,-5.0264,-5.0336,-5.0448,-5.0567,-5.0774,-5.079,-5.0932,-5.1222,-5.1224,-5.1189,-5.1249,-5.1278,-5.1284,-5.13,-5.13,-5.13,-5.13,-5.13,-5.13,-5.13,-5.13,-5.13,-5.13,-5.1308,-5.1323,-5.133,-5.1336,-5.1362,-5.138,-5.1367,-5.1349,-5.1326,-5.1286,-5.1249,-5.1219,-5.1217,-5.1201,-5.12,-5.1202,-5.1159,-5.1114,-5.1108,-5.1081,-5.0971,-5.0925,-5.0825,-5.0606,-5.0404,-5.0275,-5.0111,-4.991,-4.9768,-4.9693,-4.9566,-4.9377,-4.927,-4.9038,-4.8834,-4.8384,-4.8082,-4.7729,-4.7132,-4.6873,-4.6649,-4.6477,-4.6319,-4.6172,-4.6073,-4.5735,-4.5232,-4.4766,-4.4135,-4.2998,-4.1804,-4.0569,-3.996,-3.9763,-3.9277,-3.8605,-3.7753,-3.683,-3.6122,-3.548,-3.4703,-3.3771,-3.287,-3.1991,-3.0932]},{"header":{"parameterUnit":"m.s-1","parameterCategory":1,"la1":31.0,"la2":29.5877,"lo1":-88.7671,"lo2":-86.6584,"dy":0.0162,"dx":0.0185,"nx":115,"ny":88,"refTime":"2023-03-20T12:00:00:Z","depth":0,"parameterNumber":3,"parameterNumberName":"V-component_of_WINDS"},"data":[0.0,0.0,0.0,0.0,0.0,0.0,0.0,0.0,0.0,0.0,0.0,0.0,0.0,0.0,0.0,0.0,0.0,0.0,0.0,0.0,0.0,0.0,0.0,0.0,0.0,0.0,0.0,0.0,0.0,0.0,0.0,0.0,0.0,0.0,0.0,0.0,0.0,0.0,0.0,0.0,0.0,0.0,0.0,0.0,0.0,0.0,0.0,0.0,0.0,0.0,0.0,0.0,0.0,0.0,0.0,0.0,0.0,0.0,0.0,0.0,0.0,0.0,0.0,0.0,0.0,0.0,0.0,0.0,0.0,0.0,0.0,0.0,0.0,0.0,0.0,0.0,0.0,0.0,0.0,0.0,0.0,0.0,0.0,0.0,0.0,0.0,0.0,0.0,0.0,0.0,0.0,0.0,0.0,0.0,0.0,0.0,0.0,0.0,0.0,0.0,0.0,0.0,0.0,0.0,0.0,0.0,0.0,0.0,0.0,0.0,0.0,0.0,0.0,0.0,0.0,0.0,0.0,0.0,0.0,0.0,0.0,0.0,0.0,0.0,0.0,0.0,0.0,0.0,0.0,0.0,0.0,0.0,0.0,0.0,0.0,0.0,0.0,0.0,0.0,0.0,0.0,0.0,0.0,0.0,0.0,0.0,0.0,0.0,0.0,0.0,0.0,0.0,0.0,0.0,0.0,0.0,0.0,0.0,0.0,0.0,0.0,0.0,0.0,0.0,0.0,0.0,0.0,0.0,0.0,0.0,0.0,0.0,0.0,0.0,0.0,0.0,0.0,0.0,0.0,0.0,0.0,0.0,0.0,0.0,0.0,0.0,0.0,0.0,0.0,0.0,0.0,0.0,0.0,0.0,0.0,0.0,0.0,0.0,0.0,0.0,0.0,0.0,0.0,0.0,0.0,0.0,0.0,0.0,0.0,0.0,0.0,0.0,0.0,0.0,0.0,0.0,0.0,0.0,0.0,0.0,0.0,0.0,0.0,0.0,0.0,0.0,0.0,0.0,0.0,0.0,0.0,0.0,0.0,0.0,0.0,0.0,0.0,0.0,0.0,0.0,0.0,0.0,0.0,0.0,0.0,0.0,0.0,0.0,0.0,0.0,0.0,0.0,0.0,0.0,0.0,0.0,0.0,0.0,0.0,0.0,0.0,0.0,0.0,0.0,0.0,0.0,0.0,0.0,0.0,0.0,0.0,0.0,0.0,0.0,0.0,0.0,0.0,0.0,0.0,0.0,0.0,0.0,0.0,0.0,0.0,0.0,0.0,0.0,0.0,0.0,0.0,0.0,0.0,0.0,0.0,0.0,0.0,0.0,0.0,0.0,0.0,0.0,0.0,0.0,0.0,0.0,0.0,0.0,0.0,0.0,0.0,0.0,0.0,0.0,0.0,0.0,0.0,0.0,0.0,0.0,0.0,0.0,0.0,0.0,0.0,0.0,0.0,0.0,0.0,0.0,0.0,0.0,0.0,0.0,0.0,0.0,0.0,0.0,0.0,0.0,0.0,0.0,0.0,0.0,0.0,0.0,0.0,0.0,0.0,0.0,0.0,0.0,0.0,0.0,0.0,0.0,0.0,0.0,0.0,0.0,0.0,0.0,0.0,0.0,0.0,0.0,0.0,0.0,0.0,0.0,0.0,0.0,0.0,0.0,0.0,0.0,0.0,0.0,0.0,0.0,0.0,0.0,0.0,0.0,0.0,0.0,0.0,0.0,0.0,0.0,0.0,0.0,0.0,0.0,0.0,0.0,0.0,0.0,0.0,0.0,0.0,0.0,0.0,0.0,0.0,0.0,0.0,0.0,0.0,0.0,0.0,0.0,0.0,0.0,0.0,0.0,0.0,0.0,0.0,0.0,0.0,0.0,0.0,0.0,0.0,0.0,0.0,0.0,0.0,0.0,0.0,0.0,0.0,0.0,0.0,0.0,0.0,0.0,0.0,0.0,0.0,0.0,0.0,0.0,0.0,0.0,0.0,0.0,0.0,0.0,0.0,0.0,0.0,0.0,0.0,0.0,0.0,0.0,0.0,0.0,0.0,0.0,0.0,0.0,0.0,0.0,0.0,0.0,0.0,0.0,0.0,0.0,0.0,0.0,0.0,0.0,0.0,0.0,0.0,0.0,0.0,0.0,0.0,0.0,0.0,0.0,0.0,0.0,0.0,0.0,0.0,0.0,0.0,0.0,0.0,0.0,0.0,0.0,0.0,0.0,0.0,0.0,0.0,0.0,0.0,0.0,0.0,0.0,0.0,0.0,0.0,0.0,0.0,0.0,0.0,0.0,0.0,0.0,0.0,0.0,0.0,0.0,0.0,0.0,0.0,0.0,0.0,0.0,0.0,0.0,0.0,0.0,0.0,0.0,0.0,0.0,0.0,0.0,0.0,0.0,0.0,0.0,0.0,0.0,0.0,0.0,0.0,0.0,0.0,0.0,0.0,0.0,0.0,0.0,0.0,0.0,0.0,0.0,0.0,0.0,0.0,0.0,0.0,0.0,0.0,0.0,0.0,0.0,0.0,0.0,0.0,0.0,0.0,0.0,0.0,0.0,0.0,0.0,0.0,0.0,0.0,0.0,0.0,0.0,0.0,0.0,0.0,0.0,0.0,0.0,0.0,0.0,0.0,0.0,0.0,0.0,0.0,0.0,0.0,0.0,0.0,0.0,0.0,0.0,0.0,0.0,0.0,0.0,0.0,0.0,0.0,0.0,0.0,0.0,0.0,0.0,0.0,0.0,0.0,0.0,0.0,0.0,0.0,0.0,0.0,0.0,0.0,0.0,0.0,0.0,0.0,0.0,0.0,0.0,0.0,0.0,0.0,0.0,0.0,0.0,0.0,0.0,0.0,0.0,0.0,0.0,0.0,0.0,0.0,0.0,0.0,0.0,0.0,0.0,0.0,0.0,0.0,0.0,0.0,0.0,0.0,0.0,0.0,0.0,0.0,0.0,0.0,0.0,0.0,0.0,0.0,0.0,0.0,0.0,0.0,0.0,0.0,0.0,0.0,0.0,0.0,0.0,0.0,0.0,0.0,0.0,0.0,0.0,0.0,0.0,0.0,0.0,0.0,0.0,0.0,0.0,0.0,0.0,0.0,0.0,0.0,0.0,0.0,0.0,0.0,0.0,0.0,0.0,0.0,0.0,0.0,0.0,0.0,0.0,0.0,0.0,0.0,0.0,0.0,0.0,0.0,0.0,0.0,0.0,0.0,0.0,0.0,0.0,0.0,0.0,0.0,0.0,0.0,0.0,0.0,0.0,0.0,0.0,0.0,0.0,0.0,0.0,0.0,0.0,0.0,0.0,0.0,0.0,0.0,0.0,0.0,0.0,0.0,0.0,0.0,0.0,0.0,0.0,0.0,0.0,0.0,0.0,0.0,0.0,0.0,0.0,0.0,0.0,0.0,0.0,0.0,0.0,0.0,0.0,0.0,0.0,0.0,0.0,0.0,0.0,0.0,0.0,0.0,0.0,0.0,0.0,0.0,0.0,0.0,0.0,0.0,0.0,0.0,0.0,0.0,0.0,0.0,0.0,0.0,0.0,0.0,0.0,0.0,0.0,0.0,0.0,0.0,0.0,0.0,0.0,0.0,0.0,0.0,0.0,0.0,0.0,0.0,0.0,0.0,0.0,0.0,0.0,0.0,0.0,0.0,0.0,0.0,0.0,0.0,0.0,0.0,0.0,0.0,0.0,0.0,0.0,0.0,0.0,0.0,0.0,0.0,0.0,0.0,0.0,0.0,0.0,0.0,0.0,0.0,0.0,0.0,0.0,0.0,0.0,0.0,0.0,0.0,0.0,0.0,0.0,0.0,0.0,0.0,0.0,0.0,0.0,0.0,0.0,0.0,0.0,0.0,0.0,0.0,0.0,0.0,0.0,0.0,0.0,0.0,0.0,0.0,0.0,0.0,0.0,0.0,0.0,0.0,0.0,0.0,0.0,0.0,0.0,0.0,0.0,0.0,0.0,0.0,0.0,0.0,0.0,0.0,0.0,0.0,0.0,0.0,0.0,0.0,0.0,0.0,0.0,0.0,0.0,0.0,0.0,0.0,0.0,0.0,0.0,0.0,0.0,0.0,0.0,0.0,0.0,0.0,0.0,0.0,0.0,0.0,0.0,0.0,0.0,0.0,0.0,0.0,0.0,0.0,0.0,0.0,0.0,0.0,0.0,0.0,0.0,0.0,0.0,0.0,0.0,0.0,0.0,0.0,0.0,0.0,0.0,0.0,0.0,0.0,0.0,0.0,0.0,0.0,0.0,0.0,0.0,0.0,0.0,1.4824,0.0,0.0,0.0,0.0,0.0,0.0,0.0,0.0,0.0,0.0,0.0,0.0,0.0,0.0,0.0,0.0,0.0,0.0,0.0,0.0,0.0,0.0,0.0,0.0,0.0,0.0,0.0,0.0,0.0,0.0,0.0,0.0,0.0,0.0,0.0,0.0,0.0,0.0,0.0,0.0,0.0,0.0,0.0,0.0,0.0,0.0,0.0,0.0,0.0,0.0,0.0,0.0,0.0,0.0,0.0,0.0,0.0,0.0,0.0,0.0,0.0,0.0,0.0,0.0,0.0,0.0,0.0,0.0,0.0,0.0,0.0,0.0,0.0,0.0,0.0,0.0,0.0,0.0,0.0,0.0,0.0,0.0,0.0,0.0,0.0,0.0,0.0,0.0,0.0,0.0,0.0,0.0,0.0,0.0,0.0,0.0,0.0,0.0,0.0,0.0,0.0,0.0,0.0,0.0,0.0,0.0,0.0,0.0,0.0,0.0,1.5371,1.5098,1.5098,1.4911,1.4597,0.0,0.0,0.0,0.0,0.0,0.0,0.0,0.0,0.0,0.0,0.0,0.0,0.0,0.0,0.0,0.0,0.0,0.0,0.0,0.0,0.0,0.0,0.0,0.0,0.0,0.0,0.0,0.0,0.0,0.0,0.0,0.0,0.0,0.0,0.0,0.0,0.0,0.0,0.0,0.0,0.0,0.0,0.0,0.0,0.0,0.0,0.0,0.0,0.0,0.0,0.0,0.0,0.0,0.0,0.0,0.0,0.0,0.0,0.0,0.0,0.0,0.0,0.0,0.0,0.0,0.0,0.0,0.0,0.0,0.0,0.0,0.0,0.0,0.0,0.0,0.0,0.0,0.0,0.0,0.0,0.0,0.0,0.0,0.0,0.0,0.0,0.0,0.0,0.0,0.0,0.0,0.0,0.0,0.0,0.0,0.0,0.0,0.0,0.0,0.0,0.0,0.0,0.0,0.0,0.0,0.0,0.0,0.0,0.0,0.0,0.0,0.0,1.5039,1.4784,1.4282,0.0,0.0,0.0,0.0,0.0,0.0,0.0,0.0,0.0,0.0,0.0,0.0,0.0,0.0,0.0,0.0,0.0,0.0,0.0,0.0,0.0,0.0,0.0,0.0,0.0,0.0,0.0,0.0,0.0,0.0,0.0,0.0,0.0,0.0,0.0,0.0,0.0,0.0,0.0,0.0,0.0,0.0,0.0,0.0,0.0,0.0,0.0,0.0,0.0,0.0,0.0,0.0,0.0,0.0,0.0,0.0,0.0,0.0,0.0,0.0,0.0,0.0,0.0,0.0,0.0,0.0,0.0,0.0,0.0,0.0,0.0,0.0,0.0,0.0,0.0,0.0,0.0,0.0,0.0,0.0,0.0,0.0,0.0,0.0,0.0,0.0,0.0,0.0,0.0,0.0,0.0,0.0,0.0,0.0,0.0,0.0,0.0,0.0,0.0,0.0,0.0,0.0,0.0,0.0,0.0,0.0,0.0,0.0,0.0,0.0,1.5245,1.5039,1.498,0.0,1.3476,0.0,0.0,0.0,0.0,0.0,0.0,0.0,0.0,0.0,0.0,0.0,0.0,0.0,0.0,0.0,0.0,0.0,0.0,0.0,0.0,0.0,0.0,0.0,0.0,0.0,0.0,0.0,0.0,0.0,0.0,0.0,0.0,0.0,0.0,0.0,0.0,0.0,0.0,0.0,0.0,0.0,0.0,0.0,0.0,0.0,0.0,0.0,0.0,0.0,0.0,0.0,0.0,0.0,0.0,0.0,0.0,0.0,0.0,0.0,0.0,0.0,0.0,0.0,0.0,0.0,0.0,0.0,0.0,0.0,0.0,0.0,0.0,0.0,0.0,0.0,0.0,0.0,0.0,0.0,0.0,0.0,0.0,0.0,0.0,0.0,0.0,0.0,0.0,0.0,0.0,0.0,0.0,0.0,0.0,0.0,0.0,0.0,0.0,0.0,0.0,0.0,0.0,0.0,0.0,0.0,0.0,0.0,0.0,0.0,0.0,1.5478,1.5254,1.4784,1.4121,0.0,0.0,0.0,0.0,0.0,0.0,0.0,0.0,0.0,0.0,0.0,0.0,0.0,0.0,0.0,0.0,0.0,0.0,0.0,0.0,0.0,0.0,0.0,0.0,0.0,0.0,0.0,0.0,0.0,0.0,0.0,0.0,0.0,0.0,0.0,0.0,0.0,0.0,0.0,0.0,0.0,0.0,0.0,0.0,0.0,0.0,0.0,0.0,0.0,0.0,0.0,0.0,0.0,0.0,0.0,0.0,0.0,0.0,0.0,0.0,0.0,0.0,0.0,0.0,0.0,0.0,0.0,0.0,0.0,0.0,0.0,0.0,0.0,0.0,0.0,0.0,0.0,0.0,0.0,0.0,0.0,0.0,0.0,0.0,0.0,0.0,0.0,0.0,0.0,0.0,0.0,0.0,0.0,0.0,0.0,0.0,0.0,0.0,0.0,0.0,0.0,0.0,0.0,0.0,0.0,0.0,0.0,0.0,0.0,0.0,1.574,1.5672,1.5352,1.4647,1.4001,1.3511,0.0,0.0,0.0,0.0,0.0,0.0,0.0,0.0,0.0,0.0,0.0,0.0,0.0,0.0,0.0,0.0,0.0,0.0,0.0,0.0,0.0,0.0,0.0,0.0,0.0,0.0,0.0,0.0,0.0,0.0,0.0,0.0,0.0,0.0,0.0,0.0,0.0,0.0,0.0,0.0,0.0,0.0,0.0,0.0,0.0,0.0,0.0,0.0,0.0,0.0,0.0,0.0,0.0,0.0,0.0,0.0,0.0,0.0,0.0,0.0,0.0,0.0,0.0,0.0,0.0,0.0,0.0,0.0,0.0,0.0,0.0,0.0,0.0,0.0,0.0,0.0,0.0,0.0,0.0,0.0,0.0,0.0,0.0,0.0,0.0,0.0,0.0,0.0,0.0,0.0,0.0,0.0,0.0,0.0,0.0,0.0,0.0,0.0,0.0,0.0,0.0,0.0,0.0,0.0,0.0,0.0,0.0,0.0,1.5672,1.5798,1.573,1.541,1.4824,1.4359,0.0,0.0,0.0,0.0,0.0,0.0,0.0,0.0,0.0,0.0,0.0,0.0,0.0,0.0,0.0,0.0,0.0,0.0,0.0,0.0,0.0,0.0,0.0,0.0,0.0,0.0,0.0,0.0,0.0,0.0,0.0,0.0,0.0,0.0,0.0,0.0,0.0,0.0,0.0,0.0,0.0,0.0,0.0,0.0,0.0,0.0,0.0,0.0,0.0,0.0,0.0,0.0,0.0,0.0,0.0,0.0,0.0,0.0,0.0,0.0,0.0,0.0,0.0,0.0,0.0,0.0,0.0,0.0,0.0,0.0,0.0,0.0,0.0,0.0,0.0,0.0,0.0,0.0,0.0,0.0,0.0,0.0,0.0,0.0,0.0,0.0,0.0,0.0,0.0,0.0,0.0,0.0,0.0,0.0,0.0,0.0,0.0,0.0,0.0,0.0,0.0,0.0,0.0,0.0,0.0,0.0,0.0,0.0,0.0,1.5856,1.5961,1.5836,1.541,1.501,1.4547,0.0,0.0,0.0,0.0,0.0,0.0,0.0,0.0,0.0,0.0,0.0,0.0,0.0,0.0,0.0,0.0,0.0,0.0,0.0,0.0,0.0,0.0,0.0,0.0,0.0,0.0,0.0,0.0,0.0,0.0,0.0,0.0,0.0,0.0,0.0,0.0,0.0,0.0,0.0,0.0,0.0,0.0,0.0,0.0,0.0,0.0,0.0,0.0,0.0,0.0,0.0,0.0,0.0,0.0,0.0,0.0,0.0,0.0,0.0,0.0,0.0,0.0,0.0,0.0,0.0,0.0,0.0,0.0,0.0,0.0,0.0,0.0,0.0,0.0,0.0,0.0,0.0,0.0,0.0,0.0,0.0,0.0,0.0,0.0,0.0,0.0,0.0,0.0,0.0,0.0,0.0,0.0,0.0,0.0,0.0,0.0,0.0,0.0,0.0,0.0,0.0,0.0,0.0,0.0,0.0,0.0,0.0,0.0,0.0,1.5961,0.0,1.5941,1.5546,1.5254,1.4843,0.0,0.0,0.0,0.0,0.0,0.0,0.0,0.0,0.0,0.0,0.0,0.0,0.0,0.0,0.0,0.0,0.0,0.0,0.0,0.0,0.0,0.0,0.0,0.0,0.0,0.0,0.0,0.0,0.0,0.0,0.0,0.0,0.0,0.0,0.0,0.0,0.0,0.0,0.0,0.0,0.0,0.0,0.0,0.0,0.0,0.0,0.0,0.0,0.0,0.0,0.0,0.0,0.0,0.0,0.0,0.0,0.0,0.0,0.0,0.0,0.0,0.0,0.0,0.0,0.0,0.0,0.0,0.0,0.0,0.0,0.0,0.0,0.0,0.0,0.0,0.0,0.0,0.0,0.0,0.0,0.0,0.0,0.0,0.0,0.0,0.0,0.0,0.0,0.0,0.0,0.0,0.0,0.0,0.0,0.0,0.0,0.0,0.0,0.0,0.0,0.0,0.0,0.0,0.0,0.0,0.0,0.0,0.0,1.5856,1.6077,1.6124,1.6039,1.5934,1.5566,1.5186,0.0,0.0,0.0,0.0,0.0,0.0,0.0,0.0,0.0,0.0,0.0,0.0,0.0,0.0,0.0,0.0,0.0,0.0,0.0,0.0,0.0,0.0,0.0,0.0,0.0,0.0,0.0,0.0,0.0,0.0,0.0,0.0,0.0,0.0,0.0,0.0,0.0,0.0,0.0,0.0,0.0,0.0,0.0,0.0,0.0,0.0,0.0,0.0,0.0,0.0,0.0,0.0,0.0,0.0,0.0,0.0,0.0,0.0,0.0,0.0,0.0,0.0,0.0,0.0,0.0,0.0,0.0,0.0,0.0,0.0,0.0,0.0,0.0,0.0,0.0,0.0,0.0,0.0,0.0,0.0,0.0,0.0,0.0,0.0,0.0,0.0,0.0,0.0,0.0,0.0,0.0,0.0,0.0,0.0,0.0,0.0,0.0,0.0,0.0,0.0,0.0,0.0,0.0,0.0,0.0,0.0,0.0,0.0,0.0,1.6346,1.6356,1.6346,1.6178,1.5989,1.5484,0.0,0.0,0.0,0.0,0.0,0.0,0.0,0.0,0.0,0.0,0.0,0.0,0.0,0.0,0.0,0.0,0.0,0.0,0.0,0.0,0.0,0.0,0.0,0.0,0.0,0.0,0.0,0.0,0.0,0.0,0.0,0.0,0.0,0.0,0.0,0.0,0.0,0.0,0.0,0.0,0.0,0.0,0.0,0.0,0.0,0.0,0.0,0.0,0.0,0.0,0.0,0.0,0.0,0.0,0.0,0.0,0.0,0.0,0.0,0.0,0.0,0.0,0.0,0.0,0.0,0.0,0.0,0.0,0.0,0.0,0.0,0.0,0.0,0.0,0.0,0.0,0.0,0.0,0.0,0.0,0.0,0.0,0.0,0.0,0.0,0.0,0.0,0.0,0.0,0.0,0.0,0.0,0.0,0.0,0.0,0.0,0.0,0.0,0.0,0.0,0.0,0.0,0.0,0.0,0.0,0.0,0.0,0.0,0.0,1.6884,1.6944,1.6927,1.6802,1.6572,1.5972,1.5078,0.0,0.0,0.0,0.0,0.0,0.0,0.0,0.0,0.0,0.0,0.0,0.0,0.0,0.0,0.0,0.0,0.0,0.0,0.0,0.0,0.0,0.0,0.0,0.0,0.0,0.0,0.0,0.0,0.0,0.0,0.0,0.0,0.0,0.0,0.0,0.0,0.0,0.0,0.0,0.0,0.0,0.0,0.0,0.0,0.0,0.0,0.0,0.0,0.0,0.0,0.0,0.0,0.0,0.0,0.0,0.0,0.0,0.0,0.0,0.0,0.0,0.0,0.0,0.0,0.0,0.0,0.0,0.0,0.0,0.0,0.0,0.0,0.0,0.0,0.0,0.0,0.0,0.0,0.0,0.0,0.0,0.0,0.0,0.0,0.0,0.0,0.0,0.0,0.0,0.0,0.0,0.0,0.0,0.0,0.0,0.0,0.0,0.0,0.0,0.0,0.0,0.0,0.0,0.0,0.0,0.0,0.0,0.0,1.7666,1.7809,1.78,1.7675,1.7278,1.6572,0.0,0.0,0.0,0.0,0.0,0.0,0.0,0.0,0.0,0.0,0.0,0.0,0.0,0.0,0.0,0.0,0.0,0.0,0.0,0.0,0.0,0.0,0.0,0.0,0.0,0.0,0.0,0.0,0.0,0.0,0.0,0.0,0.0,0.0,0.0,0.0,0.0,0.0,0.0,0.0,0.0,0.0,0.0,0.0,0.0,0.0,0.0,0.0,0.0,0.0,0.0,0.0,0.0,0.0,0.0,0.0,0.0,0.0,0.0,0.0,0.0,0.0,0.0,0.0,0.0,0.0,0.0,0.0,0.0,0.0,0.0,0.0,0.0,0.0,0.0,0.0,0.0,0.0,0.0,0.0,0.0,0.0,0.0,0.0,0.0,0.0,0.0,0.0,0.0,0.0,0.0,0.0,0.0,0.0,0.0,0.0,0.0,0.0,0.0,0.0,0.0,0.0,0.0,0.0,0.0,0.0,0.0,0.0,0.0,1.7807,1.8697,1.8874,1.8389,1.7958,1.7183,0.0,0.0,0.0,0.0,0.0,0.0,0.0,0.0,0.0,0.0,0.0,0.0,0.0,0.0,0.0,0.0,0.0,0.0,0.0,0.0,0.0,0.0,0.0,0.0,0.0,0.0,0.0,0.0,0.0,0.0,0.0,0.0,0.0,0.0,0.0,0.0,0.0,0.0,0.0,0.0,0.0,0.0,0.0,0.0,0.0,0.0,0.0,0.0,0.0,0.0,0.0,0.0,0.0,0.0,0.0,0.0,0.0,0.0,0.0,0.0,0.0,0.0,0.0,0.0,0.0,0.0,0.0,0.0,0.0,0.0,0.0,0.0,0.0,0.0,0.0,0.0,0.0,0.0,0.0,0.0,0.0,0.0,0.0,0.0,0.0,0.0,0.0,0.0,0.0,0.0,0.0,0.0,0.0,0.0,0.0,0.0,0.0,0.0,0.0,0.0,0.0,0.0,0.0,0.0,0.0,0.0,0.0,0.0,1.7021,1.8457,1.908,1.9497,1.9975,1.8832,1.7726,0.0,0.0,0.0,0.0,0.0,0.0,0.0,0.0,0.0,0.0,0.0,0.0,0.0,0.0,0.0,0.0,0.0,0.0,0.0,0.0,0.0,0.0,0.0,0.0,0.0,0.0,0.0,0.0,0.0,0.0,0.0,0.0,0.0,0.0,0.0,0.0,0.0,0.0,0.0,0.0,0.0,0.0,0.0,0.0,0.0,0.0,0.0,0.0,0.0,0.0,0.0,0.0,0.0,0.0,0.0,0.0,0.0,0.0,0.0,0.0,0.0,0.0,0.0,0.0,0.0,0.0,0.0,0.0,0.0,0.0,0.0,0.0,0.0,0.0,0.0,0.0,0.0,0.0,0.0,0.0,0.0,0.0,0.0,0.0,0.0,0.0,0.0,0.0,0.0,0.0,0.0,0.0,0.0,0.0,0.0,0.0,0.0,0.0,0.0,0.0,0.0,0.0,0.0,0.0,0.0,0.0,0.0,0.0,1.7406,1.9399,1.9303,2.001,2.1614,1.972,1.8162,0.0,0.0,0.0,0.0,0.0,0.0,0.0,0.0,0.0,0.0,0.0,0.0,0.0,0.0,0.0,0.0,0.0,0.0,0.0,0.0,0.0,0.0,0.0,0.0,0.0,0.0,0.0,0.0,0.0,0.0,0.0,0.0,0.0,0.0,0.0,0.0,0.0,0.0,0.0,0.0,0.0,0.0,0.0,0.0,0.0,0.0,0.0,0.0,0.0,0.0,0.0,0.0,0.0,0.0,0.0,0.0,0.0,0.0,0.0,0.0,0.0,0.0,0.0,0.0,0.0,0.0,0.0,0.0,0.0,0.0,0.0,0.0,0.0,0.0,0.0,0.0,0.0,0.0,0.0,0.0,0.0,0.0,0.0,0.0,0.0,0.0,0.0,0.0,0.0,0.0,0.0,0.0,0.0,0.0,0.0,0.0,0.0,0.0,0.0,0.0,0.0,0.0,0.0,0.0,0.0,0.0,0.0,0.0,1.799,1.9775,2.0456,2.0964,2.1502,1.9881,1.8608,0.0,0.0,0.0,0.0,0.0,0.0,0.0,0.0,0.0,0.0,0.0,0.0,0.0,0.0,0.0,0.0,0.0,0.0,0.0,0.0,0.0,0.0,0.0,0.0,0.0,0.0,0.0,0.0,0.0,0.0,0.0,0.0,0.0,0.0,0.0,0.0,0.0,0.0,0.0,0.0,0.0,0.0,0.0,0.0,0.0,0.0,0.0,0.0,-3.0515,0.0,0.0,0.0,0.0,0.0,0.0,0.0,0.0,0.0,0.0,0.0,0.0,0.0,0.0,0.0,0.0,0.0,0.0,0.0,0.0,0.0,0.0,0.0,0.0,0.0,0.0,0.0,0.0,0.0,0.0,0.0,0.0,0.0,0.0,0.0,0.0,0.0,0.0,0.0,0.0,0.0,0.0,0.0,0.0,0.0,0.0,0.0,0.0,0.0,0.0,0.0,0.0,0.0,0.0,0.0,0.0,0.0,0.0,0.0,1.7468,1.8974,1.9316,2.0001,2.1135,1.9383,1.8283,0.0,0.0,0.0,0.0,0.0,0.0,0.0,0.0,0.0,0.0,0.0,0.0,0.0,0.0,0.0,0.0,0.0,0.0,0.0,0.0,0.0,0.0,0.0,0.0,0.0,0.0,0.0,0.0,0.0,0.0,0.0,0.0,0.0,0.0,0.0,0.0,0.0,0.0,0.0,0.0,0.0,0.0,0.0,0.0,0.0,0.0,0.0,0.0,0.0,0.0,0.0,0.0,0.0,0.0,0.0,0.0,0.0,0.0,0.0,0.0,0.0,0.0,0.0,0.0,0.0,0.0,0.0,0.0,0.0,0.0,0.0,0.0,0.0,0.0,0.0,0.0,0.0,0.0,0.0,0.0,0.0,0.0,0.0,0.0,0.0,0.0,0.0,0.0,0.0,0.0,0.0,0.0,0.0,0.0,0.0,0.0,0.0,0.0,0.0,0.0,0.0,0.0,0.0,0.0,0.0,0.0,0.0,1.5514,1.6706,1.8029,1.7843,1.8638,2.0653,1.8802,1.7755,1.7608,0.0,0.0,0.0,0.0,0.0,0.0,0.0,0.0,0.0,0.0,0.0,0.0,0.0,0.0,0.0,0.0,0.0,0.0,0.0,0.0,0.0,0.0,0.0,0.0,0.0,0.0,0.0,0.0,0.0,0.0,0.0,0.0,0.0,0.0,0.0,0.0,0.0,0.0,-2.5493,-2.6833,0.0,0.0,0.0,0.0,0.0,0.0,0.0,0.0,-3.3415,0.0,0.0,0.0,0.0,0.0,0.0,0.0,0.0,0.0,0.0,0.0,0.0,0.0,0.0,0.0,0.0,0.0,0.0,0.0,0.0,0.0,0.0,0.0,0.0,0.0,0.0,0.0,0.0,0.0,0.0,0.0,0.0,0.0,0.0,0.0,0.0,0.0,0.0,0.0,0.0,0.0,0.0,0.0,0.0,0.0,0.0,0.0,0.0,0.0,0.0,0.0,0.0,0.0,0.0,0.0,0.0,1.5122,1.5889,1.6953,1.8488,1.8735,1.9,1.921,1.862,1.7719,1.6438,0.0,0.0,0.0,0.0,0.0,0.0,0.0,0.0,0.0,0.0,0.0,0.0,0.0,0.0,0.0,0.0,0.0,0.0,0.0,0.0,0.0,0.0,0.0,0.0,0.0,0.0,0.0,0.0,0.0,0.0,0.0,0.0,0.0,0.0,0.0,0.0,0.0,0.0,0.0,-2.8206,-2.8962,0.0,0.0,0.0,0.0,0.0,0.0,0.0,0.0,-3.6621,0.0,0.0,0.0,0.0,0.0,0.0,0.0,0.0,0.0,0.0,0.0,0.0,0.0,0.0,0.0,0.0,0.0,0.0,0.0,0.0,0.0,0.0,0.0,0.0,0.0,0.0,0.0,0.0,0.0,0.0,0.0,0.0,0.0,0.0,0.0,0.0,0.0,0.0,0.0,0.0,0.0,0.0,0.0,0.0,0.0,0.0,0.0,0.0,0.0,0.0,0.0,0.0,0.0,0.0,0.0,1.472,1.5551,1.634,1.7066,1.7423,1.7738,1.8035,1.7463,1.6683,0.0,0.0,0.0,0.0,0.0,0.0,0.0,0.0,0.0,0.0,0.0,0.0,0.0,0.0,0.0,0.0,0.0,0.0,0.0,0.0,0.0,0.0,0.0,0.0,0.0,0.0,0.0,0.0,0.0,0.0,0.0,0.0,0.0,0.0,0.0,0.0,0.0,0.0,0.0,0.0,-2.9296,-3.0567,-3.169,0.0,0.0,0.0,0.0,0.0,0.0,-3.7148,-3.7212,0.0,0.0,0.0,0.0,0.0,0.0,0.0,0.0,0.0,0.0,0.0,0.0,0.0,0.0,0.0,0.0,0.0,0.0,0.0,0.0,0.0,0.0,0.0,0.0,0.0,0.0,0.0,0.0,0.0,0.0,0.0,0.0,0.0,0.0,0.0,0.0,0.0,0.0,0.0,0.0,0.0,0.0,0.0,0.0,0.0,0.0,0.0,0.0,0.0,0.0,0.0,0.0,0.0,0.0,0.0,1.4159,1.4976,1.5501,1.5636,1.5914,1.6319,1.6854,1.6165,1.565,0.0,0.0,0.0,0.0,0.0,0.0,0.0,0.0,0.0,0.0,0.0,0.0,0.0,0.0,0.0,0.0,0.0,0.0,0.0,0.0,0.0,0.0,0.0,0.0,0.0,0.0,0.0,0.0,0.0,0.0,0.0,0.0,0.0,0.0,0.0,0.0,0.0,0.0,0.0,0.0,0.0,-3.1826,-3.3042,-3.3153,0.0,0.0,0.0,0.0,-3.7159,-3.7535,0.0,0.0,0.0,0.0,0.0,0.0,0.0,0.0,0.0,0.0,0.0,0.0,0.0,0.0,0.0,0.0,0.0,0.0,0.0,0.0,0.0,0.0,0.0,0.0,0.0,0.0,0.0,0.0,0.0,0.0,0.0,0.0,0.0,0.0,0.0,0.0,0.0,0.0,0.0,0.0,0.0,0.0,0.0,0.0,0.0,0.0,0.0,0.0,0.0,0.0,0.0,0.0,0.0,0.0,0.0,0.0,1.3933,1.46,1.5094,1.5409,1.5665,1.5741,1.5665,1.5548,1.5033,0.0,0.0,0.0,0.0,0.0,0.0,0.0,0.0,0.0,0.0,0.0,0.0,0.0,0.0,0.0,0.0,0.0,0.0,0.0,0.0,0.0,0.0,0.0,0.0,0.0,0.0,0.0,0.0,0.0,0.0,0.0,0.0,0.0,0.0,0.0,0.0,0.0,0.0,0.0,0.0,0.0,-3.1768,-3.3026,-3.3235,-3.3543,0.0,0.0,-3.7254,-3.8105,-3.8948,0.0,0.0,0.0,0.0,0.0,0.0,0.0,0.0,0.0,0.0,0.0,0.0,0.0,0.0,0.0,0.0,0.0,0.0,0.0,0.0,0.0,0.0,0.0,0.0,0.0,0.0,0.0,0.0,0.0,0.0,0.0,0.0,0.0,0.0,0.0,0.0,0.0,0.0,0.0,0.0,0.0,0.0,0.0,0.0,0.0,0.0,0.0,0.0,0.0,0.0,0.0,0.0,0.0,0.0,0.0,1.3388,1.3944,1.5196,1.5755,1.5423,1.6468,1.6706,1.6139,1.5968,1.5573,0.0,0.0,0.0,0.0,0.0,0.0,0.0,0.0,0.0,0.0,0.0,0.0,0.0,0.0,0.0,0.0,0.0,0.0,0.0,0.0,0.0,0.0,0.0,0.0,0.0,0.0,0.0,0.0,0.0,0.0,0.0,0.0,0.0,0.0,0.0,0.0,0.0,0.0,0.0,0.0,0.0,0.0,-3.4272,-3.5053,0.0,0.0,0.0,-3.8692,-3.9089,0.0,0.0,0.0,0.0,0.0,0.0,0.0,0.0,0.0,0.0,0.0,0.0,0.0,0.0,0.0,0.0,0.0,0.0,0.0,0.0,0.0,0.0,0.0,0.0,0.0,0.0,0.0,0.0,0.0,0.0,0.0,0.0,0.0,0.0,0.0,0.0,0.0,0.0,0.0,0.0,0.0,0.0,0.0,0.0,0.0,0.0,0.0,0.0,0.0,0.0,0.0,0.0,0.0,0.0,0.0,0.0,0.0,1.3881,1.5576,1.6064,1.5423,1.664,1.7033,1.637,1.6197,0.0,0.0,0.0,0.0,0.0,0.0,0.0,0.0,0.0,0.0,0.0,0.0,0.0,0.0,0.0,0.0,0.0,0.0,0.0,0.0,0.0,0.0,0.0,0.0,0.0,0.0,0.0,-1.3274,0.0,0.0,0.0,0.0,0.0,0.0,0.0,0.0,0.0,0.0,0.0,0.0,0.0,0.0,-3.3278,-3.5085,-3.6424,-3.7471,0.0,0.0,-3.968,-3.9711,-3.9942,-3.9766,0.0,0.0,0.0,0.0,0.0,0.0,0.0,0.0,0.0,0.0,0.0,0.0,0.0,0.0,0.0,0.0,0.0,0.0,0.0,0.0,0.0,0.0,0.0,0.0,0.0,0.0,0.0,0.0,0.0,0.0,0.0,0.0,0.0,0.0,0.0,0.0,0.0,0.0,0.0,0.0,0.0,0.0,0.0,0.0,0.0,0.0,0.0,0.0,0.0,0.0,0.0,0.0,0.0,0.0,0.0,1.3971,1.4942,1.5506,1.5431,1.5506,1.559,1.5506,1.5316,1.4975,0.0,0.0,0.0,0.0,0.0,0.0,0.0,0.0,0.0,0.0,0.0,0.0,0.0,0.0,0.0,0.0,0.0,0.0,0.0,0.0,0.0,0.0,0.0,0.0,0.0,0.0,0.0,0.0,0.0,0.0,0.0,0.0,0.0,0.0,0.0,0.0,0.0,0.0,0.0,0.0,0.0,-3.3488,-3.4685,-3.6454,-3.7709,0.0,0.0,-3.9632,-3.9694,-4.0435,-4.0448,-3.8772,0.0,0.0,0.0,0.0,0.0,0.0,0.0,0.0,0.0,0.0,0.0,0.0,0.0,0.0,0.0,0.0,0.0,0.0,0.0,0.0,0.0,0.0,0.0,0.0,0.0,0.0,0.0,0.0,0.0,0.0,0.0,0.0,0.0,0.0,0.0,0.0,0.0,0.0,0.0,0.0,0.0,0.0,0.0,0.0,0.0,0.0,0.0,0.0,0.0,0.0,0.0,0.0,0.0,1.3725,1.3926,1.5323,1.5831,1.5431,1.6468,1.6706,1.6221,1.6043,1.5701,0.0,0.0,0.0,0.0,0.0,0.0,0.0,0.0,0.0,0.0,0.0,0.0,0.0,0.0,0.0,0.0,0.0,0.0,0.0,0.0,0.0,0.0,0.0,0.0,0.0,0.0,0.0,0.0,-1.9218,-2.1269,-2.316,0.0,0.0,0.0,0.0,0.0,0.0,0.0,0.0,0.0,0.0,-3.4548,-3.6649,-3.768,0.0,0.0,-3.9692,-4.0043,-4.0276,-4.0198,-3.9727,-3.8617,-3.7748,0.0,0.0,0.0,0.0,0.0,0.0,0.0,0.0,0.0,0.0,0.0,0.0,0.0,0.0,0.0,0.0,0.0,0.0,0.0,0.0,0.0,0.0,0.0,0.0,0.0,0.0,0.0,0.0,0.0,0.0,0.0,0.0,0.0,0.0,0.0,0.0,0.0,0.0,0.0,0.0,0.0,0.0,0.0,0.0,0.0,0.0,0.0,0.0,0.0,0.0,0.0,0.0,1.3584,1.3829,1.5249,1.5741,1.5173,1.6542,1.687,1.6206,1.6152,1.5905,0.0,0.0,0.0,0.0,0.0,0.0,0.0,0.0,0.0,0.0,0.0,0.0,0.0,0.0,0.0,0.0,0.0,0.0,0.0,0.0,0.0,0.0,0.0,0.0,0.0,0.0,0.0,0.0,-2.0014,-2.192,-2.3395,0.0,0.0,0.0,0.0,0.0,0.0,0.0,0.0,0.0,0.0,-3.5597,-3.7753,-3.8459,-3.9062,-3.9909,-3.9904,-3.9957,-4.0249,-3.9644,-3.8975,-3.849,0.0,0.0,0.0,0.0,0.0,0.0,0.0,0.0,0.0,0.0,0.0,0.0,0.0,0.0,0.0,0.0,0.0,0.0,0.0,0.0,0.0,0.0,0.0,0.0,0.0,0.0,0.0,0.0,0.0,0.0,0.0,0.0,0.0,0.0,0.0,0.0,0.0,0.0,0.0,0.0,0.0,0.0,0.0,0.0,0.0,0.0,0.0,0.0,0.0,0.0,0.0,0.0,0.0,1.3505,1.3514,1.4599,1.4999,1.4734,1.5166,1.534,1.5173,1.5333,1.5255,1.4911,0.0,0.0,0.0,0.0,0.0,0.0,0.0,0.0,0.0,0.0,0.0,0.0,0.0,0.0,0.0,0.0,0.0,0.0,0.0,0.0,0.0,0.0,0.0,0.0,0.0,0.0,-1.8248,-2.0841,-2.2506,0.0,0.0,0.0,0.0,0.0,0.0,0.0,0.0,0.0,0.0,-3.4859,-3.6505,-3.7514,-3.8562,-3.9302,-3.9592,-3.9281,-3.9096,-3.9412,-3.88,-3.8335,0.0,0.0,0.0,0.0,0.0,0.0,0.0,0.0,0.0,0.0,0.0,0.0,0.0,0.0,0.0,0.0,0.0,0.0,0.0,0.0,0.0,0.0,0.0,0.0,0.0,0.0,0.0,1.2699,1.2596,0.0,0.0,0.0,0.0,0.0,0.0,0.0,0.0,0.0,0.0,0.0,1.11,1.0857,0.0,0.0,0.0,0.0,0.0,0.0,0.0,0.0,0.0,0.0,0.0,0.0,1.3608,1.4015,1.4714,1.5082,1.4999,1.509,1.509,1.4824,1.4901,1.4849,1.4698,0.0,0.0,0.0,0.0,0.0,0.0,0.0,0.0,0.0,0.0,0.0,0.0,0.0,0.0,0.0,0.0,0.0,0.0,0.0,0.0,0.0,0.0,0.0,0.0,0.0,-1.6114,0.0,0.0,0.0,0.0,0.0,0.0,0.0,0.0,0.0,0.0,0.0,-3.2755,-3.4258,-3.5778,-3.7075,-3.8016,-3.8111,-3.8432,0.0,0.0,0.0,0.0,0.0,0.0,0.0,0.0,0.0,0.0,0.0,0.0,0.0,0.0,-3.5723,-3.3723,-3.3544,-3.3652,-3.3537,0.0,0.0,0.0,0.0,0.0,0.0,0.0,0.0,0.0,0.0,0.0,0.0,0.0,0.0,0.0,0.0,1.3539,0.0,0.0,0.0,0.0,0.0,0.0,0.0,0.0,1.2388,1.2361,1.211,1.1694,1.1404,0.0,1.0908,1.0852,0.0,0.0,0.0,0.0,0.0,0.0,0.0,0.0,1.3794,1.4244,1.4825,1.5082,1.4999,1.509,1.509,1.4824,1.4915,1.4899,1.4864,1.4187,1.369,0.0,0.0,0.0,0.0,0.0,0.0,0.0,0.0,0.0,0.0,0.0,0.0,0.0,0.0,0.0,0.0,0.0,0.0,0.0,0.0,0.0,0.0,0.0,-1.6838,0.0,0.0,0.0,0.0,0.0,0.0,0.0,0.0,0.0,-3.0045,-3.2469,-3.4479,-3.5332,-3.6466,-3.7525,-3.8263,0.0,0.0,0.0,0.0,0.0,0.0,0.0,-3.7475,-3.8548,-3.8302,-3.8182,-3.8832,-3.873,-3.845,-3.805,0.0,0.0,-3.5867,-3.5325,-3.5138,-3.5064,-3.4739,-3.4438,-3.4243,-3.4081,-3.3974,0.0,0.0,0.0,0.0,0.0,0.0,0.0,0.0,1.3071,1.3386,0.0,1.3535,0.0,0.0,0.0,0.0,0.0,0.0,0.0,0.0,1.3142,1.2875,1.3021,1.2779,1.2566,1.2365,1.2295,1.2724,1.3475,1.2045,0.0,0.0,0.0,0.0,0.0,0.0,1.3985,1.4353,1.4842,1.4999,1.4741,1.5166,1.5257,1.509,1.5257,1.534,1.5333,1.5034,1.4641,1.4245,1.3257,0.0,0.0,0.0,0.0,0.0,0.0,0.0,0.0,0.0,0.0,0.0,0.0,0.0,0.0,0.0,0.0,0.0,0.0,0.0,0.0,-1.5901,0.0,0.0,0.0,0.0,0.0,0.0,0.0,0.0,0.0,0.0,-3.1005,-3.3692,-3.5741,-3.6074,0.0,0.0,0.0,0.0,-3.8649,-3.9208,-3.8926,-3.8683,-3.8861,-3.8336,-3.8253,-3.9306,0.0,0.0,-3.9802,-3.914,-3.8632,-3.858,-3.9013,-3.915,-3.8535,-3.7643,-3.7033,-3.6895,-3.6689,-3.6482,-3.6219,-3.6042,-3.5783,1.4477,0.0,0.0,0.0,0.0,1.2565,1.2839,1.3386,1.4007,1.4136,1.3947,1.441,0.0,0.0,0.0,0.0,0.0,0.0,1.29,1.306,1.2999,1.3137,1.347,1.3056,1.309,1.3497,1.3156,1.345,1.4358,1.394,1.3702,1.3698,0.0,0.0,0.0,0.0,1.4524,1.4712,1.509,1.518,1.4999,1.509,1.509,1.4824,1.4915,1.4999,1.5173,1.4913,1.4632,1.4488,1.3689,0.0,0.0,0.0,0.0,0.0,0.0,0.0,0.0,0.0,0.0,0.0,0.0,0.0,0.0,0.0,0.0,0.0,0.0,0.0,-1.4758,-1.6619,-1.8118,0.0,0.0,0.0,0.0,0.0,0.0,0.0,0.0,0.0,-3.284,-3.4806,-3.6186,0.0,0.0,-3.7613,-3.7969,-3.7935,-3.8192,-3.9133,0.0,0.0,0.0,-3.8336,-3.8204,-3.9325,-4.0159,-4.0695,-4.0726,-4.0526,-4.035,-4.0347,-4.0285,-4.016,-3.9962,-3.9306,-3.872,-3.8595,-3.8361,-3.8136,-3.8053,-3.7871,-3.7619,1.5959,1.4875,1.4144,1.3902,1.3985,1.3768,1.3943,1.45,1.4859,1.4793,1.4566,1.4757,1.4676,1.4302,1.4023,0.0,0.0,0.0,1.3451,1.3562,1.3336,1.3554,1.3983,1.3461,1.3716,1.4568,1.4303,1.4812,1.593,1.576,1.5493,1.5204,0.0,0.0,1.4525,1.4663,1.4844,1.5049,1.5328,1.534,1.5264,1.5264,1.5173,1.4999,1.4992,1.5082,1.5173,1.5082,1.4996,1.4892,1.4247,1.3461,0.0,0.0,0.0,0.0,0.0,0.0,0.0,0.0,0.0,0.0,0.0,0.0815,-0.1048,0.0,0.0,0.0,-0.9927,-1.2824,-1.5528,-1.7158,0.0,0.0,0.0,0.0,0.0,0.0,0.0,-2.8459,-3.0448,-3.2078,-3.3144,-3.4492,-3.5627,-3.6343,-3.6873,-3.7299,-3.7649,0.0,-3.8088,-3.8934,-3.8638,-3.8504,-3.9123,-3.8918,-3.8963,-3.9687,-4.048,-4.0987,-4.0968,-4.128,-4.1561,-4.1601,-4.1706,-4.1824,-4.1805,-4.1376,-4.0816,-4.0239,-4.0207,-4.0252,-4.0202,-3.9993,-3.9708,1.7075,1.6923,1.5459,1.5034,1.5198,1.5043,1.5295,1.5991,1.5444,1.5425,1.5576,1.4852,1.4892,1.5491,1.4872,0.0,0.0,1.3678,1.4025,1.4977,1.4021,1.387,1.4495,1.387,1.4315,1.5651,1.5658,1.636,1.7676,1.7319,1.7072,1.7041,1.5982,1.5322,1.4984,1.4984,1.5153,1.5416,1.5431,1.5431,1.5431,1.5431,1.5431,1.5431,1.5431,1.5431,1.5431,1.5431,1.5431,1.5423,1.4892,1.4349,1.3629,0.0,0.0,0.0,0.0,0.0,0.0,0.0,0.0,0.0,0.0,0.0,0.0,0.0,0.0,0.0,-1.1215,0.0,-1.5576,-1.762,0.0,0.0,0.0,-2.328,-2.5849,-2.6565,-2.7637,-2.9788,0.0,0.0,0.0,0.0,-3.4512,-3.5888,-3.6468,-3.6878,-3.7301,-3.7844,-3.8281,-3.867,-3.9154,-3.9464,-3.9552,-3.9876,-4.0234,-4.043,-4.0784,-4.114,-4.1119,-4.1753,-4.235,-4.2396,-4.3125,-4.3619,-4.359,-4.3494,-4.3275,-4.186,-4.2048,-4.247,-4.2262,-4.2001,-4.1683,1.7198,1.7154,1.687,1.6528,1.6297,1.6117,1.5987,1.602,1.5853,1.5736,1.5641,1.5476,1.5399,1.5315,1.4998,1.4744,1.4467,1.4356,1.4333,1.4487,1.4032,1.4147,1.4771,1.4405,1.5026,1.6374,1.5828,1.6352,1.7684,1.7167,1.6903,1.7064,1.7008,1.6513,1.5749,1.5834,1.576,1.5431,1.5431,1.5431,1.5431,1.5431,1.5431,1.5431,1.5431,1.5431,1.5431,1.5431,1.5431,1.5431,1.5101,1.475,1.4188,1.2577,0.0,0.0,0.0,0.0,0.0,0.0,0.0,0.0,0.0,0.123,-0.0963,0.0,-0.4099,0.0,-1.1063,-1.4698,-1.776,-1.8524,0.0,0.0,-2.3585,-2.4747,-2.5582,-2.7888,-2.964,-3.0167,-3.1643,-3.2776,-3.3149,-3.3515,-3.4134,-3.5021,-3.5795,-3.651,-3.7152,-3.7895,-3.846,-3.8615,-3.8961,-3.9294,-3.965,-4.0513,-4.1222,-4.1412,-4.2105,-4.2695,-4.2798,-4.3074,-4.329,-4.3275,-4.3489,-4.3688,-4.3722,-4.4175,-4.4484,-4.4015,-4.3504,-4.3033,-4.2973,-4.2756,-4.2474,1.7707,1.7963,1.7512,1.7398,1.7596,1.7063,1.6708,1.6617,1.6472,1.6325,1.6221,1.6255,1.5835,1.5218,1.5486,1.5218,1.4694,1.5174,1.5046,1.4337,1.472,1.487,1.46,1.4501,1.5055,1.6064,1.6064,1.6428,1.7244,1.707,1.707,1.7153,1.7349,1.7183,1.6683,1.6391,1.6107,1.5831,1.5676,1.5643,1.565,1.5643,1.5493,1.5264,1.5173,1.4999,1.4915,1.4838,1.4838,1.4831,1.4741,1.4406,1.3732,1.2382,1.0935,0.0,0.0,0.0,0.0,0.0,0.0,0.0,0.0,0.0,0.0,0.0,-0.5069,0.0,-1.2149,-1.5343,-1.8638,-1.9291,-2.0737,-2.3589,-2.4835,-2.5909,-2.7023,-2.8912,-3.0352,-3.0869,-3.1946,-3.2742,-3.2926,-3.323,-3.3713,-3.4382,-3.5391,-3.6336,-3.6981,-3.765,-3.815,-3.8382,-3.8983,-3.9742,-4.0471,-4.1383,-4.2049,-4.2216,-4.2745,-4.3201,-4.3324,-4.3773,-4.4082,-4.4109,-4.4445,-4.4776,-4.4796,-4.5156,-4.5504,-4.5392,-4.4935,-4.4521,-4.4416,-4.4141,-4.3905,1.8265,1.8696,1.7963,1.8149,1.888,1.8064,1.7505,1.7311,1.704,1.6916,1.6894,1.6967,1.6306,1.5258,1.5859,1.5673,1.4896,1.5867,1.5715,1.472,1.5685,1.5609,1.4675,1.4586,1.4956,1.5717,1.6298,1.6683,1.677,1.7044,1.7232,1.7138,1.7232,1.7279,1.7349,1.6668,1.6335,1.6347,1.6033,1.5893,1.5886,1.5763,1.5519,1.4993,1.4678,1.4489,1.4314,1.4075,1.399,1.3977,1.3886,1.3542,1.2942,1.1728,1.0396,0.0,0.7161,0.0,0.0,0.0,0.0,0.0,0.0,0.0,0.0,-0.4008,-0.7092,-1.1552,-1.3756,-1.6062,-1.877,-2.011,-2.2018,-2.4862,-2.5787,-2.6992,-2.8884,-2.9771,-3.0585,-3.161,-3.212,-3.2398,-3.2547,-3.2895,-3.3407,-3.4282,-3.5354,-3.6379,-3.7101,-3.7642,-3.8007,-3.8269,-3.9268,-4.0496,-4.1509,-4.2304,-4.2787,-4.2868,-4.3215,-4.3371,-4.3512,-4.424,-4.4822,-4.4919,-4.546,-4.5986,-4.6084,-4.6097,-4.6156,-4.6143,-4.6015,-4.5933,-4.581,-4.5544,-4.5478,1.8904,1.8888,1.9422,1.9778,1.9869,1.9695,1.878,1.7326,1.726,1.7159,1.6973,1.6815,1.6413,1.596,1.5946,1.5759,1.5564,1.5812,1.6028,1.6129,1.617,1.6285,1.6473,1.6292,1.6574,1.7217,1.6763,1.6958,1.7505,1.6958,1.6676,1.6386,1.6581,1.6619,1.6507,0.0,0.0,0.0,1.6089,1.5846,1.5655,1.5081,1.4663,1.4336,1.4018,0.0,1.3561,1.3307,1.3215,1.3209,1.2851,0.0,0.0,0.0,0.0,0.0,0.0,0.0,0.0,0.0,0.0,0.0,-0.1355,-0.2654,-0.3783,-0.6743,-0.9904,-1.2845,-1.4968,-1.721,-1.9606,-2.1676,-2.357,-2.5358,-2.7085,-2.8309,-2.8834,-3.0271,-3.1495,-3.1682,-3.212,-3.2602,-3.2996,-3.313,-3.3838,-3.5333,-3.5873,-3.6763,-3.8454,-3.8806,-3.8905,-3.8816,-4.0105,-4.1204,-4.1537,-4.2693,-4.351,-4.3721,-4.4338,-4.4806,-4.5004,-4.5225,-4.5544,-4.5607,-4.5852,-4.6025,-4.6006,-4.6072,-4.6123,-4.6192,-4.6184,-4.6152,-4.6078,-4.5927,-4.5794,1.8627,0.0,1.878,1.9055,0.0,1.8964,1.8511,1.8056,1.8511,1.8603,1.8434,1.8156,1.787,1.7591,1.685,1.6574,1.6574,1.6574,1.6298,1.5927,1.6567,1.6655,1.619,1.648,1.677,1.7138,1.7138,1.6951,1.6567,1.6581,1.6292,1.5818,1.5724,1.5798,1.5954,1.5832,1.5807,1.5875,1.5234,1.4871,1.4676,1.4366,1.3962,1.357,0.0,0.0,0.0,0.0,0.0,0.0,0.0,0.0,0.0,0.0,0.0,0.7144,0.5693,0.4244,0.2893,0.2112,0.0763,-0.1297,-0.4094,-0.5866,-0.6303,-0.8545,-1.1031,-1.36,-1.5245,-1.7332,-2.0275,-2.1642,-2.329,-2.5824,-2.7365,-2.8465,-2.9129,-3.051,-3.1644,-3.2045,-3.2762,-3.3466,-3.4085,-3.4759,-3.5424,-3.6323,-3.6848,-3.7458,-3.8315,-3.8966,-3.9435,-4.0073,-4.1042,-4.2057,-4.263,-4.3362,-4.4178,-4.4513,-4.4906,-4.5263,-4.5563,-4.5645,-4.5708,-4.5822,-4.5871,-4.5897,-4.5928,-4.5978,-4.6056,-4.6099,-4.6156,-4.6183,-4.615,-4.6069,-4.5986,1.8257,1.8703,1.8056,1.8241,1.8972,1.8149,1.8334,1.9063,0.0,0.0,0.0,1.9621,1.9338,1.8956,1.7785,1.7333,1.7333,1.7131,1.6393,1.5458,1.6857,1.6943,1.5906,1.6386,1.6777,1.6958,1.7326,1.685,1.5629,1.6109,1.6015,1.5248,1.4765,1.4949,1.5419,1.493,1.4621,1.4596,1.4123,1.3749,1.3555,1.3421,1.3025,1.2459,1.1477,1.1181,1.166,1.0749,1.0111,1.0111,0.9855,0.913,0.7944,0.748,0.6714,0.548,0.4799,0.3676,0.209,0.1396,-0.0176,-0.3301,-0.6577,-0.8607,-0.8777,-1.0159,-1.1952,-1.435,-1.5613,-1.7705,-2.07,-2.1466,-2.2944,-2.6239,-2.7268,-2.8343,-2.9631,-3.0783,-3.1753,-3.2542,-3.3453,-3.4359,-3.5102,-3.6039,-3.7017,-3.7252,-3.7814,-3.847,-3.8397,-3.9103,-4.0046,-4.152,-4.226,-4.2848,-4.3658,-4.4214,-4.4643,-4.4985,-4.5109,-4.5258,-4.5475,-4.5543,-4.561,-4.5786,-4.58,-4.5814,-4.5814,-4.5886,-4.5969,-4.5988,-4.6095,-4.617,-4.6162,-4.6126,-4.6117,1.8904,1.888,1.9513,1.9869,1.9968,1.9869,1.9869,1.9968,2.0141,1.9968,1.953,1.9538,1.9255,1.8788,1.7785,1.7333,1.7239,1.6386,1.6116,0.0,1.6683,1.7145,1.7699,1.7232,1.7512,1.8365,1.7333,1.6676,1.6393,1.5818,1.5146,1.458,1.4394,1.4388,1.4388,1.3624,1.2721,1.2088,1.3239,1.3431,1.2555,1.1903,1.1034,1.0139,0.9703,0.9431,0.9343,0.895,0.8567,0.8095,0.7709,0.6894,0.5676,0.5204,0.4531,0.3655,0.2756,0.2136,0.1786,-0.0089,-0.2583,-0.5351,-0.7467,-0.8956,-0.9986,-1.2128,-1.4015,-1.547,-1.7552,-1.9427,-2.0787,-2.2563,-2.4238,-2.591,-2.7245,-2.8664,-3.0319,-3.1395,-3.2434,-3.3457,-3.3772,-3.4434,-3.549,-3.5892,-3.6743,-3.795,-3.8572,-3.9086,-4.0216,-4.0473,-4.0991,-4.2352,-4.3275,-4.3706,-4.3906,-4.4448,-4.4777,-4.4919,-4.4943,-4.5084,-4.5381,-4.5457,-4.5528,-4.5752,-4.58,-4.58,-4.58,-4.5819,-4.5877,-4.5949,-4.6028,-4.605,-4.6122,-4.6137,-4.62,1.8064,1.8064,1.8419,1.8596,1.8688,1.9239,1.933,1.9247,1.9786,2.0249,2.052,2.0808,2.0529,1.9695,1.8603,1.7785,1.7232,1.6298,1.592,1.6015,1.6292,1.6574,1.6864,1.6763,1.7044,1.752,1.6965,1.64,1.5913,1.5534,1.5051,1.4292,1.4016,1.363,1.3039,1.216,1.1477,1.089,1.1468,1.1361,1.0471,1.0108,0.9676,0.9186,0.8624,0.8494,0.8783,0.7637,0.6926,0.664,0.5813,0.4906,0.3933,0.3745,0.3267,0.2407,0.2038,0.1391,0.0649,-0.185,-0.443,-0.6998,-0.8812,-1.0597,-1.2539,-1.35,-1.4755,-1.6453,-1.8571,-2.0353,-2.1878,-2.37,-2.5308,-2.6649,-2.7991,-2.9428,-3.0834,-3.1775,-3.2747,-3.4027,-3.4577,-3.5282,-3.6603,-3.7086,-3.7677,-3.8918,-3.9277,-4.001,-4.1313,-4.1349,-4.1606,-4.2678,-4.3178,-4.3508,-4.3818,-4.4125,-4.4484,-4.4802,-4.4895,-4.5042,-4.5341,-4.54,-4.551,-4.5737,-4.58,-4.58,-4.58,-4.58,-4.5819,-4.5858,-4.5955,-4.6022,-4.605,-4.6093,-4.6171,1.7443,1.7435,1.7355,1.7333,1.7326,1.8056,1.8249,1.8156,1.8972,1.9795,2.052,2.1356,2.1347,2.0421,1.9338,1.8241,1.7232,1.6298,1.5737,1.554,1.5913,1.5913,1.5825,1.6109,1.6298,1.6494,1.6298,1.5724,1.514,1.4854,1.4376,1.3613,1.3238,1.2554,1.1678,1.0984,1.0395,0.9916,0.962,0.9225,0.8627,0.8528,0.8428,0.8226,0.7428,0.7229,0.7723,0.6139,0.5112,0.5012,0.4069,0.3168,0.2394,0.2489,0.2199,0.1524,0.1142,0.019,-0.1617,-0.3705,-0.5973,-0.8128,-0.989,-1.1909,-1.4135,-1.4656,-1.5495,-1.7516,-1.9395,-2.1173,-2.2827,-2.4412,-2.5995,-2.7385,-2.8656,-2.9974,-3.1383,-3.2188,-3.3129,-3.4465,-3.5324,-3.6222,-3.7313,-3.8206,-3.8783,-3.942,-4.0054,-4.0689,-4.1516,-4.1881,-4.2292,-4.2673,-4.2976,-4.3301,-4.3818,-4.4065,-4.4346,-4.4802,-4.4846,-4.4929,-4.5159,-4.5282,-4.5438,-4.5642,-4.5766,-4.58,-4.58,-4.58,-4.58,-4.5819,-4.5877,-4.5969,-4.6002,-4.6042,-4.6118,1.7772,1.7721,1.7465,1.7333,1.7333,1.7246,1.716,1.7254,1.7699,1.7963,1.8334,1.996,2.0512,2.0249,1.9247,1.8241,1.7232,1.6298,1.5635,1.554,1.554,1.5635,1.573,1.5166,1.5452,1.6298,1.5153,1.4376,1.4076,1.3307,1.2436,1.156,1.1468,1.117,1.0587,1.0194,0.9513,0.8237,0.7932,0.7932,0.8038,0.7832,0.7329,0.6634,0.5634,0.5035,0.5233,0.4021,0.3215,0.2715,0.2608,0.199,0.0883,0.1273,0.1263,0.0478,-0.0666,-0.2657,-0.5223,-0.5881,-0.6929,-0.8889,-1.0292,-1.1935,-1.4013,-1.575,-1.7392,-1.8914,-2.069,-2.2043,-2.3031,-2.4568,-2.61,-2.7407,-2.8697,-3.0112,-3.1916,-3.279,-3.3722,-3.524,-3.5917,-3.6584,-3.7338,-3.8051,-3.8832,-3.9868,-4.0368,-4.0926,-4.1666,-4.2103,-4.2409,-4.2709,-4.3195,-4.3623,-4.3849,-4.4402,-4.4602,-4.4693,-4.4719,-4.4758,-4.4868,-4.5074,-4.5283,-4.5491,-4.5658,-4.5786,-4.5786,-4.58,-4.58,-4.58,-4.5819,-4.5858,-4.5969,-4.599,-4.6037,1.8101,1.8072,1.775,1.7501,1.7254,1.7066,1.6878,1.6777,1.677,1.7052,1.7505,1.8326,1.8603,1.8519,1.8056,1.7318,1.6204,1.5832,1.5452,1.5261,1.507,1.507,1.507,1.4688,1.4771,1.5057,1.3998,1.3307,1.3017,1.2242,1.156,1.1268,1.117,1.0867,1.0168,0.9592,0.8814,0.8028,0.6631,0.6032,0.6334,0.6734,0.6437,0.5536,0.5033,0.4433,0.3828,0.282,0.2117,0.1917,0.1312,0.0704,0.02,-0.01,-0.0497,-0.1085,-0.246,-0.4126,-0.5989,-0.6787,-0.815,-1.0254,-1.1936,-1.38,-1.5943,-1.753,-1.8897,-2.021,-2.1589,-2.2965,-2.421,-2.5705,-2.7006,-2.7992,-2.9378,-3.0957,-3.2164,-3.3224,-3.4327,-3.5359,-3.6022,-3.6677,-3.737,-3.8254,-3.9279,-4.0203,-4.0707,-4.1065,-4.1899,-4.2246,-4.245,-4.2691,-4.3195,-4.3523,-4.3689,-4.4023,-4.4374,-4.4551,-4.4578,-4.4613,-4.477,-4.4896,-4.5077,-4.5342,-4.5526,-4.5642,-4.5677,-4.5771,-4.58,-4.58,-4.58,-4.5819,-4.5858,-4.5877,-4.5929,1.843,1.8379,1.8086,1.7661,1.7283,1.7101,1.6767,1.6501,1.6218,1.64,1.6857,1.6864,1.6864,1.6951,1.7131,1.6567,1.5635,1.5452,1.5261,1.5083,1.479,1.4688,1.4586,1.44,1.41,1.3806,1.3119,1.2436,1.1853,1.0779,1.0293,1.0293,1.0293,0.9882,0.9076,0.8301,0.7614,0.6819,0.5231,0.4531,0.4728,0.4924,0.4826,0.4331,0.4029,0.3525,0.2821,0.1714,0.1109,0.111,0.0101,-0.0404,-0.0505,-0.1412,-0.2318,-0.292,-0.4225,-0.5625,-0.6825,-0.8041,-0.9529,-1.1463,-1.2984,-1.4791,-1.68,-1.8126,-1.9239,-2.0576,-2.177,-2.3031,-2.4586,-2.6058,-2.7221,-2.781,-2.9576,-3.1066,-3.2024,-3.3199,-3.4327,-3.5344,-3.6022,-3.6723,-3.7605,-3.8606,-3.9592,-4.0563,-4.0802,-4.1157,-4.2002,-4.2287,-4.2369,-4.2555,-4.3032,-4.3406,-4.3557,-4.3949,-4.4218,-4.4325,-4.4458,-4.4477,-4.4669,-4.4701,-4.4781,-4.4969,-4.5246,-4.5454,-4.5524,-4.5626,-4.5737,-4.5786,-4.58,-4.58,-4.5819,-4.58,-4.5858,1.876,1.8716,1.8408,1.7905,1.7423,1.7119,1.6766,1.6252,1.5933,1.5825,1.592,1.592,1.592,1.592,1.6466,1.6473,1.5825,1.5363,1.5172,1.5077,1.479,1.4592,1.4298,1.4298,1.3709,1.2829,1.2533,1.1556,0.9805,0.8726,0.8137,0.8134,0.8233,0.7624,0.6705,0.6418,0.5522,0.452,0.3823,0.3525,0.3122,0.2311,0.2211,0.2819,0.2217,0.1713,0.1411,0.0605,0.0,0.0,-0.1009,-0.1513,-0.1613,-0.2518,-0.3725,-0.4926,-0.6121,-0.7415,-0.8814,-1.0002,-1.1175,-1.2339,-1.2909,-1.3782,-1.5792,-1.7008,-1.8211,-1.9761,-2.0828,-2.1906,-2.3424,-2.4946,-2.613,-2.6905,-2.8493,-3.005,-3.1389,-3.2636,-3.3905,-3.5133,-3.5958,-3.6829,-3.8051,-3.8843,-3.9627,-4.0417,-4.0754,-4.1128,-4.1941,-4.2228,-4.2269,-4.2472,-4.2844,-4.3356,-4.3726,-4.403,-4.4266,-4.4325,-4.4266,-4.4266,-4.4229,-4.4279,-4.4438,-4.4606,-4.4839,-4.5084,-4.5304,-4.549,-4.5594,-4.5692,-4.5786,-4.58,-4.58,-4.58,-4.5838,1.8972,1.8782,1.847,1.8139,1.764,1.7148,1.6704,1.6498,1.6007,1.5825,1.5825,1.5825,1.5452,1.4873,1.4949,1.5242,1.5547,1.5452,1.5172,1.4885,1.4688,1.4202,1.3312,1.3318,1.2732,1.1755,1.1072,0.9998,0.8726,0.8137,0.7637,0.7036,0.6939,0.6321,0.5302,0.5018,0.4632,0.3934,0.2417,0.1509,0.1308,-0.0503,-0.1207,-0.0905,-0.0603,-0.0804,-0.1511,-0.1813,-0.2017,-0.2016,-0.2418,-0.262,-0.282,-0.432,-0.5717,-0.6924,-0.811,-0.9103,-0.9805,-1.0984,-1.1965,-1.2533,-1.3951,-1.4816,-1.5785,-1.6727,-1.7848,-1.8964,-1.9422,-2.0593,-2.2463,-2.3932,-2.5147,-2.6257,-2.806,-2.9424,-3.0364,-3.2109,-3.3851,-3.4595,-3.5578,-3.6906,-3.7879,-3.8518,-3.9049,-4.0036,-4.0302,-4.0767,-4.1516,-4.1813,-4.1941,-4.2494,-4.2938,-4.3286,-4.3612,-4.3955,-4.4177,-4.4147,-4.4116,-4.4177,-4.4188,-4.4218,-4.4383,-4.4448,-4.4606,-4.4762,-4.4995,-4.5285,-4.5417,-4.5577,-4.5692,-4.5771,-4.58,-4.58,-4.5819,1.9155,1.8862,1.865,1.8259,1.7746,1.7147,1.6765,1.6551,1.6054,1.5642,1.535,1.535,1.4771,1.3902,1.3607,1.3896,1.4573,1.4382,1.4196,1.3811,1.3715,1.3119,1.2339,1.2242,1.1663,1.0685,0.9608,0.8726,0.8038,0.8038,0.7437,0.6434,0.6437,0.562,0.4305,0.4019,0.3731,0.2829,0.1109,0.0101,-0.0302,-0.2215,-0.3525,-0.3525,-0.3217,-0.3016,-0.3225,-0.3225,-0.3225,-0.3224,-0.3525,-0.3927,-0.4325,-0.5919,-0.7214,-0.8018,-0.9501,-1.0391,-1.0685,-1.1868,-1.2657,-1.2743,-1.4058,-1.5114,-1.5134,-1.6075,-1.7102,-1.7948,-1.8696,-1.9695,-2.1587,-2.2999,-2.4135,-2.5684,-2.7579,-2.888,-2.9489,-3.1847,-3.3492,-3.4394,-3.5449,-3.6569,-3.7456,-3.7921,-3.8635,-3.9612,-3.9817,-4.0383,-4.1248,-4.1534,-4.1753,-4.2436,-4.2806,-4.3087,-4.3408,-4.3697,-4.4005,-4.4005,-4.4036,-4.4116,-4.4147,-4.4195,-4.4237,-4.4335,-4.4412,-4.4511,-4.4732,-4.5058,-4.5285,-4.5455,-4.5613,-4.5712,-4.5742,-4.5786,-4.5805,1.9168,1.8952,1.8869,1.8358,1.7654,1.725,1.6751,1.639,1.589,1.5191,1.4592,1.4292,1.3709,1.2829,1.263,1.2727,1.2538,1.2257,1.216,1.2247,1.1955,1.1658,1.1175,1.117,1.0583,0.9608,0.8528,0.8038,0.7839,0.7739,0.7238,0.6437,0.6034,0.5024,0.321,0.3119,0.252,0.1312,0.0101,-0.0605,-0.1008,-0.3022,-0.4232,-0.4531,-0.5233,-0.4933,-0.3426,-0.3425,-0.3525,-0.3525,-0.4331,-0.5336,-0.6134,-0.7325,-0.8021,-0.8418,-1.0092,-1.1268,-1.1663,-1.2452,-1.3147,-1.334,-1.3534,-1.3727,-1.3913,-1.4752,-1.5778,-1.6901,-1.8025,-1.943,-2.097,-2.2129,-2.3337,-2.54,-2.6789,-2.814,-2.9591,-3.1523,-3.3255,-3.4491,-3.54,-3.5928,-3.6415,-3.71,-3.8044,-3.8875,-3.9456,-4.0136,-4.1047,-4.1293,-4.1666,-4.2169,-4.2573,-4.2902,-4.316,-4.3426,-4.3697,-4.3892,-4.3974,-4.4055,-4.4055,-4.4085,-4.4085,-4.4158,-4.4158,-4.425,-4.4503,-4.4825,-4.5077,-4.5264,-4.5436,-4.5629,-4.5727,-4.5771,-4.5786,1.8974,1.8869,1.845,1.8178,1.7845,1.7346,1.6941,1.6447,1.5471,1.4758,1.422,1.3511,1.2635,1.1853,1.1658,1.1272,1.0596,1.0314,1.0797,1.176,1.1663,1.0974,1.0194,1.0096,0.9509,0.863,0.8134,0.764,0.7036,0.6936,0.6034,0.4528,0.4228,0.3423,0.2217,0.2017,0.1514,0.0403,-0.0907,-0.1913,-0.2719,-0.4228,-0.5133,-0.5233,-0.5739,-0.5639,-0.5236,-0.5331,-0.5432,-0.5331,-0.5734,-0.6037,-0.6634,-0.812,-0.9011,-0.9308,-1.1082,-1.2365,-1.2462,-1.2856,-1.3147,-1.3244,-1.3346,-1.3443,-1.3448,-1.3817,-1.4663,-1.5778,-1.6901,-1.8295,-2.0042,-2.1676,-2.2824,-2.4079,-2.5986,-2.7452,-2.8536,-3.0667,-3.2621,-3.3782,-3.4691,-3.535,-3.5849,-3.6492,-3.7084,-3.8117,-3.8596,-3.9159,-4.0169,-4.075,-4.1202,-4.1666,-4.2157,-4.2616,-4.2846,-4.3124,-4.3495,-4.3763,-4.386,-4.4005,-4.4005,-4.4005,-4.4005,-4.4005,-4.4005,-4.4097,-4.4327,-4.4557,-4.4819,-4.5077,-4.5304,-4.5509,-4.5692,-4.5757,-4.5771,1.8966,1.8646,1.8331,1.801,1.7752,1.6852,1.6374,1.5946,1.4592,1.3659,1.3044,1.2436,1.1565,1.0788,1.0592,1.0207,0.9628,0.9335,0.9817,1.0788,1.0587,0.9899,0.9118,0.9019,0.8726,0.8134,0.8038,0.7437,0.6437,0.6337,0.5331,0.3525,0.3225,0.2723,0.1717,0.1516,0.1111,0.0,-0.1209,-0.2417,-0.3425,-0.4632,-0.5336,-0.5436,-0.5639,-0.5842,-0.5942,-0.6139,-0.6337,-0.6337,-0.6437,-0.6437,-0.6534,-0.8319,-0.9406,-0.9505,-1.1184,-1.2662,-1.236,-1.2657,-1.2953,-1.305,-1.3152,-1.3249,-1.3249,-1.3249,-1.3908,-1.5032,-1.6062,-1.7282,-1.8948,-2.0494,-2.1774,-2.2775,-2.5473,-2.736,-2.8469,-3.0379,-3.2177,-3.3129,-3.3934,-3.461,-3.5219,-3.5706,-3.615,-3.71,-3.7531,-3.8019,-3.9036,-3.9767,-4.0314,-4.0949,-4.1613,-4.2038,-4.2382,-4.279,-4.3267,-4.3511,-4.3763,-4.391,-4.4005,-4.4005,-4.4005,-4.4005,-4.4005,-4.4005,-4.4199,-4.4345,-4.4576,-4.4868,-4.5161,-4.5304,-4.5454,-4.5645,-4.5712,1.8736,1.8213,1.8206,1.7681,1.7088,1.5772,1.5137,1.4803,1.338,1.2186,1.1473,1.1175,1.0596,0.9821,0.9821,0.9723,0.9529,0.9335,0.9236,0.9229,0.8829,0.8333,0.8233,0.8237,0.8038,0.7839,0.7739,0.7135,0.5934,0.5834,0.5131,0.3224,0.2923,0.2622,0.1717,0.1516,0.0807,-0.0202,-0.131,-0.2318,-0.3426,-0.4331,-0.4935,-0.514,-0.524,-0.5441,-0.5842,-0.6039,-0.6139,-0.6337,-0.6437,-0.6437,-0.6734,-0.8421,-0.9011,-0.8315,-1.0979,-1.1668,-1.157,-1.2063,-1.2565,-1.2559,-1.2759,-1.2759,-1.2856,-1.305,-1.3426,-1.437,-1.5419,-1.6466,-1.7677,-1.9055,-2.0512,-2.2101,-2.5104,-2.7832,-3.019,-3.0732,-3.1609,-3.2635,-3.3143,-3.3506,-3.452,-3.5073,-3.5578,-3.6072,-3.6631,-3.7231,-3.7939,-3.8646,-3.9182,-3.9951,-4.0804,-4.1446,-4.1853,-4.2382,-4.281,-4.3196,-4.3477,-4.3697,-4.391,-4.3942,-4.4005,-4.4005,-4.4005,-4.4005,-4.4036,-4.4218,-4.4374,-4.4662,-4.4891,-4.5052,-4.5264,-4.5491,-4.5629,1.714,1.6187,1.5755,1.5535,1.5287,1.456,1.4115,1.3722,1.2425,1.1594,1.1105,1.0306,0.9916,0.9624,0.9624,0.9624,0.9529,0.9331,0.9137,0.9038,0.8035,0.7935,0.8134,0.8038,0.7537,0.6936,0.6736,0.5832,0.4126,0.4227,0.3426,0.212,0.212,0.1918,0.1516,0.0908,-0.0101,-0.1208,-0.2215,-0.3224,-0.4128,-0.4531,-0.4834,-0.4935,-0.5037,-0.5338,-0.5739,-0.6137,-0.6337,-0.6437,-0.6437,-0.6437,-0.6537,-0.7723,-0.8319,-0.8315,-0.9406,-1.0395,-1.0293,-1.0979,-1.157,-1.1668,-1.236,-1.2759,-1.2759,-1.2856,-1.3044,-1.3619,-1.4478,-1.5419,-1.6553,-1.8025,-2.018,-2.3085,-2.543,-2.7533,-2.8978,-3.0203,-3.1119,-3.1549,-3.2492,-3.3143,-3.3728,-3.4288,-3.4957,-3.5514,-3.5882,-3.6306,-3.6977,-3.771,-3.83,-3.9076,-3.9918,-4.0728,-4.1358,-4.1853,-4.2324,-4.277,-4.3124,-4.3426,-4.3664,-4.3846,-4.3942,-4.4005,-4.4005,-4.4005,-4.4005,-4.4067,-4.4288,-4.4541,-4.4707,-4.4868,-4.5201,-4.5438,-4.551,1.6074,1.5339,1.4905,1.4629,1.44,1.3435,1.29,1.2476,1.1358,1.0712,1.0417,0.992,0.9624,0.9624,0.9624,0.9624,0.9529,0.943,0.9335,0.913,0.8031,0.7332,0.7132,0.6833,0.6434,0.5829,0.5732,0.4828,0.3525,0.3225,0.2622,0.1818,0.1617,0.1617,0.1617,0.101,0.0101,-0.0907,-0.2015,-0.3022,-0.4028,-0.4632,-0.4834,-0.4834,-0.4935,-0.5138,-0.5436,-0.5937,-0.6239,-0.6337,-0.6437,-0.6437,-0.6537,-0.7428,-0.7826,-0.7528,-0.8718,-0.9509,-0.9213,-0.9895,-1.0681,-1.117,-1.1863,-1.236,-1.2662,-1.2759,-1.2861,-1.305,-1.3806,-1.4561,-1.5412,-1.708,-1.962,-2.2114,-2.4544,-2.6509,-2.8199,-2.9291,-3.0139,-3.0882,-3.1623,-3.255,-3.3073,-3.3604,-3.4221,-3.4876,-3.5169,-3.5529,-3.6056,-3.6736,-3.7361,-3.8109,-3.8933,-3.9699,-4.0377,-4.0897,-4.1595,-4.208,-4.2655,-4.3014,-4.3267,-4.3579,-4.3744,-4.386,-4.3942,-4.4005,-4.4005,-4.4036,-4.4218,-4.4402,-4.4549,-4.4764,-4.5113,-4.5282,-4.5362,1.5423,1.4978,1.4759,1.4406,1.3645,1.2378,1.1573,1.1185,1.0211,0.9735,0.9723,0.9624,0.9624,0.9624,0.9624,0.9624,0.9624,0.9529,0.9229,0.8726,0.773,0.6628,0.5129,0.5429,0.5229,0.4826,0.4624,0.3924,0.3124,0.2923,0.2521,0.1818,0.1617,0.1617,0.1516,0.1313,0.0908,-0.0202,-0.1512,-0.2519,-0.3425,-0.423,-0.4734,-0.4834,-0.4935,-0.5037,-0.5238,-0.5641,-0.6037,-0.6334,-0.6337,-0.6437,-0.6537,-0.7329,-0.7329,-0.6933,-0.7925,-0.8616,-0.8223,-0.8814,-0.9797,-1.048,-1.0974,-1.1565,-1.236,-1.2662,-1.2764,-1.2856,-1.3431,-1.3908,-1.4663,-1.6518,-1.8732,-2.0899,-2.2737,-2.5135,-2.7348,-2.8291,-2.8978,-3.0367,-3.067,-3.1536,-3.242,-3.3157,-3.3506,-3.4138,-3.4505,-3.4986,-3.5299,-3.5755,-3.6306,-3.6737,-3.77,-3.8679,-3.932,-3.9918,-4.0668,-4.1393,-4.2056,-4.248,-4.277,-4.3051,-4.3406,-4.3594,-4.3744,-4.391,-4.4005,-4.4097,-4.4188,-4.4335,-4.4532,-4.4777,-4.5019,-4.5087,-4.5175,1.3848,1.2728,1.2302,1.1967,1.1553,1.0736,1.0327,1.0268,0.9797,0.9624,0.9624,0.9624,0.9624,0.9624,0.9624,0.9624,0.9628,0.9426,0.8821,0.7123,0.6921,0.5327,0.4128,0.4529,0.4628,0.4028,0.3624,0.3024,0.2221,0.2019,0.1818,0.1616,0.1617,0.1617,0.1516,0.0908,0.0303,-0.0303,-0.1814,-0.262,-0.3021,-0.4028,-0.4632,-0.4734,-0.4935,-0.5138,-0.524,-0.5539,-0.5737,-0.5837,-0.6137,-0.6337,-0.6437,-0.6634,-0.6634,-0.6634,-0.6736,-0.7033,-0.703,-0.7723,-0.8418,-0.8909,-1.0284,-1.1268,-1.1468,-1.2365,-1.2759,-1.2759,-1.2953,-1.3528,-1.4765,-1.6532,-1.8295,-1.9943,-2.1649,-2.3481,-2.5273,-2.6719,-2.7867,-2.89,-2.9576,-3.0316,-3.1328,-3.2563,-3.3003,-3.3451,-3.3962,-3.4481,-3.475,-3.4935,-3.5444,-3.6006,-3.6646,-3.77,-3.8349,-3.9056,-3.9968,-4.0703,-4.1348,-4.199,-4.2262,-4.258,-4.2904,-4.3283,-4.3612,-4.3712,-4.3777,-4.3955,-4.4048,-4.4277,-4.4496,-4.4719,-4.487,-4.4943,-4.5014,1.261,1.1887,1.1572,1.1141,1.0758,1.0336,0.9944,0.9762,0.9673,0.9624,0.9624,0.9624,0.9624,0.9624,0.9624,0.9624,0.9426,0.9027,0.8322,0.7123,0.6226,0.4931,0.4029,0.3828,0.3629,0.2925,0.2622,0.212,0.1718,0.1617,0.1617,0.1617,0.1617,0.1617,0.1617,0.101,0.0908,0.0505,-0.0806,-0.1712,-0.1813,-0.2719,-0.3626,-0.413,-0.4634,-0.5037,-0.5037,-0.5238,-0.5338,-0.5539,-0.5837,-0.6037,-0.6239,-0.6337,-0.6437,-0.6437,-0.6437,-0.6437,-0.6634,-0.6933,-0.7428,-0.8021,-0.9501,-1.0485,-1.1272,-1.2165,-1.2759,-1.2759,-1.2953,-1.3431,-1.486,-1.5704,-1.7289,-1.9231,-2.0512,-2.1924,-2.3674,-2.5378,-2.7069,-2.8119,-2.89,-2.9731,-3.0794,-3.1683,-3.2277,-3.2577,-3.3297,-3.3811,-3.4182,-3.4438,-3.5001,-3.5509,-3.6006,-3.6631,-3.735,-3.8237,-3.9301,-3.9985,-4.0638,-4.1258,-4.1717,-4.208,-4.2426,-4.2848,-4.323,-4.3334,-4.3403,-4.3642,-4.3905,-4.4102,-4.4308,-4.4568,-4.4789,-4.4895,-4.4943,1.1695,1.1559,1.1254,1.0835,1.0277,1.0049,0.9562,0.9141,0.9529,0.9324,0.9229,0.9327,0.9525,0.9422,0.9525,0.9624,0.9426,0.8829,0.8226,0.7223,0.6029,0.4931,0.4232,0.3429,0.2826,0.2122,0.192,0.1718,0.1617,0.1617,0.1617,0.1617,0.1617,0.1617,0.1617,0.1617,0.1414,0.1212,0.0303,0.0,0.0,-0.131,-0.2217,-0.292,-0.3626,-0.4028,-0.413,-0.4433,-0.4836,-0.4939,-0.5338,-0.5639,-0.5839,-0.6139,-0.6337,-0.6339,-0.6337,-0.6437,-0.6437,-0.6537,-0.6933,-0.7826,-0.8715,-0.9702,-1.0587,-1.157,-1.2262,-1.2559,-1.2657,-1.3335,-1.4669,-1.5235,-1.6452,-1.8218,-1.9338,-2.0692,-2.2189,-2.4104,-2.5786,-2.7476,-2.7867,-2.839,-2.9564,-3.0631,-3.1167,-3.1769,-3.2506,-3.3157,-3.352,-3.3948,-3.4505,-3.5067,-3.5509,-3.607,-3.6798,-3.7188,-3.8309,-3.9249,-3.9885,-4.0542,-4.1185,-4.1674,-4.2062,-4.2469,-4.2794,-4.2941,-4.3123,-4.3389,-4.3642,-4.3893,-4.4154,-4.4393,-4.4602,-4.4827,-4.4895,1.1303,1.0535,1.023,0.9419,0.8378,0.8766,0.8354,0.7428,0.8829,0.852,0.7322,0.8722,0.8924,0.8623,0.9225,0.9525,0.9225,0.8726,0.8024,0.6822,0.5827,0.5131,0.3632,0.3128,0.2725,0.2524,0.2222,0.192,0.1617,0.1617,0.1617,0.1617,0.1617,0.1617,0.1617,0.1617,0.1617,0.1516,0.0706,0.0,0.0,-0.0806,-0.1513,-0.1915,-0.2318,-0.2519,-0.262,-0.3123,-0.3525,-0.3626,-0.4636,-0.514,-0.5441,-0.5839,-0.6039,-0.6142,-0.6239,-0.6337,-0.6437,-0.6437,-0.6434,-0.683,-0.7723,-0.8319,-0.9008,-1.0288,-1.137,-1.1863,-1.236,-1.3141,-1.4004,-1.4765,-1.571,-1.7296,-1.878,-2.0076,-2.106,-2.2287,-2.4018,-2.5891,-2.6389,-2.6964,-2.839,-2.9576,-3.019,-3.0869,-3.1696,-3.2492,-3.3087,-3.352,-3.3934,-3.4491,-3.4986,-3.5608,-3.6352,-3.6585,-3.7219,-3.8342,-3.9106,-3.9902,-4.0542,-4.1185,-4.17,-4.2109,-4.2505,-4.279,-4.2976,-4.3124,-4.3355,-4.3539,-4.3862,-4.4154,-4.4374,-4.4557,-4.4758,1.1234,1.0744,1.0146,0.9398,0.873,0.8528,0.7928,0.703,0.7829,0.7627,0.7024,0.7422,0.7723,0.7422,0.7624,0.7922,0.7922,0.7325,0.6528,0.5529,0.4931,0.4331,0.323,0.3029,0.2927,0.2725,0.2523,0.2222,0.1819,0.1819,0.1718,0.1617,0.1617,0.1617,0.1617,0.1617,0.1617,0.1415,0.1111,0.0807,0.0706,-0.0202,-0.0706,-0.0907,-0.1311,-0.1815,-0.2519,-0.2821,-0.3525,-0.4029,-0.4634,-0.4937,-0.5138,-0.534,-0.5741,-0.5942,-0.6142,-0.6237,-0.6337,-0.6437,-0.6437,-0.6537,-0.7428,-0.7925,-0.8319,-0.9402,-1.0583,-1.1268,-1.216,-1.3141,-1.3902,-1.458,-1.5527,-1.6567,-1.8048,-1.9255,-2.0175,-2.097,-2.2551,-2.4296,-2.5052,-2.5953,-2.7464,-2.8493,-2.9123,-2.9897,-3.0807,-3.1623,-3.2506,-3.2932,-3.3283,-3.4288,-3.492,-3.5394,-3.5943,-3.6196,-3.6554,-3.7515,-3.8358,-3.9159,-4.0019,-4.0703,-4.1276,-4.1785,-4.2157,-4.2516,-4.2652,-4.2768,-4.2995,-4.3212,-4.3471,-4.3767,-4.4065,-4.4318,-4.4503,1.1096,1.09,1.0314,0.9715,0.9217,0.8627,0.7832,0.7135,0.7138,0.6734,0.6024,0.6323,0.6423,0.6224,0.6323,0.642,0.6323,0.5629,0.5231,0.4834,0.4234,0.3531,0.323,0.323,0.313,0.2928,0.2826,0.2625,0.2121,0.2021,0.192,0.1819,0.1717,0.1617,0.1718,0.1617,0.1617,0.1617,0.1617,0.1617,0.1313,0.0807,0.0302,0.0302,-0.0504,-0.121,-0.1613,-0.2418,-0.2821,-0.3524,-0.4228,-0.4736,-0.4634,-0.4836,-0.5338,-0.5741,-0.5842,-0.6039,-0.6239,-0.6339,-0.6339,-0.6437,-0.7129,-0.7528,-0.7922,-0.8612,-0.9797,-1.0974,-1.1863,-1.2754,-1.3426,-1.4382,-1.5146,-1.6001,-1.7037,-1.8249,-1.9263,-2.0167,-2.1069,-2.2561,-2.3587,-2.4946,-2.6378,-2.7221,-2.7844,-2.8912,-2.982,-3.0732,-3.1549,-3.206,-3.2706,-3.4138,-3.4935,-3.5279,-3.5668,-3.5894,-3.6321,-3.6951,-3.7748,-3.8525,-3.9387,-4.0235,-4.0844,-4.1455,-4.1796,-4.211,-4.2251,-4.2432,-4.2691,-4.2902,-4.3123,-4.3387,-4.3605,-4.3912,-4.4202,1.0806,1.0122,1.0023,0.932,0.8421,0.8428,0.7531,0.6431,0.7036,0.6037,0.4843,0.5734,0.5839,0.5452,0.6147,0.6434,0.6237,0.6057,0.5365,0.4669,0.4362,0.3853,0.3334,0.323,0.3234,0.3131,0.313,0.2826,0.2423,0.2223,0.2121,0.212,0.1919,0.1718,0.1819,0.1718,0.1617,0.1617,0.1617,0.1617,0.1516,0.1414,0.1313,0.1212,0.1111,0.0707,0.0101,-0.1008,-0.1713,-0.1309,-0.3524,-0.413,-0.3726,-0.4331,-0.4935,-0.5238,-0.5539,-0.5739,-0.6039,-0.6142,-0.6239,-0.6337,-0.6634,-0.6634,-0.703,-0.7822,-0.9106,-1.1072,-1.1375,-1.1965,-1.2942,-1.3613,-1.4382,-1.5337,-1.6372,-1.7419,-1.835,-1.9171,-2.0167,-2.1078,-2.2208,-2.376,-2.5284,-2.588,-2.6637,-2.7787,-2.8846,-2.9756,-3.0732,-3.1462,-3.2146,-3.352,-3.4572,-3.4986,-3.5344,-3.5509,-3.6085,-3.6616,-3.7294,-3.7978,-3.8908,-3.9749,-4.0528,-4.1047,-4.1383,-4.177,-4.2044,-4.2228,-4.2409,-4.2609,-4.2826,-4.2995,-4.3159,-4.349,-4.3836,1.1002,1.0609,1.0212,0.9719,0.9122,0.8825,0.8127,0.7325,0.7428,0.7068,0.6009,0.5717,0.5442,0.5377,0.622,0.6326,0.5906,0.5796,0.5085,0.4359,0.4152,0.3825,0.3392,0.3279,0.3271,0.3243,0.3232,0.313,0.2828,0.2629,0.2523,0.2321,0.2221,0.202,0.2021,0.192,0.1718,0.1617,0.1617,0.1617,0.1617,0.1617,0.1617,0.1617,0.1617,0.1313,0.0605,0.0,-0.0907,-0.1008,-0.3022,-0.3626,-0.3527,-0.413,-0.4834,-0.4935,-0.5035,-0.5436,-0.5939,-0.5942,-0.6139,-0.6339,-0.6437,-0.6437,-0.6634,-0.7329,-0.8517,-1.0092,-1.0881,-1.1668,-1.2657,-1.3426,-1.4196,-1.5051,-1.59,-1.6943,-1.78,-1.8265,-1.9171,-1.9994,-2.0907,-2.2463,-2.3836,-2.4617,-2.5462,-2.6554,-2.7695,-2.8639,-3.0012,-3.1362,-3.2119,-3.296,-3.3865,-3.4558,-3.4905,-3.5169,-3.5831,-3.6368,-3.7011,-3.7748,-3.8525,-3.9318,-4.0052,-4.0528,-4.0879,-4.1248,-4.177,-4.2103,-4.2287,-4.2409,-4.253,-4.2652,-4.2826,-4.3123,-4.3589,1.1047,1.0644,1.0505,1.0388,1.0293,0.953,0.9052,0.8643,0.8247,0.7994,0.7548,0.6548,0.5872,0.5822,0.6461,0.6553,0.5723,0.5627,0.5102,0.4576,0.4252,0.422,0.4083,0.3857,0.3631,0.3275,0.3294,0.3189,0.3184,0.3075,0.2864,0.2626,0.2422,0.2322,0.2222,0.2122,0.2021,0.1718,0.1617,0.1617,0.1617,0.1617,0.1617,0.1617,0.1515,0.1212,0.0504,0.0,-0.0504,-0.0605,-0.2418,-0.3123,-0.2922,-0.3927,-0.4732,-0.4834,-0.4832,-0.5138,-0.5539,-0.5842,-0.6039,-0.6239,-0.6437,-0.6437,-0.6534,-0.7229,-0.8322,-0.9604,-1.0194,-1.1375,-1.2554,-1.3335,-1.4004,-1.4765,-1.5622,-1.6662,-1.7613,-1.8071,-1.8542,-1.9363,-2.0184,-2.0988,-2.2287,-2.325,-2.4276,-2.5389,-2.6461,-2.751,-2.8983,-3.0667,-3.1523,-3.2146,-3.3143,-3.3905,-3.4476,-3.489,-3.5544,-3.607,-3.6707,-3.7354,-3.8019,-3.8745,-3.9508,-3.9935,-4.0302,-4.0784,-4.1265,-4.1727,-4.2145,-4.2287,-4.2409,-4.2409,-4.253,-4.2874,-4.3614,1.0837,0.9473,1.0857,1.1299,1.1208,1.0776,1.0418,1.017,0.9042,0.8633,0.8445,0.7728,0.7326,0.7023,0.7258,0.7252,0.6909,0.6898,0.6611,0.6611,0.6685,0.5854,0.5413,0.4982,0.4557,0.3701,0.3581,0.3585,0.339,0.3262,0.3215,0.3147,0.2743,0.263,0.2526,0.2428,0.2222,0.202,0.1818,0.1718,0.1617,0.1617,0.1617,0.1617,0.1617,0.1516,0.1415,0.0605,0.0403,0.0808,-0.131,-0.262,-0.2418,-0.3626,-0.4431,-0.4732,-0.4832,-0.5037,-0.5338,-0.5539,-0.5837,-0.6237,-0.6437,-0.6437,-0.6437,-0.6437,-0.7528,-0.9209,-0.9899,-1.0886,-1.2073,-1.2953,-1.3721,-1.4675,-1.5432,-1.619,-1.7138,-1.78,-1.8265,-1.8819,-1.9563,-2.03,-2.113,-2.2218,-2.3396,-2.4584,-2.5735,-2.6871,-2.7912,-2.9384,-3.0405,-3.1254,-3.2335,-3.3185,-3.4041,-3.4514,-3.4993,-3.5544,-3.6228,-3.6768,-3.7338,-3.8133,-3.8816,-3.9351,-3.9766,-4.0235,-4.0776,-4.1308,-4.1788,-4.2132,-4.2399,-4.2685,-4.312,-4.3647,-4.4364,1.1399,1.0876,1.1557,1.1511,1.078,1.002,1.0356,1.1088,1.0256,0.9579,0.9349,0.977,0.9392,0.874,0.9075,0.8858,0.8205,0.8205,0.7762,0.7225,0.6896,0.6745,0.6391,0.6131,0.5794,0.4803,0.4471,0.394,0.3409,0.3531,0.3398,0.3239,0.3,0.2878,0.2768,0.2645,0.243,0.2326,0.2123,0.2021,0.1819,0.1819,0.1819,0.1617,0.1617,0.1617,0.1515,0.1212,0.1313,0.101,-0.0403,-0.1109,-0.1815,-0.3123,-0.4128,-0.4732,-0.4832,-0.4935,-0.5138,-0.5338,-0.5639,-0.6039,-0.6239,-0.6437,-0.6437,-0.6437,-0.7528,-0.8817,-0.9608,-1.0592,-1.2365,-1.2856,-1.3431,-1.458,-1.5337,-1.5906,-1.6683,-1.7355,-1.7968,-1.8559,-1.9015,-1.9561,-2.0414,-2.1378,-2.2542,-2.3784,-2.4925,-2.6174,-2.7242,-2.8182,-2.9278,-3.0342,-3.1307,-3.2144,-3.2999,-3.3675,-3.4356,-3.5096,-3.5759,-3.6457,-3.7156,-3.7385,-3.8051,-3.8652,-3.9322,-3.9893,-4.0425,-4.0999,-4.1501,-4.2008,-4.2693,-4.3364,-4.3853,-4.4396,-4.5137,1.1686,1.1274,1.1629,1.1473,1.0884,1.0387,1.083,1.1682,1.1384,1.069,1.0274,1.1176,1.0684,0.9691,0.9798,0.968,0.8783,0.8452,0.8348,0.8121,0.799,0.7746,0.7589,0.7442,0.6983,0.6043,0.5714,0.519,0.4126,0.4006,0.379,0.3557,0.3406,0.3271,0.3025,0.2793,0.2564,0.2565,0.2462,0.236,0.2159,0.2057,0.2046,0.1737,0.1734,0.1625,0.1621,0.1414,0.1515,0.1212,0.0404,-0.0605,-0.1612,-0.2619,-0.3726,-0.4431,-0.4834,-0.4935,-0.5037,-0.5338,-0.5539,-0.5939,-0.6139,-0.6339,-0.6437,-0.6437,-0.7428,-0.9213,-0.9706,-1.0493,-1.2462,-1.2856,-1.3238,-1.4292,-1.4484,-1.5057,-1.6164,-1.7051,-1.7683,-1.83,-1.8738,-1.9288,-2.0381,-2.1386,-2.2722,-2.375,-2.4632,-2.5741,-2.686,-2.7706,-2.8315,-2.9298,-3.0315,-3.1061,-3.1796,-3.2886,-3.4056,-3.5339,-3.5969,-3.6597,-3.7167,-3.7297,-3.7802,-3.8777,-3.9356,-3.9649,-4.0282,-4.1127,-4.1579,-4.2015,-4.2861,-4.3784,-4.4668,-4.5255,-4.5832,1.142,1.0006,1.0887,1.1553,1.1945,1.2229,1.2181,1.2356,1.2262,1.162,1.087,1.1673,1.0676,0.9133,0.9801,0.9691,0.914,0.8251,0.8468,0.9581,0.8916,0.8796,0.8789,0.8549,0.7971,0.7346,0.6979,0.6413,0.5339,0.5099,0.4557,0.3883,0.3609,0.3451,0.3414,0.3087,0.2978,0.2977,0.2758,0.2647,0.2537,0.2429,0.22,0.1977,0.1867,0.1755,0.1639,0.1635,0.1635,0.143,0.0815,-0.0203,-0.1317,-0.2327,-0.3433,-0.4431,-0.4732,-0.4834,-0.4834,-0.5336,-0.5639,-0.5839,-0.6039,-0.6139,-0.6337,-0.6537,-0.7329,-0.9312,-0.9608,-1.0596,-1.1873,-1.2856,-1.3335,-1.3823,-1.4118,-1.4666,-1.5787,-1.68,-1.7469,-1.8001,-1.8633,-1.9439,-2.0506,-2.1692,-2.2951,-2.3942,-2.4487,-2.533,-2.637,-2.7238,-2.7804,-2.8449,-2.9402,-3.0381,-3.1302,-3.2554,-3.3854,-3.5161,-3.5996,-3.6374,-3.7,-3.7405,-3.8067,-3.8937,-3.9338,-3.951,-4.0401,-4.1415,-4.2115,-4.2876,-4.3376,-4.423,-4.5214,-4.6042,-4.6532,1.2654,1.2105,1.2001,1.2073,1.213,1.1088,1.1337,1.2327,1.2332,1.2114,1.1896,1.2001,1.1673,1.0899,1.057,1.0574,1.0241,1.0131,1.0574,1.0359,0.9475,0.9585,0.9585,0.9254,0.8699,0.8364,0.8143,0.7476,0.6468,0.5924,0.5369,0.4688,0.389,0.3504,0.3437,0.3305,0.3304,0.3197,0.3196,0.309,0.2879,0.2774,0.2553,0.2218,0.2113,0.1893,0.1774,0.1667,0.1667,0.1667,0.1041,0.0518,-0.0515,-0.1641,-0.2652,-0.3745,-0.4234,-0.4832,-0.4834,-0.5035,-0.5236,-0.5639,-0.5939,-0.6039,-0.6337,-0.6437,-0.7627,-0.892,-0.9525,-1.0708,-1.2268,-1.2673,-1.3163,-1.3767,-1.4201,-1.4631,-1.5524,-1.6518,-1.7253,-1.7647,-1.8185,-1.9475,-2.0745,-2.145,-2.2664,-2.3632,-2.4155,-2.4609,-2.5462,-2.6619,-2.7403,-2.7752,-2.8591,-2.9642,-3.082,-3.2051,-3.3252,-3.4416,-3.5166,-3.5655,-3.6297,-3.7377,-3.7933,-3.8666,-3.8994,-3.9409,-4.0643,-4.1888,-4.3029,-4.3854,-4.4044,-4.4558,-4.5517,-4.6308,-4.698,1.3532,1.3207,1.2876,1.255,1.2219,1.1227,1.145,1.2327,1.2332,1.2219,1.2001,1.2005,1.1559,1.1118,1.1008,1.1013,1.057,1.0017,1.0794,1.0464,0.9475,0.9695,0.9919,0.9585,0.892,0.8809,0.8364,0.7584,0.6366,0.6146,0.5704,0.5148,0.4257,0.3657,0.3496,0.3484,0.3482,0.3485,0.3379,0.3376,0.3265,0.3043,0.2817,0.2587,0.2364,0.2143,0.2027,0.1918,0.1812,0.1813,0.1596,0.1166,0.0105,-0.0626,-0.1765,-0.2986,-0.4182,-0.479,-0.4888,-0.4841,-0.5142,-0.5438,-0.5739,-0.5939,-0.6237,-0.6339,-0.7329,-0.8428,-0.9363,-1.0587,-1.1895,-1.2294,-1.3078,-1.3709,-1.3969,-1.4506,-1.5083,-1.5978,-1.655,-1.6955,-1.7966,-1.9343,-2.0772,-2.1445,-2.2155,-2.3019,-2.3869,-2.4221,-2.4682,-2.5849,-2.6822,-2.7104,-2.7876,-2.9041,-3.0307,-3.1477,-3.2631,-3.3807,-3.4549,-3.5217,-3.6603,-3.7739,-3.8057,-3.8462,-3.9241,-4.0091,-4.1183,-4.2333,-4.2993,-4.3655,-4.4198,-4.4837,-4.5815,-4.6376,-4.6898,1.3846,1.3423,1.3315,1.2985,1.2441,1.2219,1.2332,1.2436,1.2436,1.2005,1.1236,1.211,1.1555,0.979,1.0123,1.0457,1.0237,0.9016,0.968,1.0241,0.9695,1.0029,0.9915,0.9361,0.903,0.8585,0.8029,0.7254,0.5813,0.6035,0.6035,0.5148,0.4035,0.3682,0.3563,0.3557,0.3557,0.3552,0.3552,0.3549,0.3437,0.3227,0.3093,0.2856,0.2735,0.2501,0.227,0.2152,0.2041,0.1931,0.1713,0.1069,0.0533,0.0107,-0.1278,-0.2856,-0.4278,-0.4675,-0.4967,-0.491,-0.4989,-0.5304,-0.5484,-0.5763,-0.5959,-0.6279,-0.7098,-0.8042,-0.9008,-1.0155,-1.1199,-1.2126,-1.3067,-1.34,-1.3529,-1.3992,-1.4435,-1.5076,-1.5646,-1.6374,-1.7549,-1.8897,-2.0342,-2.1191,-2.1818,-2.2659,-2.3332,-2.3708,-2.4244,-2.516,-2.5989,-2.6293,-2.7108,-2.8457,-2.9704,-3.0719,-3.2018,-3.3142,-3.4309,-3.5181,-3.6683,-3.7627,-3.7842,-3.8337,-3.9677,-4.0659,-4.1188,-4.1805,-4.2442,-4.3114,-4.3738,-4.441,-4.5127,-4.58,-4.6328,1.4713,1.4396,1.364,1.3212,1.2989,1.2545,1.2436,1.2436,1.2436,1.2223,1.2001,1.2219,1.1887,1.1442,1.1664,1.1555,1.1227,1.1008,1.1008,1.0794,1.0135,1.0245,0.9911,0.9137,0.9027,0.8916,0.8361,0.7143,0.7257,0.7035,0.5256,0.4145,0.3811,0.3699,0.3587,0.3587,0.3587,0.3587,0.3587,0.3587,0.3587,0.3475,0.3346,0.3114,0.2999,0.2762,0.2645,0.2533,0.2313,0.2095,0.2098,0.1652,0.1411,0.0542,-0.0865,-0.2981,-0.3702,-0.4118,-0.4853,-0.5043,-0.5016,-0.5112,-0.5326,-0.5604,-0.5887,-0.6172,-0.6705,-0.7667,-0.8553,-0.9526,-1.0595,-1.1615,-1.2427,-1.2769,-1.3127,-1.3937,-1.4387,-1.4798,-1.5253,-1.5927,-1.7121,-1.8485,-1.9849,-2.0995,-2.1615,-2.2333,-2.2846,-2.3138,-2.3628,-2.4609,-2.5197,-2.5382,-2.6157,-2.7389,-2.868,-2.9772,-3.1104,-3.2488,-3.3564,-3.4581,-3.5399,-3.6328,-3.7127,-3.8144,-3.9247,-4.0045,-4.0653,-4.1276,-4.1868,-4.2396,-4.2982,-4.3731,-4.4451,-4.5074,-4.5699,1.525,1.4821,1.4067,1.3418,1.2876,1.255,1.2436,1.2436,1.2436,1.2436,1.2436,1.2436,1.2436,1.2327,1.2327,1.2219,1.211,1.1782,1.1782,1.145,1.0684,1.0794,1.0127,0.9244,0.9027,0.9027,0.8361,0.7033,0.7146,0.5924,0.4257,0.448,0.4035,0.3587,0.3587,0.3587,0.3587,0.3587,0.3587,0.3587,0.3587,0.3587,0.3475,0.3362,0.325,0.3139,0.2915,0.2805,0.2692,0.2356,0.2356,0.2124,0.1658,0.0772,-0.011,-0.1958,-0.3019,-0.355,-0.4293,-0.4902,-0.5002,-0.511,-0.5222,-0.5419,-0.5604,-0.5901,-0.6427,-0.718,-0.7874,-0.8779,-0.9855,-1.083,-1.1393,-1.2063,-1.3007,-1.3853,-1.4243,-1.4629,-1.5091,-1.5642,-1.6711,-1.8073,-1.9332,-2.0372,-2.1514,-2.2241,-2.2653,-2.2745,-2.3138,-2.3827,-2.4214,-2.451,-2.5285,-2.6244,-2.7432,-2.8637,-3.0011,-3.1288,-3.2463,-3.3395,-3.421,-3.5116,-3.616,-3.7343,-3.859,-3.9247,-3.9692,-4.06,-4.126,-4.1722,-4.2317,-4.2986,-4.3706,-4.4395,-4.502,1.5571,1.5035,1.4498,1.3521,1.2545,1.2441,1.2436,1.2436,1.2436,1.2436,1.2436,1.2436,1.2436,1.2436,1.2436,1.2436,1.2327,1.211,1.211,1.2001,1.1564,1.1455,1.0903,1.0021,0.9578,0.8803,0.7808,0.6808,0.5481,0.4814,0.4702,0.5148,0.4145,0.3587,0.3587,0.3587,0.3587,0.3587,0.3587,0.3587,0.3587,0.3587,0.3587,0.3587,0.3475,0.3475,0.325,0.3138,0.3027,0.2692,0.2468,0.2354,0.1791,0.1118,0.0447,-0.0557,-0.187,-0.2957,-0.3599,-0.4336,-0.4847,-0.5046,-0.5132,-0.5291,-0.5519,-0.5687,-0.6209,-0.658,-0.7285,-0.7741,-0.8618,-0.9942,-1.0837,-1.1603,-1.2622,-1.3542,-1.4223,-1.4482,-1.4702,-1.5244,-1.6074,-1.7338,-1.838,-1.942,-2.068,-2.1818,-2.2342,-2.2232,-2.2745,-2.3238,-2.3529,-2.3728,-2.4402,-2.5275,-2.6224,-2.7526,-2.8833,-3.0022,-3.1223,-3.2463,-3.3467,-3.4363,-3.5265,-3.6462,-3.7663,-3.8098,-3.862,-3.9463,-4.0309,-4.094,-4.1541,-4.2253,-4.2925,-4.363,-4.4395,1.5785,1.5571,1.46,1.3738,1.3098,1.2545,1.2441,1.2436,1.2436,1.2436,1.2436,1.2436,1.2436,1.2436,1.2436,1.2436,1.2327,1.2327,1.2332,1.2219,1.2001,1.1787,1.1564,1.057,1.0127,0.9798,0.8689,0.6919,0.5924,0.5258,0.4592,0.4145,0.3699,0.3811,0.3587,0.3587,0.3587,0.3587,0.3587,0.3587,0.3587,0.3587,0.3587,0.3587,0.3587,0.3587,0.3475,0.3475,0.325,0.3026,0.2914,0.269,0.2243,0.1795,0.1121,0.0112,-0.0558,-0.1777,-0.288,-0.3752,-0.4402,-0.5076,-0.5304,-0.5322,-0.542,-0.568,-0.5886,-0.6165,-0.6531,-0.6984,-0.7656,-0.8999,-1.0229,-1.1214,-1.2091,-1.3083,-1.397,-1.4191,-1.4299,-1.4928,-1.5547,-1.6493,-1.7437,-1.8478,-1.9738,-2.057,-2.1089,-2.1505,-2.2232,-2.2837,-2.2946,-2.3138,-2.3529,-2.4402,-2.5256,-2.6214,-2.7526,-2.8751,-2.9954,-3.13,-3.271,-3.372,-3.4706,-3.5695,-3.6596,-3.7078,-3.7644,-3.8337,-3.9118,-3.9905,-4.082,-4.1525,-4.219,-4.2863,-4.3689,1.5885,1.5785,1.4928,1.4062,1.3315,1.2985,1.2654,1.2436,1.2436,1.2436,1.2436,1.2436,1.2436,1.2436,1.2436,1.2436,1.2436,1.2436,1.2327,1.2327,1.2219,1.2114,1.1564,1.1122,1.1122,1.0789,0.9354,0.7919,0.7033,0.6255,0.5588,0.459,0.4369,0.4145,0.3811,0.3587,0.3699,0.3587,0.3587,0.3587,0.3587,0.3587,0.3587,0.3587,0.3587,0.3587,0.3587,0.3587,0.3475,0.325,0.3138,0.2915,0.258,0.2356,0.1907,0.1121,0.0448,-0.0448,-0.1791,-0.291,-0.3694,-0.448,-0.527,-0.5252,-0.5363,-0.5528,-0.5859,-0.6128,-0.6352,-0.6695,-0.7465,-0.8582,-0.9247,-1.0014,-1.1,-1.1987,-1.3088,-1.3748,-1.397,-1.4401,-1.5024,-1.5648,-1.6592,-1.7219,-1.8471,-1.9701,-2.012,-2.0743,-2.1582,-2.2342,-2.2443,-2.2653,-2.3147,-2.3538,-2.4304,-2.5168,-2.6127,-2.7453,-2.868,-3.0237,-3.1665,-3.3041,-3.4236,-3.4815,-3.5386,-3.6029,-3.6582,-3.74,-3.8188,-3.8987,-3.9905,-4.0805,-4.1393,-4.2045,-4.2831,1.5885,1.5779,1.525,1.4504,1.3527,1.3315,1.2989,1.2545,1.2441,1.2436,1.2436,1.2436,1.2436,1.2436,1.2436,1.2436,1.2436,1.2436,1.2436,1.2436,1.2327,1.2223,1.2114,1.2005,1.1782,1.1345,1.0241,0.9581,0.9027,0.8026,0.703,0.5924,0.5481,0.5148,0.437,0.3923,0.4033,0.3924,0.3924,0.3587,0.3587,0.3587,0.3587,0.3587,0.3587,0.3587,0.3587,0.3587,0.3587,0.3475,0.3362,0.3027,0.2915,0.2691,0.2581,0.1907,0.1345,0.056,-0.0448,-0.179,-0.2797,-0.3805,-0.4706,-0.5156,-0.5266,-0.5491,-0.5714,-0.5938,-0.6161,-0.6495,-0.7265,-0.7817,-0.8367,-0.914,-1.0123,-1.1,-1.21,-1.3197,-1.3527,-1.3862,-1.4498,-1.5013,-1.5648,-1.6274,-1.7206,-1.8435,-1.9361,-2.0082,-2.0915,-2.1582,-2.203,-2.2342,-2.2846,-2.3238,-2.3529,-2.4205,-2.5178,-2.6041,-2.7358,-2.9039,-3.0609,-3.2178,-3.3152,-3.3433,-3.4082,-3.4897,-3.5789,-3.661,-3.7386,-3.8008,-3.8899,-3.9819,-4.0416,-4.1064,-4.1869,1.5885,1.5891,1.5256,1.4826,1.4498,1.3748,1.3207,1.3093,1.2545,1.2436,1.2436,1.2436,1.2436,1.2436,1.2436,1.2436,1.2436,1.2436,1.2436,1.2436,1.2436,1.2332,1.2332,1.2223,1.211,1.1782,1.1236,1.0684,1.0241,0.9464,0.8575,0.7249,0.7138,0.6818,0.6403,0.5723,0.4929,0.4709,0.4148,0.3811,0.3587,0.3587,0.3587,0.3587,0.3587,0.3587,0.3587,0.3587,0.3587,0.3587,0.3475,0.3251,0.3139,0.3027,0.2917,0.258,0.2018,0.1345,0.0448,-0.0559,-0.1454,-0.3021,-0.3918,-0.4592,-0.4817,-0.5382,-0.5603,-0.5824,-0.6049,-0.6272,-0.6824,-0.7157,-0.7709,-0.8809,-0.9798,-1.0343,-1.1109,-1.1982,-1.2639,-1.3083,-1.363,-1.4159,-1.4595,-1.5227,-1.5867,-1.6897,-1.7738,-1.8561,-2.0128,-2.0869,-2.1505,-2.192,-2.2342,-2.2644,-2.2846,-2.3429,-2.4304,-2.507,-2.6127,-2.7923,-2.9681,-3.1412,-3.2215,-3.2488,-3.3104,-3.3856,-3.4746,-3.5722,-3.6439,-3.7063,-3.7872,-3.8679,-3.9346,-4.0039,-4.0863]}]]